[[{"header":{"parameterUnit":"m.s-1","parameterCategory":1,"la1":30.6,"la2":28.766,"lo1":-90.7593,"lo2":-88.6598,"dy":0.0162,"dx":0.0183,"nx":116,"ny":114,"refTime":"2023-05-26T12:00:00:Z","depth":0,"parameterNumber":2,"parameterNumberName":"U-component_of_WINDS"},"data":[0.0,0.0,0.0,0.0,0.0,0.0,0.0,0.0,0.0,0.0,0.0,0.0,0.0,0.0,0.0,0.0,0.0,0.0,0.0,0.0,0.0,0.0,0.0,0.0,0.0,0.0,0.0,0.0,0.0,0.0,0.0,0.0,0.0,0.0,0.0,0.0,0.0,0.0,0.0,0.0,0.0,0.0,0.0,0.0,0.0,0.0,0.0,0.0,0.0,0.0,0.0,0.0,0.0,0.0,0.0,0.0,0.0,0.0,0.0,0.0,0.0,0.0,0.0,0.0,0.0,0.0,0.0,0.0,0.0,0.0,0.0,0.0,0.0,0.0,0.0,0.0,0.0,0.0,0.0,0.0,0.0,0.0,0.0,0.0,0.0,0.0,0.0,0.0,0.0,0.0,0.0,0.0,0.0,0.0,0.0,0.0,0.0,0.0,0.0,0.0,0.0,0.0,0.0,0.0,0.0,0.0,0.0,0.0,0.0,0.0,0.0,0.0,0.0,0.0,0.0,0.0,0.0,0.0,0.0,0.0,0.0,0.0,0.0,0.0,0.0,0.0,0.0,0.0,0.0,0.0,0.0,0.0,0.0,0.0,0.0,0.0,0.0,0.0,0.0,0.0,0.0,0.0,0.0,0.0,0.0,0.0,0.0,0.0,0.0,0.0,0.0,0.0,0.0,0.0,0.0,0.0,0.0,0.0,0.0,0.0,0.0,0.0,0.0,0.0,0.0,0.0,0.0,0.0,0.0,0.0,0.0,0.0,0.0,0.0,0.0,0.0,0.0,0.0,0.0,0.0,0.0,0.0,0.0,0.0,0.0,0.0,0.0,0.0,0.0,0.0,0.0,0.0,0.0,0.0,0.0,0.0,0.0,0.0,0.0,0.0,0.0,0.0,0.0,0.0,0.0,0.0,0.0,0.0,0.0,0.0,0.0,0.0,0.0,0.0,0.0,0.0,0.0,0.0,0.0,0.0,0.0,0.0,0.0,0.0,0.0,0.0,0.0,0.0,0.0,0.0,0.0,0.0,0.0,0.0,0.0,0.0,0.0,0.0,0.0,0.0,0.0,0.0,0.0,0.0,0.0,0.0,0.0,0.0,0.0,0.0,0.0,0.0,0.0,0.0,0.0,0.0,0.0,0.0,0.0,0.0,0.0,0.0,0.0,0.0,0.0,0.0,0.0,0.0,0.0,0.0,0.0,0.0,0.0,0.0,0.0,0.0,0.0,0.0,0.0,0.0,0.0,0.0,0.0,0.0,0.0,0.0,0.0,0.0,0.0,0.0,0.0,0.0,0.0,0.0,0.0,0.0,0.0,0.0,0.0,0.0,0.0,0.0,0.0,0.0,0.0,0.0,0.0,0.0,0.0,0.0,0.0,0.0,0.0,0.0,0.0,0.0,0.0,0.0,0.0,0.0,0.0,0.0,0.0,0.0,0.0,0.0,0.0,0.0,0.0,0.0,0.0,0.0,0.0,0.0,0.0,0.0,0.0,0.0,0.0,0.0,0.0,0.0,0.0,0.0,0.0,0.0,0.0,0.0,0.0,0.0,0.0,0.0,0.0,0.0,0.0,0.0,0.0,0.0,0.0,0.0,0.0,0.0,0.0,0.0,0.0,0.0,0.0,0.0,0.0,0.0,0.0,0.0,0.0,0.0,0.0,0.0,0.0,0.0,0.0,0.0,0.0,0.0,0.0,0.0,0.0,0.0,0.0,0.0,0.0,0.0,0.0,0.0,0.0,0.0,0.0,0.0,0.0,0.0,0.0,0.0,0.0,0.0,0.0,0.0,0.0,0.0,0.0,0.0,0.0,0.0,0.0,0.0,0.0,0.0,0.0,0.0,0.0,0.0,0.0,0.0,0.0,0.0,0.0,0.0,0.0,0.0,0.0,0.0,0.0,0.0,0.0,0.0,0.0,0.0,0.0,0.0,0.0,0.0,0.0,0.0,0.0,0.0,0.0,0.0,0.0,0.0,0.0,0.0,0.0,0.0,0.0,0.0,0.0,0.0,0.0,0.0,0.0,0.0,0.0,0.0,0.0,0.0,0.0,0.0,0.0,0.0,0.0,0.0,0.0,0.0,0.0,0.0,0.0,0.0,0.0,0.0,0.0,0.0,0.0,0.0,0.0,0.0,0.0,0.0,0.0,0.0,0.0,0.0,0.0,0.0,0.0,0.0,0.0,0.0,0.0,0.0,0.0,0.0,0.0,0.0,0.0,0.0,0.0,0.0,0.0,0.0,0.0,0.0,0.0,0.0,0.0,0.0,0.0,0.0,0.0,0.0,0.0,0.0,0.0,0.0,0.0,0.0,0.0,0.0,0.0,0.0,0.0,0.0,0.0,0.0,0.0,0.0,0.0,0.0,0.0,0.0,0.0,0.0,0.0,0.0,0.0,0.0,0.0,0.0,0.0,0.0,0.0,0.0,0.0,0.0,0.0,0.0,0.0,0.0,0.0,0.0,0.0,0.0,0.0,0.0,0.0,0.0,0.0,0.0,0.0,0.0,0.0,0.0,0.0,0.0,0.0,0.0,0.0,0.0,0.0,0.0,0.0,0.0,0.0,0.0,0.0,0.0,0.0,0.0,0.0,0.0,0.0,0.0,0.0,0.0,0.0,0.0,0.0,0.0,0.0,0.0,0.0,0.0,0.0,0.0,0.0,0.0,0.0,0.0,0.0,0.0,0.0,0.0,0.0,0.0,0.0,0.0,0.0,0.0,0.0,0.0,0.0,0.0,0.0,0.0,0.0,0.0,0.0,0.0,0.0,0.0,0.0,0.0,0.0,0.0,0.0,0.0,0.0,0.0,0.0,0.0,0.0,0.0,0.0,0.0,0.0,0.0,0.0,0.0,0.0,0.0,0.0,0.0,0.0,0.0,0.0,0.0,0.0,0.0,0.0,0.0,0.0,0.0,0.0,0.0,0.0,0.0,0.0,0.0,0.0,0.0,0.0,0.0,0.0,0.0,0.0,0.0,0.0,0.0,0.0,0.0,0.0,0.0,0.0,0.0,0.0,0.0,0.0,0.0,0.0,0.0,0.0,0.0,0.0,0.0,0.0,0.0,0.0,0.0,0.0,0.0,0.0,0.0,0.0,0.0,0.0,0.0,0.0,0.0,0.0,0.0,0.0,0.0,0.0,0.0,0.0,0.0,0.0,0.0,0.0,0.0,0.0,0.0,0.0,0.0,0.0,0.0,0.0,0.0,0.0,0.0,0.0,0.0,0.0,0.0,0.0,0.0,0.0,0.0,0.0,0.0,0.0,0.0,0.0,0.0,0.0,0.0,0.0,0.0,0.0,0.0,0.0,0.0,0.0,0.0,0.0,0.0,0.0,0.0,0.0,0.0,0.0,0.0,0.0,0.0,0.0,0.0,0.0,0.0,0.0,0.0,0.0,0.0,0.0,0.0,0.0,0.0,0.0,0.0,0.0,0.0,0.0,0.0,0.0,0.0,0.0,0.0,0.0,0.0,0.0,0.0,0.0,0.0,0.0,0.0,0.0,0.0,0.0,0.0,0.0,0.0,0.0,0.0,0.0,0.0,0.0,0.0,0.0,0.0,0.0,0.0,0.0,0.0,0.0,0.0,0.0,0.0,0.0,0.0,0.0,0.0,0.0,0.0,0.0,0.0,0.0,0.0,0.0,0.0,0.0,0.0,0.0,0.0,0.0,0.0,0.0,0.0,0.0,0.0,0.0,0.0,0.0,0.0,0.0,0.0,0.0,0.0,0.0,0.0,0.0,0.0,0.0,0.0,0.0,0.0,0.0,0.0,0.0,0.0,0.0,0.0,0.0,0.0,0.0,0.0,0.0,0.0,0.0,0.0,0.0,0.0,0.0,0.0,0.0,0.0,0.0,0.0,0.0,0.0,0.0,0.0,0.0,0.0,0.0,0.0,0.0,0.0,0.0,0.0,0.0,0.0,0.0,0.0,0.0,0.0,0.0,0.0,0.0,0.0,0.0,0.0,0.0,0.0,0.0,0.0,0.0,0.0,0.0,0.0,0.0,0.0,0.0,0.0,0.0,0.0,0.0,0.0,0.0,0.0,0.0,0.0,0.0,0.0,0.0,0.0,0.0,0.0,0.0,0.0,0.0,0.0,0.0,0.0,0.0,0.0,0.0,0.0,0.0,0.0,0.0,0.0,0.0,0.0,0.0,0.0,0.0,0.0,0.0,0.0,0.0,0.0,0.0,0.0,0.0,0.0,0.0,0.0,0.0,0.0,0.0,0.0,0.0,0.0,0.0,0.0,0.0,0.0,0.0,0.0,0.0,0.0,0.0,0.0,0.0,0.0,0.0,0.0,0.0,0.0,0.0,0.0,0.0,0.0,0.0,0.0,0.0,0.0,0.0,0.0,0.0,0.0,0.0,0.0,0.0,0.0,0.0,0.0,0.0,0.0,0.0,0.0,0.0,0.0,0.0,0.0,0.0,0.0,0.0,0.0,0.0,0.0,0.0,0.0,0.0,0.0,0.0,0.0,0.0,0.0,0.0,0.0,0.0,0.0,0.0,0.0,0.0,0.0,0.0,0.0,0.0,0.0,0.0,0.0,0.0,0.0,0.0,0.0,0.0,0.0,0.0,0.0,0.0,0.0,0.0,0.0,0.0,0.0,0.0,0.0,0.0,0.0,0.0,0.0,0.0,0.0,0.0,0.0,0.0,0.0,0.0,0.0,0.0,0.0,0.0,0.0,0.0,0.0,0.0,0.0,0.0,0.0,0.0,0.0,0.0,0.0,0.0,0.0,0.0,0.0,0.0,0.0,0.0,0.0,0.0,0.0,0.0,0.0,0.0,0.0,0.0,0.0,0.0,0.0,0.0,0.0,0.0,0.0,0.0,0.0,0.0,0.0,0.0,0.0,0.0,0.0,0.0,0.0,0.0,0.0,0.0,0.0,0.0,0.0,0.0,0.0,0.0,0.0,0.0,0.0,0.0,0.0,0.0,0.0,0.0,0.0,0.0,0.0,0.0,0.0,0.0,0.0,0.0,0.0,0.0,0.0,0.0,0.0,0.0,0.0,0.0,0.0,0.0,0.0,0.0,0.0,0.0,0.0,0.0,0.0,0.0,0.0,0.0,0.0,0.0,0.0,0.0,0.0,0.0,0.0,0.0,0.0,0.0,0.0,0.0,0.0,0.0,0.0,0.0,0.0,0.0,0.0,0.0,0.0,0.0,0.0,0.0,0.0,0.0,0.0,0.0,0.0,0.0,0.0,0.0,0.0,0.0,0.0,0.0,0.0,0.0,0.0,0.0,0.0,0.0,0.0,0.0,0.0,0.0,0.0,0.0,0.0,0.0,0.0,0.0,0.0,0.0,0.0,0.0,0.0,0.0,0.0,0.0,0.0,0.0,0.0,0.0,0.0,0.0,0.0,0.0,0.0,0.0,0.0,0.0,0.0,0.0,0.0,0.0,0.0,0.0,0.0,0.0,0.0,0.0,0.0,0.0,0.0,0.0,0.0,0.0,0.0,0.0,0.0,0.0,0.0,0.0,0.0,0.0,0.0,0.0,0.0,0.0,0.0,0.0,0.0,0.0,0.0,0.0,0.0,0.0,0.0,0.0,0.0,0.0,0.0,0.0,0.0,0.0,0.0,0.0,0.0,0.0,0.0,0.0,0.0,0.0,0.0,0.0,0.0,0.0,0.0,0.0,0.0,0.0,0.0,0.0,0.0,0.0,0.0,0.0,0.0,0.0,0.0,0.0,0.0,0.0,0.0,0.0,0.0,0.0,0.0,0.0,0.0,0.0,0.0,0.0,0.0,0.0,0.0,0.0,0.0,0.0,0.0,0.0,0.0,0.0,0.0,0.0,0.0,0.0,0.0,0.0,0.0,0.0,0.0,0.0,0.0,0.0,0.0,0.0,0.0,0.0,0.0,0.0,0.0,0.0,0.0,0.0,0.0,0.0,0.0,0.0,0.0,0.0,0.0,0.0,0.0,0.0,0.0,0.0,0.0,0.0,0.0,0.0,0.0,0.0,0.0,0.0,0.0,0.0,0.0,0.0,0.0,0.0,0.0,0.0,0.0,0.0,0.0,0.0,0.0,0.0,0.0,0.0,0.0,0.0,0.0,0.0,0.0,0.0,0.0,0.0,0.0,0.0,0.0,2.5634,2.6312,0.0,0.0,0.0,0.0,0.0,0.0,0.0,0.0,0.0,0.0,0.0,0.0,0.0,0.0,0.0,0.0,0.0,0.0,0.0,0.0,0.0,0.0,0.0,0.0,0.0,0.0,0.0,0.0,0.0,0.0,0.0,0.0,0.0,0.0,0.0,0.0,0.0,0.0,0.0,0.0,0.0,0.0,0.0,0.0,0.0,0.0,0.0,0.0,0.0,0.0,0.0,0.0,0.0,0.0,0.0,0.0,0.0,0.0,0.0,0.0,0.0,0.0,0.0,0.0,0.0,0.0,0.0,0.0,0.0,0.0,0.0,0.0,0.0,0.0,0.0,0.0,0.0,0.0,0.0,0.0,0.0,0.0,0.0,0.0,0.0,0.0,0.0,0.0,0.0,0.0,0.0,0.0,0.0,0.0,0.0,0.0,0.0,0.0,0.0,0.0,0.0,0.0,0.0,0.0,0.0,0.0,0.0,0.0,0.0,0.0,0.0,0.0,0.0,0.0,2.5185,2.5663,0.0,0.0,0.0,0.0,0.0,0.0,0.0,0.0,0.0,0.0,0.0,0.0,0.0,0.0,0.0,0.0,0.0,0.0,0.0,0.0,0.0,0.0,0.0,0.0,0.0,0.0,0.0,0.0,0.0,0.0,0.0,0.0,0.0,0.0,0.0,0.0,0.0,0.0,0.0,0.0,0.0,0.0,0.0,0.0,0.0,0.0,0.0,0.0,0.0,0.0,0.0,0.0,0.0,0.0,0.0,0.0,0.0,0.0,0.0,0.0,0.0,0.0,0.0,0.0,0.0,0.0,0.0,0.0,0.0,0.0,0.0,0.0,0.0,0.0,0.0,0.0,0.0,0.0,0.0,0.0,0.0,0.0,0.0,0.0,0.0,0.0,0.0,0.0,0.0,0.0,0.0,0.0,0.0,0.0,0.0,0.0,0.0,0.0,0.0,0.0,0.0,0.0,0.0,0.0,0.0,0.0,0.0,0.0,2.3752,2.3666,2.3666,2.3666,2.3752,2.3937,2.4517,2.4895,2.5029,2.5192,0.0,0.0,0.0,0.0,0.0,0.0,0.0,0.0,0.0,0.0,0.0,0.0,0.0,0.0,0.0,0.0,0.0,0.0,0.0,0.0,0.0,0.0,0.0,0.0,0.0,0.0,0.0,0.0,0.0,0.0,0.0,0.0,0.0,0.0,0.0,0.0,0.0,0.0,2.893,2.8259,2.7414,2.6575,2.8264,0.0,0.0,0.0,0.0,0.0,0.0,0.0,0.0,0.0,0.0,0.0,0.0,0.0,0.0,0.0,0.0,0.0,0.0,0.0,0.0,0.0,0.0,0.0,0.0,0.0,0.0,0.0,0.0,0.0,0.0,0.0,0.0,0.0,0.0,0.0,0.0,0.0,0.0,0.0,0.0,0.0,0.0,0.0,2.664,2.6197,0.0,0.0,0.0,0.0,0.0,0.0,0.0,0.0,0.0,0.0,0.0,0.0,0.0,2.292,2.292,2.3024,2.283,2.2392,2.2589,2.268,2.268,2.268,2.2875,2.326,2.3436,0.0,2.467,2.4695,0.0,0.0,0.0,0.0,0.0,0.0,0.0,0.0,0.0,0.0,0.0,0.0,0.0,0.0,0.0,0.0,0.0,0.0,0.0,0.0,0.0,0.0,0.0,0.0,0.0,0.0,0.0,0.0,0.0,0.0,0.0,0.0,0.0,0.0,0.0,0.0,2.8113,2.8422,2.7813,2.6905,2.6195,2.5729,2.6127,2.6499,2.6836,2.7228,0.0,0.0,0.0,0.0,0.0,0.0,0.0,0.0,0.0,0.0,0.0,0.0,0.0,0.0,0.0,0.0,0.0,0.0,0.0,0.0,0.0,0.0,0.0,0.0,0.0,0.0,0.0,0.0,0.0,0.0,0.0,0.0,0.0,0.0,0.0,0.0,0.0,0.0,0.0,2.6216,2.557,2.5195,2.4261,2.3468,0.0,0.0,0.0,0.0,0.0,0.0,0.0,0.0,0.0,2.196,2.2108,2.2203,2.2203,2.2249,2.2156,2.1921,2.2063,2.2109,2.2109,2.2109,2.2356,2.2723,2.2799,2.3201,2.3767,2.4036,2.4245,2.441,0.0,0.0,0.0,0.0,2.3724,2.3098,0.0,0.0,0.0,0.0,0.0,0.0,0.0,0.0,0.0,0.0,0.0,0.0,0.0,0.0,0.0,2.7614,0.0,0.0,0.0,0.0,0.0,0.0,0.0,0.0,0.0,0.0,0.0,0.0,2.81,2.8071,2.6845,2.5667,2.5012,2.483,2.4185,2.456,2.5756,2.6275,2.6065,0.0,0.0,0.0,0.0,0.0,0.0,0.0,0.0,0.0,0.0,0.0,0.0,0.0,0.0,0.0,0.0,0.0,0.0,0.0,0.0,0.0,0.0,0.0,0.0,0.0,0.0,0.0,0.0,0.0,0.0,0.0,0.0,0.0,0.0,0.0,0.0,0.0,0.0,2.5163,2.4545,2.4138,2.3186,2.234,0.0,0.0,0.0,0.0,0.0,0.0,2.1116,2.1356,2.1554,2.165,2.1554,2.1506,2.1506,2.1541,2.1554,2.141,2.1506,2.1554,2.1554,2.1766,2.2076,2.2517,2.2597,2.2815,2.3227,2.3554,2.3739,2.3909,2.4036,2.4021,2.3806,2.3879,2.3406,2.2756,0.0,0.0,0.0,0.0,0.0,0.0,0.0,0.0,0.0,0.0,0.0,0.0,0.0,0.0,2.8545,2.9318,2.8681,2.8205,0.0,0.0,0.0,0.0,0.0,0.0,0.0,0.0,0.0,2.6816,2.8076,2.7865,2.6212,2.4686,2.3656,2.3116,2.2874,2.3496,2.4649,2.4435,2.4245,2.4081,0.0,0.0,0.0,0.0,0.0,0.0,0.0,0.0,0.0,0.0,0.0,0.0,0.0,0.0,0.0,0.0,0.0,0.0,0.0,0.0,0.0,0.0,0.0,0.0,0.0,0.0,0.0,0.0,0.0,0.0,0.0,0.0,0.0,0.0,0.0,0.0,0.0,0.0,0.0,2.3143,2.1942,0.0,0.0,0.0,0.0,2.0346,2.0268,2.0346,2.0779,2.0733,2.066,2.066,2.066,2.066,2.066,2.0894,2.0795,2.0283,2.066,2.0845,2.0871,2.1605,2.2264,2.286,2.2888,2.3132,2.3493,2.3391,2.3319,2.3363,2.3566,2.3638,2.3551,2.2965,2.274,2.2603,0.0,0.0,0.0,0.0,0.0,0.0,0.0,0.0,0.0,0.0,0.0,0.0,0.0,2.8232,2.9188,2.9474,2.8725,2.8218,2.8208,0.0,0.0,0.0,0.0,0.0,0.0,0.0,2.7283,2.5956,2.7372,2.7139,2.5332,2.3839,2.3075,2.2951,2.1917,2.2151,2.3368,2.4332,2.4348,2.3852,2.4328,2.3803,0.0,0.0,0.0,0.0,0.0,0.0,0.0,0.0,0.0,0.0,0.0,0.0,0.0,0.0,0.0,0.0,0.0,0.0,0.0,0.0,0.0,0.0,0.0,0.0,0.0,0.0,0.0,0.0,0.0,0.0,0.0,0.0,0.0,0.0,0.0,0.0,0.0,2.1866,2.1308,0.0,2.0443,2.0307,2.0171,2.0023,2.0124,2.0165,2.0144,2.0105,2.0105,2.0105,2.0105,2.0118,2.0233,2.0321,2.0271,2.0182,2.0372,2.0422,2.0435,2.0807,2.1189,2.156,2.1931,2.2443,2.3132,2.3429,2.3418,2.3216,2.3451,2.3392,2.3157,2.3127,2.2663,2.2123,0.0,0.0,0.0,0.0,0.0,0.0,0.0,0.0,0.0,0.0,0.0,2.71,2.7381,2.8666,2.9504,2.9502,2.8685,2.8043,2.774,0.0,0.0,0.0,0.0,0.0,0.0,2.6718,2.6746,2.5406,2.6669,2.6501,2.4937,2.3676,2.3102,2.3111,2.1761,2.1566,2.2374,2.3638,2.3948,2.3699,2.443,2.3819,2.2615,0.0,0.0,0.0,0.0,0.0,0.0,0.0,0.0,0.0,0.0,0.0,0.0,0.0,0.0,0.0,0.0,0.0,0.0,0.0,0.0,0.0,0.0,0.0,0.0,0.0,0.0,0.0,0.0,0.0,0.0,0.0,0.0,0.0,0.0,2.1771,2.1299,2.114,2.0696,2.0359,2.0271,2.022,2.0067,1.9708,1.9823,1.9875,1.9656,1.9656,1.9656,1.9656,1.9656,1.972,1.9784,1.9784,1.9875,1.9978,2.0016,2.008,2.0144,2.054,2.0873,2.1149,2.156,2.2185,2.2888,2.3174,2.3204,2.3008,2.3526,2.3524,2.3254,2.2991,2.2449,2.1841,0.0,0.0,0.0,0.0,0.0,0.0,0.0,0.0,0.0,0.0,2.6486,2.732,2.8111,2.8978,2.9504,2.9497,2.861,2.7698,2.6864,2.5971,0.0,0.0,0.0,0.0,2.5398,2.6184,2.6136,2.5196,2.6067,2.6011,2.5091,2.4219,2.37,2.3458,2.234,2.1799,2.176,2.2295,2.2931,2.356,2.4195,2.3648,2.258,0.0,0.0,0.0,0.0,0.0,0.0,0.0,0.0,0.0,0.0,0.0,0.0,0.0,0.0,0.0,0.0,0.0,0.0,0.0,0.0,0.0,0.0,0.0,0.0,0.0,0.0,0.0,0.0,0.0,0.0,0.0,0.0,0.0,2.101,2.0683,2.051,2.0894,2.0156,1.9811,2.0321,1.9772,1.9368,1.9368,1.9368,1.9368,1.9368,1.9368,1.9368,1.9368,1.9368,1.9368,1.9368,1.9368,1.9473,1.9617,1.9759,1.9862,2.0003,2.0744,2.1303,2.1783,2.1974,2.2278,2.2713,2.2654,2.2675,2.2824,2.3722,2.4063,2.3929,2.2536,2.203,2.1888,0.0,0.0,0.0,0.0,0.0,0.0,0.0,0.0,0.0,0.0,2.6968,2.7952,2.8179,2.8977,2.9471,2.9428,2.8049,2.7058,2.6822,0.0,0.0,0.0,0.0,0.0,2.5253,2.6033,2.6067,2.5275,2.6109,2.6087,2.5293,2.4374,2.3847,2.3621,2.3058,2.2718,2.2611,2.3243,2.3572,2.3716,2.3811,2.3586,2.3227,0.0,0.0,0.0,0.0,0.0,0.0,0.0,0.0,0.0,0.0,0.0,0.0,0.0,0.0,0.0,0.0,0.0,0.0,0.0,0.0,0.0,0.0,0.0,0.0,0.0,0.0,0.0,0.0,0.0,0.0,0.0,1.9876,1.9583,2.0067,1.9888,1.9734,1.9952,1.9668,1.946,1.954,1.9081,1.8881,1.8958,1.8946,1.8999,1.9093,1.9105,1.9105,1.9105,1.9105,1.9158,1.9223,1.9223,1.9328,1.9473,1.946,1.9565,1.972,2.0013,2.0348,2.0668,2.1009,2.1649,2.2519,2.2763,2.3285,2.3806,2.3499,2.3421,2.3481,2.3111,2.254,2.1888,0.0,0.0,0.0,0.0,0.0,0.0,0.0,0.0,0.0,0.0,2.7322,2.8301,2.8662,2.9162,2.9305,2.889,2.7607,2.6655,2.6273,0.0,0.0,0.0,0.0,2.5313,2.5192,2.5623,2.565,2.5228,2.5711,2.5916,2.5804,2.5226,2.4964,2.4892,2.4545,2.4115,2.3715,2.4024,2.4081,2.3951,2.3868,2.3537,2.324,2.3862,2.3732,2.3301,2.3979,2.4066,2.3914,2.3914,0.0,0.0,0.0,0.0,0.0,0.0,0.0,0.0,0.0,0.0,0.0,0.0,0.0,0.0,0.0,0.0,0.0,0.0,0.0,0.0,0.0,0.0,0.0,0.0,1.9052,1.8691,1.9597,1.9373,1.9331,1.9862,1.9552,1.9344,1.954,1.9028,1.8679,1.8732,1.8839,1.8893,1.8946,1.8999,1.8987,1.8987,1.8987,1.9052,1.9117,1.9117,1.917,1.9328,1.9328,1.942,1.9617,1.9656,1.9914,2.0233,2.056,2.1219,2.2015,2.2408,2.2957,2.3467,0.0,0.0,0.0,0.0,2.2016,2.1153,0.0,0.0,0.0,0.0,0.0,0.0,0.0,0.0,0.0,0.0,0.0,2.8352,2.9026,2.9193,2.8895,2.8035,2.7166,2.6362,0.0,0.0,0.0,2.5685,2.5534,2.5427,2.5357,2.5191,2.5144,2.512,2.5283,2.5743,2.6452,2.6454,2.6526,2.6619,2.6322,2.5725,2.4974,2.4846,2.4681,2.451,2.4325,2.3746,2.3092,2.4275,2.4035,2.3275,2.4424,2.4582,2.4172,2.4207,0.0,0.0,0.0,0.0,0.0,0.0,0.0,0.0,0.0,0.0,0.0,0.0,0.0,0.0,0.0,0.0,0.0,0.0,0.0,0.0,0.0,0.0,0.0,0.0,1.8614,1.8246,1.9388,1.9149,1.9174,2.0169,1.9756,1.9519,1.9901,1.9247,1.875,1.8572,1.8827,1.8893,1.8798,1.8946,0.0,0.0,0.0,1.8987,1.8987,1.8987,1.9052,1.917,1.917,1.9316,1.9565,1.9565,1.9823,2.0233,2.0472,2.0871,2.1423,2.1793,2.2137,2.252,2.3277,2.3587,2.3468,2.2144,2.1166,2.0422,0.0,0.0,0.0,0.0,0.0,0.0,0.0,0.0,0.0,2.5645,2.6986,2.7779,2.7338,2.7873,2.7939,2.7128,2.6248,2.5955,0.0,0.0,2.6743,2.7402,2.6786,2.64,2.6332,2.5627,2.5301,2.5341,2.606,2.6525,2.6728,2.7255,2.7268,2.6867,2.7177,2.6826,2.6133,2.6488,2.6578,2.6384,2.5625,2.505,2.4608,2.4328,2.4795,2.5546,2.5292,2.5545,2.6013,2.5998,2.5614,2.5179,2.5211,0.0,0.0,0.0,0.0,0.0,0.0,0.0,0.0,0.0,0.0,0.0,0.0,0.0,0.0,0.0,0.0,0.0,0.0,0.0,0.0,1.8475,1.8473,1.877,1.9144,1.9041,1.9146,1.9708,2.0182,2.0214,1.9417,1.91,1.8753,1.8445,1.8572,1.8732,1.8798,1.8946,1.8987,1.8987,1.8987,1.8987,1.8987,1.8987,1.8987,1.9052,1.9052,0.0,1.942,1.942,1.972,2.0182,2.0233,2.0723,2.1423,2.1471,2.1949,2.2583,2.2864,2.3014,2.297,2.2459,2.2123,2.1935,0.0,0.0,0.0,0.0,0.0,0.0,0.0,0.0,0.0,0.0,2.6736,2.7276,2.734,2.7357,2.7191,2.6781,2.5975,0.0,0.0,2.6713,2.6878,2.7275,2.7296,2.7094,2.6651,2.6198,2.5957,2.5996,2.6468,2.6728,2.682,2.7968,2.8216,2.7739,2.8293,2.8315,2.7966,2.8112,2.8101,2.7885,2.7343,2.6768,2.6158,2.4808,2.4978,2.5907,2.5561,2.5999,2.6708,2.6707,2.6471,2.6217,2.6249,2.601,2.5669,0.0,0.0,0.0,0.0,0.0,0.0,0.0,0.0,0.0,0.0,0.0,0.0,0.0,0.0,2.1067,2.0699,0.0,1.9994,1.9472,1.9645,1.9866,2.0158,2.0346,2.0471,2.0528,2.0382,2.0219,2.0001,1.9376,1.885,1.8695,1.867,1.8679,1.8679,1.8893,1.8987,1.8987,1.8987,1.8987,1.8987,1.8987,1.8987,1.8987,1.9052,1.921,1.942,1.9565,1.9823,2.0233,2.0422,2.0822,2.1423,2.1746,2.2184,2.2615,2.2749,2.2689,2.2509,2.237,2.2123,2.1874,0.0,0.0,0.0,0.0,0.0,0.0,0.0,0.0,0.0,0.0,2.6486,2.6785,2.7345,2.6948,2.6597,0.0,0.0,0.0,0.0,2.7127,2.7282,2.7453,2.7922,2.7788,2.6977,2.6718,2.6631,2.6632,2.6859,2.708,2.7363,2.8815,2.9259,2.8844,2.933,2.9578,2.9616,2.9375,2.9237,2.9189,2.883,2.8325,2.756,2.5485,2.5114,2.5707,2.5549,2.5976,2.6588,2.6725,2.6813,2.6884,2.7053,2.7105,2.7017,2.6382,2.6076,0.0,0.0,0.0,0.0,0.0,0.0,0.0,0.0,2.3732,2.2918,2.2041,2.1339,2.0844,2.0616,2.0463,2.0415,2.0686,2.0745,2.0875,2.1188,2.139,2.1538,2.1617,2.0839,2.0457,2.0811,1.9872,1.9171,1.9031,1.8823,1.8691,1.8614,1.8827,1.8999,1.8987,1.8987,1.8987,1.8987,1.8987,1.8987,1.9052,1.917,1.9275,1.9473,1.9708,1.9965,2.0233,2.0709,2.1153,2.1568,2.2184,2.2523,2.2661,2.2781,2.2629,2.237,2.237,2.2063,2.1718,0.0,0.0,0.0,0.0,0.0,0.0,0.0,0.0,0.0,0.0,0.0,0.0,0.0,0.0,0.0,0.0,0.0,0.0,2.7896,2.8664,2.9419,3.0136,2.9519,2.8747,2.7876,2.7086,2.671,2.6784,2.7554,2.8372,2.9216,3.0114,3.0345,2.9999,2.9772,2.9832,3.0111,2.9699,2.9844,3.024,2.9313,2.8865,2.8482,2.6174,2.5675,2.6135,2.55,2.5275,2.5417,2.6127,2.638,2.6502,2.7287,2.7526,2.7509,2.7422,0.0,2.6286,2.6826,2.6908,2.6787,2.6607,2.6475,2.611,0.0,2.4486,2.3644,2.1693,2.1299,2.0957,2.0006,2.0392,2.0674,2.0276,2.0582,2.0875,2.0948,2.0783,2.0995,2.2031,2.2141,2.1834,2.1104,2.049,1.9851,1.9359,1.8811,1.8476,1.8614,1.8732,1.8893,1.8987,1.8987,1.8987,1.8987,1.8987,1.9052,1.917,1.917,1.9328,1.9565,1.9759,1.9965,2.0233,2.1019,2.1554,2.1996,2.2417,2.2675,2.2795,2.2857,2.2947,2.2992,2.2843,2.2797,2.2752,0.0,0.0,0.0,0.0,0.0,0.0,0.0,0.0,0.0,0.0,0.0,0.0,0.0,0.0,0.0,0.0,0.0,0.0,2.7945,2.8423,2.9016,2.9868,2.9998,2.9443,2.8139,2.7711,2.7542,2.7614,2.7971,2.8359,2.8769,3.0134,3.0341,2.9589,3.0267,3.0788,3.1206,3.1256,3.1383,3.1448,3.048,2.9491,2.8469,2.703,2.6075,2.5419,2.4843,2.4938,0.0,0.0,2.5855,2.5953,2.6325,2.643,2.643,2.6402,2.6398,0.0,2.7282,2.7334,2.7264,2.7617,2.7521,2.7164,2.6484,2.5213,2.3956,2.3263,2.2172,2.1634,2.2721,2.3277,2.3672,2.3737,2.4161,2.4068,2.2793,2.2566,2.2454,2.2213,2.1982,2.1849,2.1871,2.0256,1.9371,1.9828,1.8753,1.8247,1.8464,1.8691,1.8851,1.8893,1.8946,1.9052,1.9117,1.9117,1.917,1.9328,1.9473,1.9617,1.9708,2.008,2.0485,2.0921,2.1264,2.1698,2.2231,2.2509,2.2675,2.2809,2.2857,2.2992,2.3082,2.3037,2.3068,2.3112,0.0,0.0,0.0,0.0,0.0,0.0,0.0,0.0,0.0,0.0,0.0,0.0,0.0,0.0,0.0,0.0,0.0,0.0,0.0,2.8303,2.8858,2.9744,3.0328,3.0011,2.8588,2.8518,2.8514,2.8559,2.8564,2.8681,2.8942,3.0214,3.0338,2.9564,3.0704,3.1489,3.2011,3.2376,3.2606,3.2586,3.1421,3.0089,2.8667,2.7464,2.6144,2.4874,2.4504,2.4669,0.0,0.0,2.5382,2.5443,2.5681,2.5778,2.5753,2.5701,2.6233,2.6977,2.7783,2.7999,2.8127,2.8778,2.9082,2.8991,2.8185,2.7089,2.6138,2.5893,2.4563,2.4021,2.5938,2.637,2.6487,2.6721,2.7024,2.6531,2.4538,2.4496,2.4277,2.3145,2.2733,2.262,2.2751,2.059,1.9456,2.0192,1.9221,1.8538,1.8476,1.8786,1.8946,1.8851,1.8946,1.9052,1.9117,1.917,1.9275,1.9473,1.9708,1.9901,2.0055,2.0536,2.1033,2.1568,2.1664,2.1983,2.254,2.2692,2.2797,2.2962,2.2978,2.3068,2.3216,2.3216,2.3246,2.3275,0.0,0.0,0.0,0.0,0.0,0.0,0.0,0.0,0.0,0.0,0.0,0.0,0.0,0.0,0.0,0.0,0.0,0.0,0.0,2.889,2.9771,3.0721,3.0779,3.037,2.9483,2.9469,2.946,2.946,2.945,2.9897,3.0715,3.078,3.0716,3.0576,3.1013,3.1576,3.2214,3.2478,3.2994,3.3506,3.1784,3.0576,2.9514,2.7138,2.5725,2.5001,2.4899,0.0,0.0,2.4676,2.4928,2.5054,2.5917,2.6193,0.0,2.617,2.6706,2.7536,2.8738,2.9336,2.9701,2.9978,3.1253,3.1959,2.9985,3.0676,3.1263,2.9525,2.899,2.888,2.8964,2.8719,2.8324,2.7746,2.762,2.702,2.5385,2.5829,2.6022,2.521,2.5321,2.4998,2.3786,2.1959,2.0722,2.0413,2.0367,1.9817,1.8637,1.9198,1.9408,1.8999,1.8987,1.8987,1.8999,1.9117,1.9328,1.9617,1.9759,2.0055,2.061,2.1118,2.1616,2.1996,2.2278,2.2586,2.2889,2.3038,2.3172,2.3275,2.3275,2.3363,2.3466,2.3466,2.3407,2.3319,0.0,0.0,0.0,0.0,0.0,0.0,0.0,0.0,0.0,0.0,0.0,0.0,0.0,0.0,0.0,0.0,0.0,0.0,0.0,2.7464,2.8339,2.9802,2.9366,2.9221,2.9556,2.8957,2.8938,2.9578,2.9574,3.0018,3.0875,3.0829,3.0749,3.0697,3.1231,3.184,3.2453,3.2285,3.2914,3.3788,3.0921,2.9564,2.902,2.6587,2.5171,2.4469,0.0,0.0,0.0,2.4142,2.4293,2.4411,2.4704,2.4814,2.5014,2.6027,2.69,2.7689,2.8659,2.9406,3.0031,3.0602,3.1691,3.2581,3.2523,3.2113,3.1686,3.1514,2.9977,2.8936,2.986,2.9654,2.9687,3.0779,3.0716,3.0167,2.9198,2.8589,2.7631,2.5937,2.5213,2.4677,2.422,2.2312,2.0689,1.9666,1.9461,1.916,1.8685,1.9619,1.994,1.954,1.9552,1.95,1.9408,1.946,1.9617,1.9888,2.0258,2.0709,2.1118,2.141,2.1932,2.2644,2.2461,2.2844,2.3557,2.3695,2.3583,2.3363,2.3837,2.3792,2.3509,2.3538,2.3566,2.361,0.0,0.0,0.0,0.0,0.0,0.0,0.0,0.0,0.0,0.0,0.0,0.0,0.0,0.0,0.0,0.0,0.0,0.0,0.0,0.0,2.7893,2.9343,2.8626,2.8641,2.9533,2.8681,2.8532,2.9144,2.9132,2.9414,2.996,2.9921,3.001,3.0267,3.087,3.1507,3.2119,3.1732,3.2256,3.3062,2.9934,2.8658,2.841,2.6245,2.4949,0.0,0.0,0.0,0.0,2.4019,2.4057,2.4189,2.4502,2.4815,2.5329,2.6609,2.7523,2.8361,2.9478,3.0387,3.1219,3.1942,3.2963,3.3833,3.4091,3.3716,3.3476,3.3873,3.2098,3.0845,3.2031,3.1708,3.1592,3.2559,3.2778,3.2565,3.1863,3.1241,3.0318,2.8915,2.8076,2.7371,2.6808,2.4975,2.2776,2.0286,2.027,2.0003,1.9226,2.031,2.0654,2.0105,1.9952,1.985,1.9811,1.9708,1.9862,2.0271,2.0809,2.1421,2.1993,2.2269,2.2907,2.368,2.3587,2.3926,2.4508,2.4695,2.4581,2.4298,2.4537,2.4492,2.4357,2.419,2.4338,2.4576,0.0,0.0,0.0,0.0,0.0,0.0,0.0,0.0,0.0,0.0,0.0,0.0,0.0,0.0,0.0,0.0,0.0,0.0,0.0,0.0,0.0,2.9296,2.851,2.8524,2.9483,2.8658,2.8242,2.8303,2.8299,2.8297,2.8298,2.8298,2.8664,2.9367,2.9935,3.0546,3.1155,3.08,3.1053,3.1461,2.8857,2.7879,2.7823,2.6151,0.0,0.0,0.0,0.0,0.0,2.4266,2.4229,2.4432,2.5318,2.6169,2.7039,2.7853,2.8624,2.9517,3.1046,3.2199,3.3067,3.3734,3.4867,3.5606,3.4664,3.5477,3.6396,3.6323,3.5142,3.4363,3.5133,3.4588,3.3792,3.3125,3.3743,3.4087,3.3426,3.3625,3.3815,0.0,0.0,0.0,0.0,0.0,2.6804,2.2564,2.2704,2.2122,2.0156,2.1236,2.1531,2.0686,2.0245,2.0105,2.0233,2.0016,2.0194,2.0908,2.1437,2.2138,2.3049,2.3684,2.4316,2.4932,2.5411,2.563,2.5706,2.597,2.6047,2.5956,2.5407,2.5484,2.594,2.5346,2.5574,2.603,0.0,0.0,0.0,0.0,0.0,0.0,0.0,0.0,0.0,0.0,0.0,0.0,0.0,0.0,0.0,0.0,0.0,0.0,0.0,0.0,0.0,0.0,0.0,0.0,0.0,0.0,0.0,0.0,0.0,2.8291,2.8305,2.8305,2.8371,2.8517,2.8611,2.9003,2.9543,2.8738,2.9125,3.0,0.0,2.7082,2.8043,0.0,0.0,0.0,0.0,0.0,0.0,2.4408,2.4799,2.554,2.6411,2.7306,2.8147,2.8951,2.9773,3.0541,3.0932,3.2152,3.3144,3.2627,3.3815,3.5038,3.4889,3.5236,3.5474,3.5011,3.4004,3.33,3.355,3.3222,3.3214,3.4158,3.443,3.4626,3.4945,3.4877,0.0,3.3927,0.0,3.3579,3.2437,3.0631,2.9143,2.82,2.5661,2.3102,2.0655,2.1779,2.2034,2.1095,2.066,2.0459,2.051,2.0908,2.1396,2.1841,2.2667,2.3069,2.3103,2.4356,2.5073,2.5316,2.5631,2.6166,2.6824,2.6949,2.6826,2.6557,2.6987,2.6925,2.6494,2.6427,2.6533,2.667,0.0,0.0,0.0,0.0,0.0,0.0,0.0,0.0,0.0,0.0,0.0,0.0,0.0,0.0,0.0,0.0,0.0,0.0,0.0,0.0,0.0,0.0,0.0,0.0,0.0,0.0,0.0,0.0,0.0,0.0,0.0,2.8123,2.846,2.8743,2.83,2.8683,2.9562,2.8179,0.0,0.0,0.0,0.0,0.0,0.0,0.0,0.0,0.0,0.0,0.0,0.0,0.0,2.7133,2.8009,2.8902,2.9782,3.0633,3.1498,3.2212,3.2126,3.3163,3.4072,3.343,3.3866,3.4445,3.4482,3.4312,3.4082,3.3761,3.3017,3.2533,3.2936,3.2817,3.3056,3.4255,3.4666,3.5077,3.5834,3.5653,3.5562,0.0,3.5606,0.0,3.5469,3.3513,3.2267,3.2367,2.7681,2.4239,2.2945,2.2681,2.2392,2.2044,2.1251,2.0871,2.0957,2.1506,2.1983,2.2356,2.3296,2.3944,2.4327,2.5555,2.6421,2.6853,2.7134,2.7597,2.8124,2.8263,2.8149,2.7847,2.8031,2.7971,2.78,2.7517,2.7683,2.8069,0.0,0.0,0.0,0.0,0.0,0.0,0.0,0.0,0.0,0.0,0.0,0.0,0.0,0.0,0.0,0.0,0.0,0.0,0.0,0.0,0.0,0.0,0.0,0.0,0.0,0.0,0.0,0.0,0.0,0.0,0.0,0.0,0.0,0.0,0.0,0.0,0.0,0.0,0.0,0.0,0.0,0.0,0.0,0.0,0.0,0.0,0.0,0.0,0.0,0.0,2.8771,2.8846,2.9742,3.0665,3.1592,3.2481,3.3298,3.3906,3.3796,3.4529,3.5235,3.4897,3.4423,3.3969,3.3738,3.3115,3.2568,3.2519,3.2053,3.1918,3.2851,3.2996,3.3258,3.4097,0.0,3.5442,3.6192,3.6234,3.667,3.8096,3.7565,3.7544,3.8719,3.6664,3.5304,3.5368,2.9401,2.5885,2.6118,2.4021,2.292,2.3215,2.2127,2.1629,2.1725,2.2189,2.2505,2.274,2.3849,2.4866,2.5925,2.6919,2.786,2.8747,2.9027,2.9273,2.9441,2.956,2.9515,2.9377,2.8814,2.8942,2.9316,2.8666,2.8914,2.9605,0.0,0.0,0.0,0.0,0.0,0.0,0.0,0.0,0.0,0.0,3.049,3.0479,0.0,0.0,0.0,0.0,0.0,0.0,0.0,0.0,0.0,0.0,0.0,0.0,0.0,0.0,0.0,0.0,0.0,0.0,0.0,0.0,0.0,0.0,0.0,0.0,0.0,0.0,0.0,0.0,0.0,0.0,0.0,0.0,0.0,0.0,0.0,0.0,0.0,0.0,2.9228,2.9832,3.0892,3.1818,3.2703,3.3628,3.4024,3.414,3.4115,3.4731,3.5218,3.4506,3.4284,3.4039,3.3314,3.248,0.0,3.111,3.0886,3.1287,3.2865,3.3241,3.3784,3.5256,3.5607,3.5688,3.5724,3.6785,3.7394,0.0,3.7882,3.8537,3.858,3.6788,3.609,3.7239,3.23,2.9015,2.845,2.6499,2.4927,2.3969,2.3583,2.3439,2.3486,2.4208,2.4294,2.3852,2.5087,2.5853,2.6275,2.7533,2.8359,2.8823,2.9271,2.9738,3.006,3.006,3.0146,3.0215,3.0126,3.0074,3.0044,2.9999,3.0031,3.006,0.0,0.0,0.0,0.0,0.0,0.0,0.0,3.0578,3.0588,3.0559,3.055,3.054,3.05,3.049,0.0,0.0,0.0,0.0,0.0,0.0,0.0,0.0,0.0,0.0,0.0,0.0,2.8729,2.8301,0.0,0.0,0.0,2.9403,2.9608,0.0,0.0,0.0,0.0,0.0,0.0,0.0,0.0,0.0,0.0,0.0,0.0,0.0,0.0,0.0,0.0,0.0,3.0144,3.0868,3.1345,3.1859,3.2555,3.3924,3.438,3.4544,3.4921,3.5346,3.5538,3.504,3.4332,3.3602,3.3149,3.2037,3.0993,3.0671,3.0595,3.1158,3.2973,3.3297,3.3862,3.5573,3.5799,3.5727,3.5659,3.6261,3.6723,3.6749,3.7368,3.812,3.8882,3.7354,3.7165,3.9214,3.5021,3.2006,3.1118,2.8899,2.7184,2.6126,2.5674,2.5394,2.5326,2.5368,2.5227,2.4863,2.6451,2.7333,2.747,2.8911,2.9749,3.0085,3.0245,3.0426,3.0609,3.0609,3.0609,3.0568,3.0609,3.0568,3.0443,3.0443,3.0485,3.0568,0.0,0.0,0.0,0.0,0.0,0.0,0.0,3.0598,3.0598,3.0598,3.0588,3.0559,3.053,3.053,3.0519,0.0,0.0,0.0,0.0,0.0,0.0,0.0,0.0,0.0,0.0,0.0,0.0,2.8867,2.9533,0.0,0.0,0.0,0.0,0.0,3.0078,3.0113,0.0,0.0,0.0,0.0,0.0,3.009,0.0,0.0,0.0,0.0,0.0,0.0,0.0,0.0,3.0802,3.1368,3.1328,3.1678,3.2372,3.3782,3.4438,3.4827,3.541,3.5738,3.588,3.5725,3.4457,3.3239,3.3172,3.1809,3.0559,3.063,3.0622,3.119,3.3044,3.3293,3.3828,0.0,3.5813,3.5736,3.5727,3.5844,3.6104,3.6596,3.6783,0.0,3.9006,3.7638,3.7586,3.9839,3.6445,3.3845,3.2886,3.0831,2.9375,2.8663,2.7994,2.7551,2.7424,2.6945,2.649,2.6099,2.7864,2.8699,2.878,3.0111,3.0976,3.1432,3.1274,3.1196,3.1218,3.1218,3.1078,3.0895,3.0918,3.0895,3.0814,3.0716,3.0814,3.0952,0.0,0.0,0.0,0.0,0.0,0.0,0.0,3.0598,3.0598,3.0598,3.055,3.054,3.0569,3.0588,3.0559,0.0,0.0,0.0,0.0,0.0,0.0,0.0,0.0,0.0,0.0,0.0,0.0,3.0665,3.0743,0.0,0.0,0.0,0.0,0.0,0.0,3.0686,3.0697,0.0,0.0,0.0,0.0,0.0,0.0,0.0,0.0,0.0,0.0,0.0,0.0,0.0,0.0,3.0606,3.0679,3.1783,3.3129,3.34,3.4066,3.4718,3.4772,3.5385,3.5997,3.597,3.4671,3.3389,3.3367,3.1976,3.0701,3.0769,3.0735,3.1231,3.2986,3.3359,3.3927,0.0,0.0,3.5857,3.5799,3.647,3.6695,3.5988,0.0,3.7424,3.8315,3.6823,3.6251,3.7361,3.4988,3.3133,3.2308,3.165,3.1232,3.1074,3.0422,3.0058,3.0058,3.0006,2.93,2.7958,2.9105,2.9622,2.9606,3.0439,3.12,3.1932,3.1841,3.1841,3.1896,3.1896,3.1768,3.1542,3.1634,3.15,3.1151,3.1196,3.1196,3.1151,0.0,0.0,0.0,0.0,0.0,0.0,3.0462,3.0598,3.0598,3.0598,3.0588,3.0559,3.0598,3.0598,3.0598,0.0,0.0,0.0,0.0,0.0,0.0,0.0,0.0,0.0,0.0,0.0,3.0819,3.0896,3.0905,0.0,0.0,0.0,0.0,0.0,0.0,3.0755,3.0703,0.0,0.0,0.0,0.0,0.0,0.0,0.0,0.0,0.0,0.0,0.0,3.0434,0.0,0.0,0.0,3.0697,3.1207,0.0,0.0,3.3197,3.4033,3.456,3.5337,3.6001,3.6007,3.509,3.4056,3.3512,3.2433,3.1409,3.0944,3.122,3.1912,3.3142,3.3805,3.456,0.0,0.0,0.0,3.5799,3.611,3.6198,3.5842,3.6114,3.686,3.8227,3.6774,3.5724,3.5658,3.5681,3.5054,3.3604,3.3081,3.3031,3.3508,3.2438,3.1808,3.1719,3.124,3.0592,2.9775,3.0808,3.1171,3.0942,3.1756,3.2237,3.2419,3.2335,3.2249,3.2109,3.2162,3.2056,3.1841,3.1877,3.1804,3.1694,3.1714,3.1637,3.1559,0.0,0.0,0.0,0.0,0.0,2.9589,3.0342,3.0491,3.0511,3.05,3.0559,3.0579,3.0598,3.0569,3.0588,3.0598,0.0,0.0,0.0,0.0,0.0,0.0,0.0,0.0,0.0,0.0,3.0819,3.0898,3.0892,3.0901,0.0,0.0,3.081,3.0801,0.0,0.0,0.0,0.0,0.0,0.0,0.0,0.0,0.0,0.0,0.0,0.0,0.0,0.0,0.0,0.0,0.0,0.0,0.0,0.0,0.0,0.0,3.2306,3.3202,3.4081,3.4953,3.5614,3.562,3.5149,3.4404,3.3278,3.2539,3.1875,3.1075,3.1543,3.2373,3.3241,3.3895,3.4654,0.0,0.0,3.5587,3.5768,3.5799,3.581,3.5793,3.5821,3.6506,3.8237,3.7308,3.6273,3.5499,3.6316,3.6269,3.4939,3.4723,3.4757,3.4986,3.3913,3.3315,3.3228,3.2539,3.1935,3.1428,3.2265,3.2407,3.193,3.2727,3.3024,3.288,3.2802,3.2639,3.2472,3.2506,3.2369,3.2214,3.2179,3.2144,3.2074,3.2074,3.2038,3.1948,0.0,0.0,0.0,0.0,0.0,0.0,3.007,3.0213,3.0293,3.0304,3.0421,3.0518,3.0588,3.053,3.053,3.0598,0.0,0.0,0.0,0.0,0.0,0.0,0.0,0.0,0.0,0.0,3.0768,3.0898,3.0897,3.0889,3.0899,3.0836,3.0794,3.0791,0.0,0.0,0.0,0.0,0.0,0.0,0.0,0.0,0.0,0.0,0.0,0.0,0.0,0.0,0.0,0.0,0.0,0.0,0.0,0.0,0.0,0.0,3.1485,3.2304,3.3183,3.4042,3.4705,3.4703,3.4703,3.4254,3.2517,3.2109,3.1875,3.1075,3.1543,3.2372,3.3242,3.341,3.3952,3.5627,3.5182,0.0,3.569,3.5799,3.5799,3.5791,3.5857,3.6559,3.824,3.8441,3.8112,3.7239,3.645,3.5994,3.5974,3.655,3.6347,3.5229,3.4851,3.4672,3.4687,3.4274,3.3654,3.2882,3.3376,3.3168,3.242,3.3031,3.331,3.3292,3.3165,3.3086,3.3086,3.3011,3.2866,3.2702,3.2621,3.2454,3.2283,3.2283,3.2283,3.2283,0.0,0.0,0.0,0.0,0.0,0.0,0.0,3.006,3.0075,3.0095,3.0219,3.0291,3.0309,3.0422,3.0501,3.053,0.0,0.0,0.0,0.0,0.0,0.0,0.0,0.0,0.0,0.0,3.0768,3.0898,3.0898,3.0895,3.0899,3.0877,3.0838,3.0799,3.0807,3.0798,0.0,0.0,0.0,0.0,0.0,0.0,0.0,0.0,0.0,0.0,0.0,0.0,0.0,0.0,0.0,0.0,0.0,0.0,0.0,0.0,0.0,0.0,3.2441,3.3141,3.3807,3.3816,3.3818,3.3504,3.236,3.2107,3.1877,3.1071,3.201,3.3066,3.3357,3.3895,3.4641,3.5724,3.5212,3.4949,3.5768,3.5879,3.606,3.6616,3.7806,3.8318,3.7648,3.8716,3.884,3.7374,3.7575,3.75,3.6845,3.7432,3.7065,3.5451,3.5703,3.5496,3.4791,3.4647,3.4342,3.3855,3.3994,3.3843,3.3368,3.3561,3.3577,3.3422,3.3433,3.3375,3.3262,3.3244,3.3165,3.2975,3.2961,3.288,3.2848,3.2802,3.2687,3.2588,0.0,0.0,0.0,0.0,0.0,0.0,0.0,2.9895,2.9931,2.988,3.0064,3.0209,3.019,3.0378,3.0501,3.051,0.0,0.0,0.0,0.0,0.0,0.0,0.0,0.0,0.0,3.0707,3.0798,3.0898,3.0898,3.0898,3.0891,3.0907,3.0884,3.0841,3.0816,3.0807,0.0,0.0,0.0,0.0,0.0,0.0,3.0798,0.0,0.0,0.0,0.0,0.0,0.0,0.0,0.0,0.0,0.0,0.0,0.0,0.0,3.125,3.1702,0.0,3.2506,3.291,3.2916,3.3158,3.3083,3.1924,3.1877,3.1875,3.1069,3.1992,3.3046,3.333,3.3832,3.4583,3.5717,3.5225,3.4983,3.5797,3.5908,3.622,3.7046,3.8706,3.9385,3.8311,3.9517,3.9906,3.8824,3.9257,3.9178,3.827,3.8825,3.8355,3.6529,3.6454,3.6117,3.542,3.5001,3.4689,3.448,3.4363,3.4197,3.3998,3.3868,3.3753,3.3587,3.3633,3.3549,0.0,3.3422,3.3345,3.3256,3.3196,3.3183,3.3165,3.3073,3.2961,3.288,0.0,0.0,0.0,0.0,0.0,0.0,0.0,0.0,2.9754,2.9697,2.9953,3.0171,3.0169,3.0355,3.0486,3.0479,0.0,0.0,0.0,0.0,0.0,0.0,0.0,0.0,0.0,3.0761,3.0833,3.0898,3.0898,3.0898,3.0898,3.0897,3.0891,3.0899,3.0841,3.0799,0.0,0.0,0.0,0.0,0.0,0.0,0.0,0.0,0.0,0.0,0.0,0.0,0.0,0.0,0.0,0.0,0.0,0.0,0.0,0.0,0.0,0.0,0.0,3.2008,3.2014,3.2009,3.2612,3.2812,3.125,0.0,0.0,3.106,3.1599,3.2421,3.3163,3.3353,3.3936,3.5557,3.5186,3.4987,3.5797,3.6011,3.6333,3.7019,3.8701,3.9802,3.9819,4.0545,4.1033,4.1108,4.1168,4.0837,4.0037,4.05,4.0034,3.8345,3.7199,3.6544,3.64,3.5401,3.4868,3.4812,3.4458,3.4316,3.4293,3.4023,3.3868,3.3807,3.3753,3.3671,3.3605,3.3549,3.3538,3.3491,3.3382,3.3322,3.3292,3.3165,3.3117,3.3117,0.0,0.0,0.0,0.0,0.0,0.0,0.0,0.0,0.0,0.0,2.9625,2.9739,2.9732,3.006,3.0266,0.0,0.0,0.0,0.0,0.0,0.0,0.0,0.0,0.0,0.0,3.0728,3.079,3.0898,3.0898,3.0898,3.0898,3.0898,3.0895,3.0899,3.088,0.0,0.0,0.0,0.0,0.0,0.0,0.0,0.0,0.0,0.0,0.0,3.0791,3.0836,0.0,0.0,0.0,0.0,0.0,0.0,0.0,0.0,3.0891,3.0946,3.1129,0.0,3.1171,3.1171,3.1347,3.1387,0.0,0.0,0.0,0.0,0.0,3.2183,3.2365,3.2946,3.3743,3.4819,3.483,3.4986,3.5786,3.705,3.7483,3.6414,3.8354,3.9564,3.8961,3.9674,4.0437,4.1052,4.1113,4.103,4.083,4.0905,4.0715,4.0189,3.8517,3.7256,3.6401,3.6102,3.5552,3.4793,3.4626,3.445,3.4293,3.4124,3.4023,3.3947,3.3947,3.3868,3.3753,3.3726,3.3671,3.3577,3.3549,3.352,3.352,3.3393,3.3334,3.3304,0.0,0.0,0.0,0.0,0.0,0.0,0.0,0.0,0.0,0.0,0.0,0.0,0.0,0.0,0.0,0.0,0.0,0.0,0.0,0.0,0.0,0.0,0.0,0.0,3.0649,3.0658,3.0696,3.082,3.082,3.0839,3.0898,3.0898,3.0898,3.0892,3.0903,0.0,0.0,0.0,0.0,0.0,3.0849,0.0,0.0,0.0,0.0,0.0,3.0855,3.0877,0.0,3.0899,3.0899,3.0901,0.0,0.0,0.0,0.0,3.0898,3.0898,3.0892,3.0891,3.0895,3.0897,3.0898,3.0898,0.0,0.0,0.0,0.0,0.0,3.1786,3.2561,3.3085,3.3824,3.5084,3.5305,3.5444,3.5884,3.709,3.7757,3.7243,3.8736,3.979,3.9744,4.0164,4.0621,4.1074,4.1108,4.1101,4.1101,4.1047,4.0937,4.0801,3.9727,3.8464,3.7063,3.6194,3.5513,3.4927,3.4752,3.4792,3.4969,3.4852,3.473,3.4641,3.4641,3.4367,3.3895,3.3842,3.3788,3.3726,3.3671,3.3661,3.3615,3.352,3.3491,3.3481,0.0,0.0,0.0,0.0,0.0,0.0,0.0,0.0,0.0,0.0,0.0,0.0,0.0,0.0,0.0,0.0,0.0,0.0,0.0,0.0,0.0,0.0,0.0,3.0552,3.0582,3.0591,3.0623,3.0677,3.0687,3.0754,3.0879,3.0879,3.0879,3.0898,3.0891,3.0494,0.0,0.0,0.0,0.0,3.0899,0.0,0.0,0.0,0.0,0.0,0.0,0.0,0.0,3.0903,3.0905,3.0894,3.0892,0.0,0.0,0.0,0.0,0.0,3.0891,3.0884,3.0899,3.0891,3.099,3.1049,0.0,0.0,0.0,0.0,0.0,0.0,0.0,3.3487,0.0,3.5552,3.6001,3.6215,3.6359,3.712,3.7904,3.8531,3.9312,4.0093,4.0837,4.0928,4.0976,4.1119,4.1111,4.1108,4.1108,4.1042,4.0953,4.082,4.0505,3.9601,3.8041,3.6528,3.5678,3.5491,3.5268,3.5468,3.6013,3.5745,3.5565,3.5428,3.5273,3.474,3.3998,3.3947,3.3895,3.3895,3.378,3.3726,3.3698,3.3643,3.3633,3.3605,0.0,0.0,0.0,0.0,0.0,0.0,0.0,0.0,0.0,0.0,0.0,0.0,0.0,0.0,0.0,0.0,0.0,0.0,0.0,0.0,0.0,0.0,3.0337,3.04,3.0518,3.0513,3.0546,3.0626,3.061,3.0648,3.0728,3.0736,3.08,3.0898,3.0898,3.0838,3.0717,3.0834,3.0907,3.0899,3.0899,0.0,0.0,0.0,0.0,0.0,0.0,0.0,0.0,3.0896,3.0897,3.0909,3.0892,0.0,0.0,0.0,0.0,0.0,3.0824,3.0817,3.084,3.0897,3.1409,3.1714,0.0,0.0,0.0,0.0,0.0,0.0,0.0,3.3926,3.4506,0.0,3.6015,3.7202,3.799,3.8877,3.9217,3.8668,3.9312,3.9878,4.0076,4.0088,4.0389,4.1132,4.1121,4.1108,4.1108,4.1081,4.1013,4.0894,4.0092,3.9441,3.8979,3.8565,3.7984,3.7297,3.7031,3.6967,3.7039,3.6118,3.5656,3.5613,3.4747,3.4278,3.4074,3.4023,3.3947,3.3895,3.3815,3.378,3.378,3.3698,3.3671,3.3587,0.0,0.0,0.0,0.0,0.0,0.0,0.0,0.0,0.0,0.0,0.0,0.0,0.0,0.0,0.0,0.0,0.0,0.0,0.0,0.0,0.0,3.0142,3.0171,3.0245,3.0388,3.0388,3.0436,3.0554,3.054,3.0583,3.065,3.0671,3.0518,3.0209,3.0195,3.0195,3.0195,3.0195,3.0467,3.0894,0.0,0.0,0.0,0.0,0.0,0.0,0.0,0.0,0.0,0.0,3.0892,3.0899,3.0905,0.0,0.0,0.0,0.0,0.0,3.0817,3.0793,3.0817,3.0849,3.1476,3.1995,0.0,0.0,0.0,0.0,0.0,0.0,0.0,0.0,3.5605,3.6547,3.7339,3.8014,3.8433,3.8839,3.9145,3.9236,3.9579,3.9995,4.0506,4.0555,4.0701,4.1113,4.1128,4.1097,4.1111,4.1108,4.107,4.0961,4.0431,4.0064,3.9899,3.9729,3.9013,3.7716,3.7547,3.7637,3.7988,3.7457,3.6948,3.6429,3.5965,3.5203,3.4245,3.4197,3.4099,3.3998,3.3921,3.3895,3.3895,3.3815,3.3807,3.3652,0.0,0.0,0.0,0.0,0.0,0.0,0.0,0.0,0.0,0.0,0.0,0.0,0.0,0.0,0.0,0.0,0.0,0.0,0.0,0.0,2.9905,2.9972,3.0022,3.0113,3.0266,3.0279,3.0323,3.0449,3.0449,3.0491,3.0548,3.0428,3.0082,2.9552,2.9546,2.957,2.9609,2.9824,3.0293,3.0898,0.0,0.0,0.0,0.0,0.0,0.0,0.0,0.0,0.0,0.0,0.0,0.0,0.0,0.0,0.0,3.081,3.0798,3.0799,3.0789,3.0789,3.0764,3.0753,0.0,0.0,0.0,0.0,0.0,0.0,0.0,0.0,0.0,3.5587,3.6677,3.8234,3.8643,3.8845,3.9065,3.909,3.934,4.0018,4.0095,4.0363,4.103,4.1099,4.1108,4.1094,4.1092,4.1105,4.1091,4.1108,4.1074,4.1037,4.0855,4.071,4.0546,4.0403,3.964,3.827,3.8214,3.8439,3.8921,3.8436,3.7819,3.7107,3.6708,3.5721,3.445,3.434,3.4245,3.4148,3.4049,3.3998,3.3998,3.3947,3.3842,3.3606,0.0,0.0,0.0,0.0,0.0,0.0,0.0,0.0,0.0,0.0,0.0,0.0,0.0,0.0,0.0,0.0,0.0,0.0,0.0,0.0,2.9888,2.9924,2.9905,3.0003,3.0199,3.0207,3.0234,3.0305,3.0305,3.0359,3.0393,2.9721,2.9405,2.9416,2.9416,2.948,2.9645,3.0465,3.0836,3.0896,3.0898,0.0,0.0,0.0,0.0,0.0,0.0,0.0,0.0,0.0,0.0,0.0,0.0,0.0,3.0804,3.0804,3.0804,3.0794,3.071,3.0717,3.0685,3.0634,3.191,0.0,3.2194,3.3297,0.0,3.4435,0.0,0.0,0.0,3.6429,3.7322,3.8255,3.909,3.9904,4.0704,4.0828,4.0877,4.0989,4.1018,4.1027,4.1088,4.1091,4.1101,4.1094,4.1094,4.1091,4.1091,4.1108,4.1108,4.1085,4.1017,4.089,4.0699,4.0546,4.0342,4.0024,3.9946,3.9905,3.9842,3.814,3.7357,3.7184,3.5512,3.4714,3.4561,3.4363,3.4293,3.4269,3.4074,3.3998,3.3998,3.3998,3.377,3.339,0.0,0.0,0.0,0.0,0.0,0.0,0.0,0.0,0.0,0.0,0.0,0.0,0.0,0.0,0.0,0.0,0.0,0.0,0.0,0.0,2.9513,2.97,2.9753,2.9822,2.9959,2.9984,3.0049,3.0109,3.0104,3.0163,3.0213,3.0015,2.9958,3.0004,2.9488,2.9639,3.0201,3.0009,3.0248,3.0788,3.0772,3.0834,0.0,0.0,0.0,0.0,0.0,0.0,0.0,0.0,3.065,3.0675,3.0633,3.0639,3.0672,3.0678,3.0656,3.0622,3.0622,3.0642,3.075,3.1277,0.0,0.0,0.0,3.4054,3.5269,3.5251,3.5251,0.0,0.0,0.0,3.7492,3.8918,3.9432,3.9946,4.0809,4.098,4.1018,4.1025,4.1061,4.1105,4.1108,4.1108,4.1094,4.1103,4.1092,4.1093,4.1103,4.1094,4.1108,4.1108,4.0998,4.0626,3.9966,4.0327,3.988,3.8669,3.9642,3.9792,3.924,3.851,3.7614,3.6572,3.5888,3.526,3.4727,3.4645,3.4517,3.434,3.4197,3.4099,3.4074,3.4074,3.3928,3.3698,0.0,0.0,0.0,0.0,0.0,0.0,0.0,0.0,0.0,0.0,0.0,0.0,0.0,0.0,0.0,0.0,0.0,0.0,0.0,2.8874,2.9104,2.9433,2.9474,2.957,2.97,2.9754,2.9857,2.9972,2.9984,2.9988,3.0032,2.9857,2.9824,2.9871,2.9358,2.9516,3.0121,2.9802,3.0043,3.0646,3.0634,3.068,0.0,0.0,0.0,0.0,0.0,0.0,0.0,0.0,3.0537,3.0552,3.0496,3.049,3.05,3.0492,3.0433,3.0413,3.052,3.0723,3.1081,0.0,0.0,0.0,3.3568,3.4691,3.5786,3.6057,3.6115,3.6212,3.6523,0.0,3.7802,3.9005,3.9656,4.0228,4.083,4.0935,4.0976,4.1007,4.105,4.1076,4.1108,4.1094,4.1097,4.1097,4.1111,4.1113,4.1107,4.1097,4.1108,4.1108,4.1013,4.0623,3.9954,4.008,3.949,3.8178,3.8975,3.9013,3.8384,3.8077,3.7277,3.6178,3.5912,3.5418,3.483,3.4809,3.4666,3.445,3.4316,3.4197,3.4099,3.4049,3.3947,3.3762,0.0,0.0,0.0,0.0,0.0,0.0,0.0,0.0,0.0,0.0,0.0,0.0,0.0,0.0,0.0,0.0,0.0,0.0,2.7802,2.8288,2.8724,2.9064,2.9086,2.9212,2.9492,2.9492,2.9626,2.9888,2.9888,2.9888,2.9869,2.9074,2.873,2.8809,2.8943,2.9058,2.9168,3.01,3.0494,3.0502,3.0503,3.0489,3.0502,0.0,0.0,0.0,0.0,0.0,0.0,0.0,3.0498,3.0492,3.0413,3.034,3.0283,3.0209,3.0203,3.0228,3.0364,3.0995,3.1634,0.0,0.0,0.0,3.4408,3.5068,3.596,3.6823,3.7017,3.6745,3.5883,3.7153,3.8297,3.8316,3.9772,4.0888,4.0907,4.0907,4.0924,4.0981,4.0994,4.1037,4.1085,4.1101,4.1107,4.1107,4.1151,4.1171,4.1107,4.1097,4.1108,4.1108,4.1108,4.1027,4.0889,3.9897,3.9336,3.9196,3.8183,3.7623,3.7451,3.6596,3.6196,3.614,3.5287,3.4908,3.4889,3.4829,3.4708,3.4602,3.445,3.4269,3.4099,3.3947,3.3726,3.3481,0.0,0.0,0.0,0.0,0.0,0.0,0.0,0.0,0.0,0.0,0.0,0.0,0.0,0.0,0.0,0.0,0.0,0.0,2.773,2.7974,2.8264,2.8578,2.8603,2.8766,2.9064,2.9272,2.9454,2.9626,2.9626,2.9626,2.9608,2.9418,2.9339,2.937,2.9558,2.9631,2.9684,3.0021,3.019,3.021,3.0224,3.0286,3.0356,0.0,0.0,0.0,0.0,0.0,0.0,0.0,0.0,0.0,3.008,3.0099,3.0142,3.008,3.0066,3.0214,3.0915,3.1287,0.0,3.3096,0.0,0.0,0.0,3.5502,0.0,0.0,3.7428,3.7777,3.7506,3.7926,3.85,3.9121,3.9646,4.0209,4.081,4.0907,4.0915,4.0984,4.0993,4.1037,4.1085,4.1094,4.1103,4.1093,4.1152,4.1171,4.1107,4.1097,4.1108,4.1108,4.1108,4.0758,4.0058,3.9615,3.9057,3.835,3.7299,3.6765,3.6709,3.6407,3.5932,3.5344,3.504,3.4908,3.4889,3.4829,3.4768,3.4727,3.4495,3.4363,3.4269,3.3998,3.3842,3.3726,0.0,0.0,0.0,0.0,0.0,0.0,0.0,0.0,0.0,0.0,0.0,0.0,0.0,0.0,0.0,0.0,0.0,0.0,0.0,0.0,2.7477,2.8012,2.8039,2.8228,2.8628,2.8795,2.8934,2.902,2.9332,2.9472,2.9492,2.9532,2.957,2.957,2.9699,2.977,2.9787,2.9874,2.995,2.998,3.0013,3.0084,3.0145,0.0,0.0,0.0,0.0,0.0,0.0,0.0,0.0,0.0,2.9888,2.9924,2.9972,2.9872,3.0082,3.0459,3.1073,3.1732,0.0,3.367,3.4275,3.4859,3.5905,0.0,0.0,0.0,3.8102,3.8605,3.8257,3.8512,3.8952,3.9508,3.9888,4.0296,4.083,4.0907,4.0926,4.0988,4.1006,4.1031,4.1094,4.1104,4.1099,4.1092,4.1152,4.1171,4.1107,4.1097,4.1108,4.1108,4.1108,4.082,4.022,3.9701,3.9127,3.8498,3.7137,3.6455,3.6419,3.5988,3.5495,3.5001,3.4927,3.4908,3.4908,3.4869,3.483,3.483,3.4626,3.4498,3.4404,3.4451,3.4347,3.4109,0.0,0.0,0.0,0.0,0.0,0.0,0.0,0.0,0.0,0.0,0.0,0.0,0.0,0.0,0.0,0.0,0.0,0.0,0.0,0.0,2.6539,2.7326,2.7435,2.7689,2.8102,2.8192,2.8254,2.8272,2.8975,2.9373,2.9414,2.9453,2.9472,2.9472,2.9551,2.957,2.957,2.97,2.9754,2.9754,2.9825,2.9842,2.9861,2.9874,0.0,0.0,0.0,0.0,0.0,0.0,0.0,0.0,2.9789,2.9773,2.9755,2.9626,3.0168,3.0824,3.1036,3.226,0.0,3.3749,3.4604,0.0,3.6664,3.7604,3.8291,3.8303,0.0,3.9379,3.8586,3.9073,3.965,3.9702,4.0382,4.0888,4.0898,4.0907,4.0926,4.0988,4.1006,4.1025,4.1086,4.1097,4.1097,4.1107,4.1151,4.1152,4.1108,4.1097,4.1108,4.1108,4.1108,4.107,4.1,4.001,3.9467,3.9399,3.749,3.6616,3.6568,3.5492,3.5001,3.5001,3.4927,3.4908,3.4908,3.4908,3.4908,3.4908,3.4904,3.4724,3.4532,3.5188,3.5101,3.4636,0.0,0.0,0.0,0.0,0.0,0.0,0.0,0.0,0.0,0.0,0.0,0.0,0.0,0.0,0.0,0.0,0.0,0.0,0.0,0.0,2.6038,2.6232,2.6903,2.7348,2.75,2.7712,2.7911,2.8057,2.8585,2.8865,2.8865,2.9141,2.9265,2.9265,2.9328,2.9349,2.9388,2.9394,2.9395,2.9395,2.9415,2.9454,2.9512,2.9626,2.9626,0.0,0.0,0.0,0.0,0.0,0.0,0.0,2.957,2.957,2.9551,2.9512,3.0091,3.0876,3.1589,3.2508,0.0,0.0,3.5249,3.6285,3.7344,3.8235,3.8896,3.909,3.9888,4.0462,4.0268,4.0389,4.0529,4.0541,4.074,4.0907,4.0888,4.0898,4.0907,4.0926,4.0972,4.1013,4.1019,4.1066,4.1097,4.1107,4.1112,4.1113,4.1093,4.1101,4.1108,4.1108,4.1108,4.1085,4.1078,3.9988,3.9741,4.0374,3.7771,3.6833,3.7387,3.5848,3.5092,3.5001,3.4964,3.4945,3.4908,3.4908,3.4908,3.4965,3.5509,3.5315,3.4856,3.6029,3.5769,3.4906,0.0,0.0,0.0,0.0,0.0,0.0,0.0,0.0,0.0,0.0,0.0,0.0,0.0,0.0,0.0,0.0,0.0,0.0,0.0,0.0,0.0,2.5545,2.6351,2.6808,2.6824,2.708,2.7251,2.7361,2.7798,2.8139,2.8373,2.8535,2.8718,2.8874,2.8897,2.9026,2.9152,2.9178,2.916,2.916,2.9203,2.9246,2.931,2.9372,2.9412,2.9414,2.9493,0.0,0.0,0.0,0.0,0.0,0.0,0.0,2.9492,2.9453,3.0329,3.1352,3.18,0.0,0.0,3.4494,0.0,3.629,3.7318,3.8212,3.8974,3.9517,4.0222,4.0746,4.0746,4.0771,4.0796,4.08,4.0834,4.0848,4.0897,4.0908,4.0907,4.0907,4.0964,4.0994,4.0994,4.1066,4.1094,4.1099,4.1092,4.1094,4.1094,4.1107,4.1097,4.1108,4.1108,4.1081,4.1057,4.0454,4.0131,3.9997,3.8127,3.6964,3.647,3.5598,3.5147,3.5057,3.502,3.4983,3.4945,3.4927,3.4908,3.4984,3.5777,3.5833,3.5622,3.6911,3.6883,3.6241,0.0,0.0,0.0,0.0,0.0,0.0,0.0,0.0,0.0,0.0,0.0,0.0,0.0,0.0,0.0,0.0,0.0,0.0,0.0,0.0,0.0,2.4973,2.5615,2.5961,2.6013,2.6262,2.6385,2.6419,2.6839,0.0,0.0,0.0,2.8112,2.8358,2.8358,2.8496,2.8749,2.8749,2.8791,2.8815,2.8887,2.898,2.9093,2.9119,2.9166,2.927,2.9312,2.9312,2.9272,2.9412,0.0,0.0,0.0,0.0,2.9433,2.9392,3.0451,3.1678,3.1786,0.0,3.4282,3.466,3.536,0.0,3.7249,3.8126,3.8963,3.9728,4.0283,4.064,4.064,4.0733,4.0803,4.0808,4.0792,4.0826,4.0877,4.0878,4.0898,4.0907,4.0964,4.0994,4.0994,4.1066,4.1108,4.1108,4.1108,4.1113,4.1113,4.1112,4.1105,4.1111,4.1108,4.1074,4.1031,4.0857,4.0282,3.9335,3.8415,3.7007,3.5209,3.5367,3.5297,3.5129,3.5209,3.5248,3.5229,3.5173,3.5211,3.5401,3.6121,3.6405,3.6554,3.785,3.8089,3.7729,0.0,0.0,0.0,0.0,0.0,0.0,0.0,0.0,0.0,0.0,0.0,0.0,0.0,0.0,0.0,0.0,0.0,0.0,2.1369,0.0,0.0,2.4318,2.444,2.4601,2.491,2.5082,2.5182,2.5227,0.0,0.0,0.0,0.0,0.0,2.7809,0.0,2.7759,2.7787,2.7787,2.7918,2.812,2.8147,2.8404,2.8767,2.8767,2.8887,2.9044,2.9112,2.9134,2.9134,2.9222,2.9243,0.0,0.0,0.0,2.9243,2.9304,2.9972,3.0865,0.0,0.0,3.4407,0.0,3.5975,3.6851,0.0,0.0,3.9453,3.9757,4.0138,4.0438,4.0438,4.0646,4.079,4.0803,4.0808,4.0792,4.0807,4.0858,4.0898,4.0907,4.0964,4.0994,4.0994,4.1066,4.1108,4.1108,4.1103,4.113,4.1172,4.1133,4.109,4.1091,4.1108,4.1108,4.1081,4.0226,3.9707,3.954,3.8438,3.6964,3.5229,3.5976,3.5921,3.5221,3.5907,3.6177,3.6122,3.6122,3.6482,3.7068,3.7182,3.7239,3.7447,3.905,3.8983,3.8103,0.0,0.0,0.0,0.0,0.0,0.0,0.0,0.0,0.0,0.0,0.0,0.0,0.0,0.0,0.0,1.9223,1.9595,2.0238,2.1305,2.208,2.2741,2.3318,2.3776,2.4127,2.4251,2.4567,2.4728,2.4792,0.0,0.0,0.0,2.5757,2.6404,0.0,0.0,0.0,0.0,2.7155,2.7217,2.7326,2.7326,2.7519,2.7872,2.8012,2.8237,2.8482,2.8767,2.8858,2.8858,2.9021,2.9085,2.9089,2.9134,0.0,0.0,0.0,2.9835,3.0806,3.2117,3.3282,3.4241,0.0,3.5386,3.6273,3.72,3.8047,3.8763,3.9296,3.9709,4.0004,4.0157,4.0319,4.0489,4.0598,4.0621,4.0668,4.0776,4.0867,4.0898,4.0907,4.0964,4.0994,4.0994,4.1066,4.1108,4.1108,4.1101,4.1129,4.1191,4.1133,4.1093,4.1101,4.1094,4.1108,4.1108,4.0656,3.9939,3.8909,3.7765,3.6546,3.535,3.614,3.6014,3.5215,3.5562,3.5983,3.6348,3.6312,3.6748,3.7488,3.7961,3.813,3.8262,3.9282,3.9331,3.8902,0.0,0.0,0.0,0.0,0.0,0.0,0.0,0.0,0.0,0.0,0.0,0.0,0.0,0.0,0.0,0.0,1.8313,1.9227,2.1086,2.1307,2.1738,2.2374,2.2862,2.3201,2.3448,2.3891,2.4116,0.0,0.0,0.0,2.4511,2.4632,2.515,0.0,2.616,2.6334,0.0,0.0,2.6472,2.6539,2.6539,2.6738,2.7012,2.7261,2.749,2.7747,2.8183,2.8281,2.8299,2.8583,2.8725,2.8791,2.8797,2.891,0.0,0.0,0.0,0.0,0.0,0.0,3.392,3.442,3.5014,3.5702,0.0,0.0,3.7819,3.8618,3.902,3.935,3.9775,4.0041,4.0251,4.0389,4.0469,4.0554,4.0699,4.0807,4.0888,4.0907,4.0964,4.0994,4.0994,4.1066,4.1108,4.1108,4.1099,4.1128,4.1191,4.1152,4.1112,4.1103,4.1094,4.1108,4.1108,4.0678,3.9657,3.8052,3.717,3.6273,3.5424,3.617,3.6031,3.5229,3.5654,3.619,3.6727,3.6653,3.711,3.7888,3.8454,3.87,3.8774,3.9368,3.9467,3.9293,0.0,0.0,0.0,0.0,0.0,0.0,0.0,0.0,0.0,0.0,0.0,0.0,0.0,1.6938,1.6999,1.6886,1.7611,1.8631,2.0004,1.9734,2.0181,2.1602,2.1188,0.0,2.2263,2.2603,2.2785,0.0,0.0,0.0,2.3964,2.442,2.4558,2.4451,2.4974,2.5362,2.5663,0.0,0.0,2.5852,2.5852,2.609,2.6455,2.6606,2.6738,2.6884,2.7186,2.7278,2.7309,2.7666,2.7984,2.821,2.8037,2.8219,2.8492,0.0,0.0,0.0,0.0,3.2339,0.0,3.5033,3.546,3.5702,0.0,3.6723,3.6983,3.7801,3.8082,3.8434,3.9275,3.9851,4.0214,4.0214,4.0372,4.0515,4.0511,4.068,4.0828,4.0878,4.0964,4.0994,4.0994,4.1066,4.1108,4.1108,4.1111,4.1121,4.1191,4.1191,4.1169,4.1091,4.1111,4.1108,4.1108,3.9527,3.8198,3.717,3.6977,3.6361,3.5425,3.6166,3.6031,3.5286,3.6891,3.7581,3.7622,3.7566,3.8004,3.8724,3.8721,3.87,3.8793,3.9586,3.9397,3.8807,0.0,0.0,0.0,0.0,0.0,0.0,0.0,0.0,0.0,0.0,0.0,0.0,0.0,1.5953,1.5944,1.631,1.6927,1.7856,1.9101,1.9137,1.9322,1.9991,2.027,2.0683,2.1299,2.1921,0.0,0.0,0.0,2.326,2.326,2.3436,2.3523,2.3566,2.4074,2.4486,2.4735,2.4517,0.0,0.0,2.5036,2.5198,2.5454,2.5697,2.5931,2.6195,2.6556,2.6836,2.7031,2.7247,2.7537,2.7787,2.7718,2.788,2.8093,0.0,0.0,0.0,0.0,0.0,0.0,3.3997,3.4474,3.4884,3.5739,3.6315,3.6928,3.7726,3.8454,3.9018,3.9362,3.9631,3.9848,3.9979,4.0101,4.0248,4.0415,4.061,4.0761,4.0826,4.0921,4.0994,4.0994,4.1066,4.1094,4.1101,4.1101,4.1128,4.1191,4.119,4.1167,4.1103,4.1101,4.0826,4.0268,3.9663,3.8658,3.7225,3.7079,3.6492,3.5546,3.6304,3.6121,3.5267,3.6432,3.7217,3.7734,3.8232,3.8918,3.9699,3.9599,3.9539,3.9577,3.9797,3.9399,3.8736,0.0,0.0,0.0,0.0,0.0,0.0,0.0,0.0,0.0,0.0,0.0,0.0,0.0,0.0,1.5074,1.5543,1.5911,1.6667,1.7861,1.7981,1.8293,1.8996,1.9438,2.0029,2.066,0.0,0.0,0.0,0.0,0.0,0.0,2.2661,2.2692,2.2814,2.3069,2.3463,0.0,0.0,0.0,2.4343,2.4508,2.467,2.4791,2.5274,2.5566,2.5847,2.6405,2.6783,2.7016,2.7195,2.7401,2.7552,2.7506,2.7525,2.7624,0.0,0.0,0.0,2.9976,0.0,0.0,0.0,3.3356,3.3845,3.474,3.541,3.6166,3.7262,3.8063,3.8745,3.9279,3.952,3.965,3.9777,3.9895,4.0042,4.0267,4.0466,4.0629,4.072,4.0869,4.0967,4.0967,4.1057,4.1094,4.1101,4.1108,4.1131,4.1191,4.119,4.1167,4.1103,4.085,4.0416,3.9819,3.9234,3.8391,3.7292,3.6874,3.6475,3.6114,3.6563,3.6548,3.6182,3.7048,3.7362,3.7349,3.785,3.8403,3.8975,3.9431,3.9428,3.9199,3.9442,3.9193,3.87,0.0,0.0,0.0,0.0,0.0,0.0,0.0,0.0,0.0,0.0,0.0,0.0,0.0,0.0,0.0,1.4469,1.4628,1.5187,1.6384,1.6234,1.689,1.8744,1.8703,1.9202,2.0321,0.0,0.0,0.0,0.0,0.0,0.0,0.0,2.2184,2.2184,2.1949,2.2282,2.3172,0.0,2.3782,2.3824,2.4276,2.4513,2.4606,2.5373,2.5695,2.5831,2.6686,2.7051,2.7238,2.7499,2.758,2.749,2.7378,2.7108,0.0,0.0,0.0,0.0,0.0,0.0,0.0,0.0,3.2247,3.2727,3.3605,3.4016,3.4699,3.6333,3.6814,3.7436,3.9063,3.9502,3.9596,3.9602,3.9754,3.9937,4.0061,4.0267,4.0454,4.0574,4.0779,4.0885,4.0885,4.1022,4.1108,4.1108,4.111,4.1133,4.1191,4.1191,4.1169,4.1091,4.0349,3.99,3.98,3.8199,3.736,3.7321,3.6353,3.632,3.7131,3.6987,3.7328,3.8053,3.8825,3.8147,3.6547,3.6514,3.6516,3.6669,3.8233,3.8308,3.7679,3.8515,3.8798,3.8738,0.0,0.0,0.0,0.0,0.0,0.0,0.0,0.0,0.0,0.0,0.0,0.0,0.0,0.0,1.4469,1.4469,1.4529,1.4697,1.5031,1.5487,1.6063,1.6687,1.7435,1.8147,1.8874,0.0,0.0,0.0,0.0,0.0,0.0,0.0,0.0,0.0,2.1841,2.1841,2.1955,2.2785,0.0,2.3551,2.4067,2.4499,2.49,2.5244,2.5685,2.6176,2.6494,2.6879,2.7195,2.728,2.7599,2.7893,2.7654,0.0,0.0,0.0,0.0,0.0,2.8997,0.0,0.0,0.0,0.0,0.0,3.3551,3.4301,3.4987,3.5695,3.6838,3.7846,3.8364,3.9039,3.9546,3.9577,3.9684,3.9807,3.9935,4.0177,4.0358,4.0454,4.063,4.0749,4.0749,4.0926,4.1037,4.103,4.1066,4.1131,4.1191,4.1152,4.1113,4.1092,4.0884,4.0483,3.9878,3.9351,3.8824,3.8238,3.7956,3.7908,3.8033,3.8004,3.8044,3.8152,3.8227,3.7973,3.7586,3.8741,3.9222,3.9261,3.9662,3.9681,3.9471,3.9619,3.9673,3.9634,0.0,0.0,0.0,0.0,0.0,0.0,0.0,0.0,0.0,0.0,0.0,0.0,0.0,0.0,1.3442,1.3692,1.37,1.3812,1.4052,1.4796,1.5381,1.5738,1.6786,1.7611,1.819,0.0,0.0,0.0,0.0,0.0,0.0,0.0,0.0,0.0,0.0,0.0,0.0,0.0,2.2663,2.2904,2.3806,2.4386,2.4732,2.5606,2.6153,2.6565,2.6964,2.7349,2.7623,2.7668,2.7917,2.8144,2.7947,2.7654,0.0,2.7655,0.0,0.0,0.0,0.0,0.0,0.0,0.0,0.0,3.3092,3.3811,3.4438,3.4982,3.6028,3.6946,3.7314,3.7997,3.8608,3.8995,3.9152,3.9362,3.9832,4.0078,4.0252,4.0342,4.0506,4.0623,4.0623,4.0801,4.0915,4.0916,4.098,4.1052,4.1114,4.113,4.1112,4.1064,4.0761,4.0379,3.9897,3.9507,3.9058,3.8593,3.8593,3.8736,3.8975,3.8973,3.9116,3.9316,3.9201,3.9116,3.9147,4.0024,3.9924,3.926,3.9566,3.9681,3.97,3.9984,4.0285,4.0547,0.0,0.0,0.0,0.0,0.0,0.0,0.0,0.0,0.0,0.0,0.0,0.0,0.0,0.0,0.0,0.0,1.256,1.2797,1.3329,1.4145,1.4787,1.5371,1.6425,1.7279,1.7863,1.8494,0.0,0.0,0.0,0.0,0.0,0.0,0.0,0.0,0.0,0.0,0.0,0.0,2.1835,2.2027,2.3493,2.4126,2.4378,2.6156,2.6856,2.6879,2.7694,2.8039,2.8186,2.8396,2.8372,2.8227,2.8184,2.8194,2.8357,2.872,2.8884,0.0,0.0,0.0,0.0,0.0,3.1112,0.0,3.2492,3.297,3.346,3.4208,3.4759,3.5356,3.613,3.6684,3.7258,3.8056,3.8361,3.8855,3.9775,4.0015,4.0157,4.0272,4.0403,4.0482,4.0482,4.0676,4.0791,4.0785,4.0857,4.0941,4.0994,4.1108,4.1119,4.0998,4.0361,4.0019,4.0023,3.9256,3.8882,3.8885,3.8885,3.9253,3.9937,3.9934,4.0304,4.0926,4.0915,4.0828,4.0681,4.0564,3.9525,3.8091,3.8839,3.9165,3.928,4.0043,4.086,4.1594,0.0,0.0,0.0,0.0,0.0,0.0,0.0,0.0,0.0,0.0,0.0,0.0,0.0,0.0,0.0,0.0,1.2367,1.2428,1.2544,1.326,1.3855,1.4067,1.5245,1.6073,1.6461,1.7335,1.7909,0.0,0.0,0.0,0.0,0.0,0.0,0.0,0.0,0.0,0.0,0.0,2.0668,2.1264,2.2791,2.3644,2.4198,2.5444,2.6257,2.6843,2.758,2.794,2.8122,2.8637,2.8465,2.8136,2.8468,2.8339,2.8122,2.8357,2.8645,2.9056,0.0,0.0,2.9729,3.1231,3.1271,0.0,3.2426,3.2766,3.2961,3.346,3.4134,3.4783,3.5338,3.6044,3.6701,3.7239,3.8093,3.8942,3.9778,4.0015,4.0157,4.0272,4.0362,4.0427,4.0427,4.0596,4.0713,4.0731,4.0834,4.0937,4.1007,4.1021,4.1032,4.1,4.0866,4.0798,4.0797,4.0677,4.06,4.06,4.06,4.0698,4.0854,4.0851,4.0911,4.1056,4.0941,4.0828,4.0681,4.0564,4.0281,3.9961,4.0021,4.0444,4.0998,4.1131,4.2081,4.3311,0.0,0.0,0.0,0.0,0.0,0.0,0.0,0.0,0.0,0.0,0.0,0.0,0.0,0.0,0.0,0.0,0.0,0.0,0.0,1.2773,1.3442,1.3606,1.4501,1.5323,1.5843,1.6539,1.7123,1.759,0.0,0.0,0.0,0.0,0.0,0.0,0.0,0.0,0.0,1.976,2.0085,2.0478,2.2409,2.3478,2.4061,2.524,2.5983,2.6481,2.693,2.7306,2.7775,2.835,2.8325,2.8078,2.8614,2.8686,2.863,2.9108,2.9473,2.9833,3.047,3.0513,3.058,3.1482,3.1507,0.0,0.0,3.242,3.2521,3.2802,3.3386,3.3912,3.4173,3.4751,3.5484,3.6274,3.6911,3.7783,3.9159,3.9831,4.0234,4.0291,4.0364,4.0398,4.0398,4.0519,4.0612,4.066,4.077,4.0866,4.0898,4.0998,4.1025,4.1005,4.1035,4.1045,4.1042,4.1073,4.109,4.1107,4.1097,4.1108,4.1108,4.1105,4.1091,4.1091,4.1025,4.0926,4.0796,4.0655,4.0564,4.0492,4.0345,4.0559,4.0998,4.1799,4.2579,4.3376,0.8957,0.0,0.0,0.0,0.0,0.0,0.0,0.0,0.0,0.0,0.0,0.0,0.0,0.0,0.0,0.0,0.0,0.0,1.1212,1.2266,1.2956,1.3268,1.3923,1.4569,1.5196,1.5718,1.6425,1.7234,0.0,0.0,0.0,0.0,0.0,0.0,0.0,0.0,0.0,0.0,1.973,2.0025,2.2027,2.3123,2.3697,2.4942,2.5563,2.5837,2.6014,2.6616,2.7321,2.7775,2.7974,2.8107,2.8637,2.8904,2.9166,2.9826,3.0189,3.0468,3.0895,3.1219,3.1443,3.15,3.1754,3.2009,0.0,0.0,0.0,3.2354,3.2737,3.3081,3.3184,3.356,3.4183,3.5264,3.5646,3.6387,3.8,3.9108,3.9891,4.0253,4.0363,4.0415,4.0415,4.0476,4.0534,4.0607,4.0712,4.0791,4.079,4.0958,4.1016,4.0958,4.1034,4.1069,4.1057,4.1097,4.1092,4.1093,4.1099,4.1108,4.1108,4.1109,4.1096,4.1091,4.1109,4.1011,4.0878,4.0776,4.0642,4.0492,4.0345,4.0501,4.096,4.2297,4.2964,4.3359,0.8447,0.9064,0.0,0.0,0.0,0.0,0.0,0.0,0.0,0.0,0.0,0.0,1.0334,1.0288,1.0268,1.0338,1.0085,1.0212,1.0836,1.1142,1.1586,1.2421,1.3086,1.3614,1.3888,1.4551,1.5313,1.6244,1.6564,0.0,0.0,0.0,0.0,0.0,1.8193,0.0,0.0,1.868,1.9483,2.0375,2.1164,2.1873,2.2553,2.4055,2.4624,2.4738,2.5175,2.5932,2.6797,2.6834,2.7393,2.8054,2.8348,2.859,2.8842,2.9289,2.9649,2.9968,3.0309,3.1108,3.1724,3.1343,3.1957,3.2531,3.1938,0.0,3.2108,3.2232,0.0,3.2623,3.3093,0.0,0.0,3.4333,3.5067,3.5684,3.6073,3.7064,3.8365,4.0099,4.0362,4.0432,4.0466,4.0546,4.0583,4.0607,4.0673,4.0733,4.079,4.081,4.0829,4.081,4.0963,4.098,4.092,4.1042,4.1091,4.1094,4.1091,4.1108,4.1108,4.1097,4.1105,4.1091,4.11,4.1025,4.0907,4.0878,4.0718,4.0492,4.0345,4.1208,4.2545,4.2737,4.3689,4.4944,0.7712,0.8102,0.0,0.0,0.8301,0.0,0.0,0.0,0.0,0.0,0.0,1.0461,1.0342,1.0129,0.9922,0.9708,0.9708,1.0038,1.0631,1.1102,0.0,1.2638,1.2893,1.3214,1.3687,1.4012,1.4483,1.5313,1.5661,0.0,0.0,0.0,0.0,0.0,1.7947,1.8078,1.83,1.9093,1.9576,1.9918,2.1008,2.1728,2.2224,2.3238,2.393,2.4452,2.5007,2.5439,2.5769,2.6322,2.6707,2.7152,2.784,2.822,2.8494,2.8967,2.9319,2.9677,2.9924,3.054,3.1058,3.0986,3.141,3.1854,3.1795,3.1873,3.1965,3.2144,0.0,0.0,0.0,0.0,0.0,0.0,3.4308,3.4896,3.5642,3.6155,3.7175,3.9127,3.9525,3.9701,3.9784,4.0288,4.041,3.9932,4.0397,4.0733,4.079,4.0829,4.0848,4.0848,4.0916,4.0945,4.096,4.1008,4.1062,4.1093,4.1099,4.1108,4.1108,4.1097,4.109,4.1105,4.1106,4.1013,4.0887,4.0897,4.0796,4.0602,4.0549,4.0869,4.1476,4.245,4.3232,4.3937,0.6732,0.0,0.0,0.7386,0.7386,0.7405,0.7527,0.8384,0.9214,0.9705,1.0134,1.0405,1.0339,0.9991,0.9642,0.9206,0.941,0.9823,1.0297,1.0792,1.1614,1.2721,1.2557,1.2814,1.3582,1.3526,1.3822,1.4607,1.4921,0.0,0.0,0.0,0.0,0.0,0.0,1.8225,1.8677,1.9643,1.9912,1.9827,2.0911,2.1553,2.1928,2.2738,2.3471,2.4118,2.4509,2.4724,2.4908,2.5563,2.5892,2.6229,2.7188,2.766,2.791,2.859,2.8967,2.9243,2.9589,3.0087,3.0547,3.0651,3.1012,3.1478,3.1905,3.2073,3.2219,3.2701,3.2757,0.0,0.0,0.0,3.316,0.0,0.0,3.4201,3.5123,3.531,3.6092,3.8133,3.8838,3.9196,3.9296,3.988,3.9909,3.9089,3.9863,4.0353,4.041,4.0681,4.0848,4.0868,4.0885,4.0901,4.0946,4.0961,4.1,4.1069,4.1072,4.108,4.1108,4.1101,4.1097,4.1094,4.1096,4.1039,4.0945,4.0949,4.0888,4.0746,4.0746,4.0615,4.0607,4.224,4.2967,4.3328,0.5491,0.6539,0.0,0.7386,0.7386,0.7518,0.7716,0.8626,0.927,0.934,1.0118,1.061,1.0357,0.9991,0.9642,0.9206,0.9281,0.9416,0.9678,0.9748,1.051,1.2173,1.1819,1.2151,1.3318,1.2983,1.3299,1.4292,1.4282,0.0,0.0,0.0,0.0,0.0,1.7796,1.8506,1.9133,2.0036,2.0466,2.0549,2.0635,2.0816,2.1313,2.2932,2.3509,2.3403,2.3258,2.3649,2.435,2.435,2.4851,2.5563,2.6467,2.673,2.6953,2.8073,2.846,2.8589,2.9167,2.9936,3.0548,3.0346,3.1091,3.1976,3.2377,3.2694,3.3152,3.4123,3.3818,3.344,3.3705,3.3303,3.3055,0.0,0.0,0.0,0.0,3.4161,3.5071,3.7262,3.8578,3.9296,3.9296,3.9326,3.9008,3.8194,3.8954,3.9438,3.9445,4.0256,4.0733,4.079,4.088,4.0873,4.0807,4.0867,4.0939,4.1004,4.0992,4.1034,4.1108,4.1108,4.1104,4.1094,4.1094,4.1105,4.1091,4.1091,4.1007,4.0885,4.0885,4.08,4.0881,4.2425,4.3406,4.4072,0.5511,0.0,0.615,0.6102,0.6083,0.6269,0.6916,0.7986,0.8929,0.936,1.03,1.0942,1.0858,1.0706,1.0481,1.0115,1.0115,1.0262,1.0621,1.0621,1.0985,1.1853,1.1888,1.22,1.2694,1.2721,1.2972,1.3515,1.3885,0.0,0.0,0.0,0.0,0.0,0.0,1.7861,1.8445,1.975,2.0456,2.0635,2.106,2.1187,2.125,2.2616,2.3053,2.2932,2.3318,2.3437,2.3603,2.4118,2.4452,2.4794,2.5605,2.5918,2.6172,2.7108,2.7479,2.773,2.851,2.9155,2.9667,2.9902,3.0405,3.11,3.2114,3.2491,3.2934,3.3926,3.3668,3.3368,3.3618,0.0,0.0,0.0,0.0,0.0,0.0,3.4037,3.4768,3.6161,3.7928,3.8831,3.8293,3.875,3.8534,3.7145,3.8351,3.9219,3.9386,4.0223,4.07,4.0733,4.0797,4.0846,4.0873,4.0839,4.0863,4.0939,4.0933,4.0967,4.1035,4.1035,4.1068,4.1104,4.1097,4.109,4.1105,4.1096,4.1075,4.1026,4.1026,4.0949,4.1011,4.2563,4.3288,4.3654,0.5737,0.5807,0.5706,0.5535,0.5518,0.5686,0.6267,0.7301,0.8309,0.9036,1.0057,1.0812,1.1037,1.1111,1.0962,1.0519,1.0663,1.0738,1.0887,1.0887,1.1111,1.1706,1.1747,1.2089,1.2742,1.2786,1.2999,1.3457,1.383,1.3953,0.0,0.0,0.0,0.0,0.0,1.7666,1.8638,1.994,2.0666,2.1019,2.1198,2.1071,2.0892,2.1865,2.2421,2.2725,2.3065,2.3198,2.3258,2.3721,2.3884,2.4002,2.4781,2.505,2.5315,2.624,2.6715,2.7093,2.7795,2.8446,2.8951,2.9438,2.9837,3.0514,3.2077,3.2621,3.3196,3.449,3.4068,3.3549,3.3862,0.0,0.0,0.0,0.0,0.0,0.0,3.3961,3.4559,3.5544,3.699,3.7699,3.7183,3.7641,3.7411,3.6035,3.7467,3.8508,3.8772,3.9899,4.0579,4.07,4.0746,4.0797,4.0848,4.0818,4.084,4.0906,4.087,4.0891,4.0971,4.099,4.1016,4.1066,4.1088,4.0922,4.0668,4.0972,4.0925,4.0662,4.0989,4.1052,4.1155,4.271,4.3615,4.4219,0.6104,0.6115,0.6046,0.5888,0.5813,0.5813,0.5813,0.6595,0.7516,0.8328,0.9329,1.0218,1.0962,1.1111,1.0962,1.0588,1.0887,1.0962,1.0513,1.0513,1.0887,1.1632,1.126,1.1855,1.3346,1.312,1.3367,1.4109,1.408,0.0,0.0,0.0,0.0,0.0,1.6767,1.7866,1.9433,2.0375,2.1112,2.1588,2.0892,2.0453,2.0205,2.0816,2.1803,2.2738,2.2469,2.2787,2.333,2.3138,2.3065,2.3258,2.4002,2.4234,2.4452,2.5412,2.6119,2.6678,2.7129,2.7795,2.8477,2.8935,2.9438,3.0298,3.2227,3.3041,3.3905,3.5703,3.4977,3.4086,3.4411,3.3494,0.0,0.0,0.0,0.0,0.0,3.3921,3.4383,3.5394,3.5824,3.6026,3.6064,3.6083,3.5742,3.4946,3.6328,3.7357,3.7668,3.9218,4.0277,4.0654,4.0687,4.0733,4.079,4.079,4.0829,4.0887,4.082,4.0824,4.0901,4.0952,4.0973,4.0936,4.1008,4.0564,3.9861,4.0639,4.0538,3.9942,4.073,4.1106,4.1395,4.2877,4.4358,4.5659,0.6372,0.6585,0.6629,0.6437,0.6264,0.6113,0.5969,0.6772,0.7487,0.7715,0.8974,0.9992,1.0218,1.0738,1.1037,1.0962,1.1037,1.1037,1.0962,1.0962,1.0887,1.0812,1.1037,1.1335,1.1929,1.2597,1.3236,1.3893,1.4272,0.0,1.5033,0.0,0.0,0.0,0.0,1.7164,1.7971,1.8944,1.9944,2.0858,2.1019,2.0839,2.0453,2.0388,2.0892,2.1628,2.2002,2.2433,2.2798,2.2738,2.3005,2.333,2.3378,2.3424,2.359,2.4553,2.4937,2.5273,2.6119,2.6923,2.765,2.8033,2.8919,3.0138,3.2036,3.2917,3.3786,3.5389,3.4787,3.4086,3.4356,3.3477,3.2798,0.0,0.0,0.0,0.0,3.3947,3.4123,3.4451,3.4596,3.5001,3.58,3.5878,3.5536,3.4724,3.5612,3.6529,3.7357,3.848,3.9471,4.0315,4.0386,4.0481,4.0654,4.07,4.0733,4.0752,4.0788,4.08,4.0824,4.0903,4.0599,4.0037,4.0097,4.0018,3.9762,3.9398,3.9836,4.0723,4.0301,4.1295,4.3,4.3408,4.416,4.506,0.6761,0.7034,0.7069,0.6901,0.6806,0.6579,0.6277,0.6732,0.7176,0.7484,0.8322,0.9084,0.9846,1.0293,1.0738,1.1037,1.1111,1.1111,1.1111,1.1111,1.1037,1.0738,1.0962,1.126,1.1632,1.2231,1.2875,1.3562,1.3966,0.0,1.4939,0.0,0.0,0.0,0.0,1.6948,1.8091,1.8986,1.9704,2.0226,2.0752,2.0688,0.0,2.0324,2.0571,2.088,2.1123,2.1678,2.2298,2.2433,2.2702,2.2969,2.3078,2.3078,2.3185,2.3839,2.4234,2.4624,2.5259,2.6133,2.6923,2.7187,2.8345,2.9863,3.1452,3.2639,3.3723,3.4813,3.4627,3.4215,3.3894,3.3406,3.3062,0.0,0.0,0.0,3.3807,3.3895,3.3972,3.3998,3.4074,3.434,3.4955,3.504,3.4871,3.4423,3.5152,3.6096,3.7112,3.8024,3.8984,4.0024,4.0101,4.0174,4.0296,4.045,4.0549,4.0564,4.0687,4.0769,4.0791,4.0468,4.0084,3.9638,3.9318,3.9195,3.9236,3.9158,3.9678,4.0513,4.0407,4.1471,4.3065,4.3039,4.4024,4.5423,0.6958,0.7314,0.7407,0.7257,0.7257,0.7103,0.6718,0.6641,0.6791,0.733,0.748,0.8089,0.9463,0.969,1.0067,1.0887,1.0962,1.0962,1.1111,1.1111,1.1111,1.1111,1.1111,1.1335,1.1855,1.2003,1.2378,1.3193,1.3477,0.0,0.0,0.0,0.0,0.0,0.0,1.7041,1.8767,1.9573,1.9781,1.9594,2.0279,2.0409,2.0226,2.0571,2.07,2.0646,2.0335,2.0892,2.1815,2.2099,2.2285,2.2469,2.2896,2.3078,2.3138,2.333,2.3852,2.4408,2.458,2.5342,2.6162,2.6308,2.7743,2.9427,3.0676,3.2241,3.3617,3.4164,3.4395,3.4218,3.3235,3.3225,3.3334,0.0,3.3455,3.3707,3.3845,3.3981,3.4079,3.4079,3.4113,0.0,3.4016,3.4049,3.4099,3.4099,3.4803,3.5653,3.671,3.7596,3.8564,3.9648,3.9781,3.9861,3.9887,4.0138,4.0283,4.0336,4.0549,4.0687,4.0726,3.9937,3.9516,3.9373,3.8683,3.842,3.8525,3.9293,3.9687,3.9882,4.0756,4.1622,4.2382,4.2325,4.3819,4.5891,0.6023,0.692,0.7484,0.7484,0.7484,0.733,0.7103,0.6945,0.6865,0.7019,0.7553,0.8008,0.8161,0.877,0.9382,1.0067,1.0143,1.0368,1.1037,1.1111,1.1111,1.1111,1.1111,1.1186,1.126,1.1929,1.2512,1.2945,1.3294,1.3761,0.0,0.0,0.0,0.0,0.0,1.6844,1.8202,1.8911,1.9177,1.9177,2.0204,2.059,2.0537,2.0955,2.1094,2.1094,2.1031,2.1083,2.1262,2.121,2.1815,2.2555,2.2519,2.2775,2.3138,2.333,2.3509,2.3688,2.3936,2.4567,2.5204,2.5494,2.6885,2.8614,3.0429,3.1785,3.2886,3.3848,3.3816,3.3422,3.2821,3.2699,3.2783,3.3147,3.3327,3.3728,3.4548,3.4862,3.4981,3.4981,3.5034,3.4766,3.3994,3.3972,3.4023,3.4023,3.4171,3.4641,3.5551,3.6358,3.734,3.8456,3.9126,3.959,3.9821,3.9903,3.9983,3.9983,4.0302,4.0454,4.045,3.9823,3.9129,3.8442,3.8346,3.8319,3.8351,3.8565,3.9092,3.9882,4.0757,4.1638,4.2398,4.2382,4.3097,4.4169,0.5964,0.6962,0.7642,0.7642,0.7642,0.7646,0.7492,0.7334,0.7173,0.6942,0.7246,0.7625,0.7931,0.8313,0.8922,0.9992,1.0067,1.0368,1.1037,1.1111,1.1111,1.1111,1.1111,1.1186,1.126,1.1632,1.1996,1.2439,1.2792,1.3197,0.0,0.0,0.0,1.5106,0.0,1.7197,1.8008,1.8327,1.8462,1.8596,1.9431,1.9748,1.9814,2.0613,2.088,2.0944,2.1158,2.1158,2.1146,2.1146,2.1388,2.1753,2.1951,2.2334,2.2775,2.2944,2.3258,2.3509,2.37,2.4176,2.461,2.4694,2.605,2.7704,2.8944,3.0366,3.1625,3.2087,3.2646,3.2967,3.2747,3.2871,3.314,3.352,3.4101,3.4751,3.5344,3.5546,3.5504,3.5054,3.5055,3.4752,3.3826,3.378,3.386,3.3947,3.3947,3.4341,3.5262,3.6066,3.6943,3.791,3.8728,3.9219,3.932,3.9537,3.9637,3.9645,3.9964,4.0138,4.0118,3.9561,3.9064,3.8653,3.8373,3.852,3.8974,3.9046,3.9334,3.9759,3.9744,4.0547,4.1615,4.1205,4.1855,4.3056,0.6318,0.7176,0.788,0.788,0.788,0.788,0.788,0.7718,0.7484,0.7096,0.7019,0.7246,0.7855,0.808,0.8689,0.9911,1.0137,1.0513,1.1186,1.126,1.126,1.126,1.126,1.1335,1.1484,1.1484,1.1706,1.2003,1.2353,1.26,1.2675,0.0,0.0,1.4959,1.6478,1.7407,1.7794,1.794,1.8008,1.8076,1.8721,1.8977,1.911,2.0139,2.059,2.073,2.1083,2.1221,2.1348,2.1463,2.1273,2.1083,2.1376,2.1827,2.2273,2.2543,2.298,2.3437,2.3628,2.391,2.4189,2.4157,2.5368,2.6807,2.7549,2.9027,3.0242,3.0307,3.1404,3.245,3.2673,3.3194,3.3722,3.3986,3.4827,3.5609,3.605,3.6188,3.5969,3.5155,3.5104,3.4731,3.3696,3.3605,3.3643,3.3716,3.3788,3.4181,3.4924,3.5874,3.6731,3.7405,3.8364,3.8881,3.891,3.9183,3.9305,3.9327,3.9664,3.9821,3.9787,3.9259,3.9016,3.8988,3.8369,3.8559,3.9333,3.938,3.9403,3.9345,3.8723,3.9396,4.0654,4.0019,4.0737,4.2121,0.6784,0.7484,0.8106,0.8106,0.8106,0.8106,0.8106,0.8025,0.7872,0.7484,0.7484,0.7407,0.7257,0.7931,0.8609,0.9296,1.0045,1.0795,1.1558,1.1632,1.1632,1.1632,1.1632,1.1632,1.1706,1.1855,1.1929,1.2003,1.2198,1.2134,1.1813,0.0,1.3185,1.4235,1.5695,1.6554,1.7079,1.7725,1.8008,1.8076,1.8721,1.8977,1.911,1.9835,2.0549,2.106,2.1071,2.1325,2.1663,2.1651,2.1526,2.1325,2.1019,2.1262,2.1803,2.2421,2.2652,2.2859,2.3641,2.3891,2.3995,2.4247,2.4917,2.5904,2.7386,2.8385,2.9113,2.9645,3.0617,3.1576,3.2313,3.3259,3.4098,3.4456,3.4782,3.5367,3.6546,3.6801,3.659,3.5945,3.5884,3.5283,3.3751,3.3605,3.3473,3.3202,3.3455,3.3679,3.3835,3.53,3.6256,3.6509,3.8029,3.8851,3.891,3.8979,3.9036,3.9045,3.9371,3.9529,3.9515,3.8988,3.8766,3.8784,3.8134,3.8053,3.8429,3.8421,3.8432,3.8436,3.8416,3.9,3.9816,3.9735,4.0305,4.1125,0.5777,0.6861,0.7714,0.7714,0.8021,0.825,0.825,0.8178,0.8025,0.7872,0.7872,0.7795,0.7569,0.8241,0.8917,0.9448,1.0201,1.095,1.1632,1.1706,1.1706,1.1706,1.1706,1.1781,1.1855,1.1929,1.215,1.2378,1.2452,1.2476,1.2458,1.2946,1.3739,1.4703,1.5392,1.6224,1.7079,1.7442,1.7862,1.8202,1.8462,1.8596,1.8664,1.9375,1.9759,2.015,2.0996,2.1388,2.1526,2.1651,2.1526,2.1285,2.1094,2.1262,2.1565,2.2163,2.2421,2.2677,2.3497,2.3747,2.391,2.4234,2.4651,2.5287,2.6313,2.6989,2.7588,2.8182,2.9643,3.101,3.1665,3.3262,3.4593,3.507,3.5647,3.6317,3.7059,3.7202,3.6753,3.5431,3.5337,3.4643,3.2826,3.2634,3.2601,3.2517,3.3001,3.3202,3.2983,3.4775,3.5724,3.5548,3.738,3.8396,3.8428,3.8473,3.8646,3.8862,3.911,3.92,3.9208,3.9185,3.9022,3.8765,3.8134,3.7945,3.8016,3.7669,3.752,3.7462,3.7012,3.7362,3.8195,3.8727,3.9466,4.0137,0.5774,0.678,0.7633,0.7787,0.8169,0.8475,0.8475,0.8403,0.825,0.825,0.825,0.8178,0.7953,0.8627,0.9226,0.9523,1.0426,1.1186,1.1558,1.1855,1.1929,1.1929,1.1929,1.2077,1.2224,1.2224,1.2378,1.2673,1.2673,1.2705,1.2832,1.3308,1.394,1.4747,1.5093,1.5851,1.6862,1.7226,1.7794,1.8337,1.8337,1.8337,1.8405,1.8854,1.9177,1.9507,2.0484,2.1008,2.1198,2.1588,2.1463,2.1221,2.1221,2.1285,2.1451,2.1928,2.2175,2.2494,2.3258,2.3569,2.3793,2.4176,2.4536,2.5005,2.5674,2.615,2.6779,2.7712,2.9234,3.0672,3.1518,3.3176,3.4583,3.5045,3.5642,3.6222,3.6694,3.6619,3.5987,3.4594,3.43,3.3615,3.2018,3.1897,3.1897,3.188,3.2332,3.255,3.2468,3.4309,3.5216,3.4959,3.6843,3.7861,3.7861,3.798,3.8231,3.8634,3.8737,3.8873,3.9007,3.9044,3.8656,3.7909,3.7521,3.7236,3.704,3.6684,3.6532,3.6485,3.596,3.6464,3.7502,3.7875,3.8728,3.9539,0.7629,0.7783,0.8012,0.8551,0.8699,0.8703,0.8703,0.8699,0.8699,0.8699,0.8699,0.8551,0.8102,0.8851,0.9296,0.9296,1.0801,1.1632,1.1409,1.215,1.2599,1.2599,1.2599,1.2673,1.29,1.29,1.29,1.29,1.29,1.2811,1.2727,1.2938,1.3327,1.3863,1.4553,1.5463,1.6376,1.7088,1.7794,1.8482,1.8482,1.8482,1.8482,1.8482,1.8942,1.9605,1.9605,2.0064,2.07,2.1376,2.1502,2.14,2.1221,2.1221,2.1336,2.1928,2.2101,2.2237,2.2944,2.3271,2.3569,2.4118,2.4536,2.5005,2.5893,2.6312,2.6986,2.8713,2.9674,3.0629,3.2016,3.3136,3.3855,3.4105,3.4252,3.4525,3.5143,3.4671,3.4049,3.356,3.2946,3.2286,3.1679,3.1593,3.1554,3.1435,3.1435,3.1733,3.2385,3.3864,3.4747,3.4783,3.6433,3.7305,3.7305,3.7506,3.779,3.8212,3.8277,3.8548,3.8989,3.8311,3.7261,3.5937,3.6,3.5685,3.5149,3.5336,3.5424,3.5438,3.5635,3.6753,3.8197,3.7405,3.818,3.95,0.6777,0.7395,0.8012,0.8775,0.9236,0.9539,0.9539,0.9539,0.9539,0.9539,0.9539,0.9463,0.9311,0.9463,0.9458,0.9301,1.0282,1.0887,1.0812,1.1558,1.2003,1.2003,1.2526,1.282,1.29,1.29,1.2973,1.3119,1.3119,1.3142,1.3266,1.3338,1.3541,1.379,1.4201,1.4903,1.5816,1.6175,1.695,1.792,1.792,1.8269,1.8674,1.8674,1.8875,1.9142,1.9605,1.9922,2.0172,2.0752,2.125,2.169,2.1514,2.1577,2.1765,2.2347,2.2273,2.2187,2.3078,2.3271,2.3378,2.4015,2.4234,2.4523,2.5412,2.6258,2.715,2.8203,2.929,3.04,3.1415,3.2588,3.3479,3.382,3.4021,3.4072,3.3912,3.3786,3.3295,3.2157,3.224,3.2038,3.1212,3.1104,3.1205,3.1408,3.0949,3.0891,3.1432,3.3204,3.4133,3.399,3.5841,3.6825,3.6825,3.6943,3.7193,3.7596,3.7755,3.8062,3.853,3.8071,3.7344,3.6416,3.6032,3.549,3.4907,3.5062,3.5143,3.5209,3.5336,3.5759,3.6369,3.6752,3.7284,3.7802,0.6395,0.7242,0.8012,0.8775,0.9463,0.9922,0.9922,0.9922,0.9922,0.9922,0.9922,0.9922,0.9922,0.9771,0.9614,0.9306,1.0062,1.0363,1.0143,1.0887,1.1484,1.1781,1.2298,1.2746,1.3119,1.3119,1.3193,1.3346,1.3346,1.3419,1.3645,1.3645,1.379,1.4,1.4137,1.4697,1.5613,1.5762,1.6385,1.7423,1.7706,1.8114,1.8529,1.8808,1.8942,1.8942,1.9396,1.9594,1.9649,2.0237,2.0752,2.1187,2.1376,2.1628,2.2013,2.2543,2.2482,2.2334,2.2969,2.309,2.3198,2.3826,2.406,2.435,2.5175,2.6082,2.7065,2.81,2.9128,3.0098,3.1101,3.2004,3.2664,3.2902,3.284,3.2716,3.2508,3.2144,3.1597,3.076,3.1096,3.1003,3.0144,3.0366,3.0491,3.04,2.9976,2.9962,3.0586,3.2604,3.3782,3.3855,3.5437,3.6308,3.6308,3.6374,3.6643,3.7041,3.7379,3.7505,3.7507,3.7516,3.6989,3.6001,3.5757,3.5274,3.4651,3.4832,3.4906,3.4961,3.5081,3.5385,3.5777,3.6089,3.6459,3.6818,0.6483,0.7249,0.8012,0.8703,0.9387,0.9916,0.9997,0.9992,0.9992,0.9992,0.9992,0.9992,0.9992,0.9992,0.9846,0.9397,1.0067,1.0218,0.962,1.0368,1.1186,1.1929,1.2003,1.2452,1.3492,1.3499,1.3492,1.3564,1.3564,1.3645,1.379,1.379,1.4,1.4425,1.4425,1.4919,1.5692,1.5762,1.6175,1.6932,1.7628,1.7969,1.8104,1.8798,1.9075,1.9131,1.9131,1.9131,1.9198,1.9846,1.9987,2.0064,2.0816,2.1439,2.2013,2.2543,2.2678,2.2739,2.2739,2.286,2.3078,2.3636,2.393,2.435,2.5175,2.5879,2.6751,2.832,2.8961,2.9737,3.0982,3.1351,3.1409,3.1495,3.1125,3.0855,3.1013,2.9953,2.9215,2.9369,2.958,2.9477,2.8793,2.9435,2.9609,2.8825,2.8732,2.9139,3.0037,3.2065,3.351,3.4219,3.5188,3.5728,3.5773,3.5905,3.6174,3.6539,3.7099,3.6969,3.6239,3.6787,3.6267,3.4952,3.5235,3.4983,3.4363,3.4569,3.4674,3.4694,3.4887,3.5451,3.6114,3.542,3.5679,3.6431,0.6938,0.7322,0.8016,0.9387,0.9765,1.0143,1.0738,1.0812,1.0812,1.0812,1.0812,1.0812,1.0812,1.0812,1.0663,1.0218,1.0143,0.9992,0.9846,1.0588,1.1111,1.1335,1.1929,1.2526,1.3273,1.3273,1.3492,1.3992,1.3992,1.3992,1.4065,1.4065,1.4137,1.4425,1.4425,1.4569,1.4919,1.5196,1.5754,1.6515,1.695,1.7716,1.8596,1.8808,1.9142,1.9473,1.9473,1.9473,1.9539,1.966,2.0053,2.0442,2.0635,2.1135,2.1753,2.2322,2.2702,2.303,2.3223,2.315,2.3138,2.3437,2.3943,2.4509,2.4794,2.5701,2.6708,2.7609,2.8203,2.8947,3.0288,3.0553,3.0807,3.1409,3.114,3.0453,2.9559,2.8827,2.8114,2.744,2.8479,2.9175,2.8928,2.95,2.9791,2.9541,2.9316,2.958,3.0631,3.1771,3.2725,3.3521,3.4419,3.5115,3.5583,3.5728,3.5932,3.6131,3.6563,3.6738,3.6587,3.6506,3.6014,3.5195,3.5067,3.4586,3.3873,3.4255,3.4413,3.4476,3.4505,3.4766,3.5059,3.4946,3.5094,3.5365,0.6714,0.7173,0.7787,0.8623,0.9084,0.9614,1.0438,1.0663,1.0812,1.1186,1.1335,1.1335,1.126,1.126,1.1111,1.0812,1.0443,1.0067,0.9922,1.0293,1.0738,1.1111,1.1484,1.2077,1.2746,1.3046,1.3484,1.4129,1.4129,1.4129,1.4209,1.4209,1.4353,1.4497,1.4713,1.4784,1.4919,1.5267,1.5692,1.6105,1.6691,1.7314,1.7998,1.8607,1.9008,1.9274,1.9539,1.9605,1.9605,1.9605,1.9868,2.0118,2.0118,2.0624,2.1187,2.1565,2.2249,2.2871,2.2992,2.3198,2.3318,2.345,2.3852,2.4261,2.4319,2.531,2.6359,2.7037,2.7825,2.868,2.9633,2.9856,2.994,3.0073,2.9725,2.9083,2.8177,2.7458,2.7025,2.7035,2.8039,2.863,2.8228,2.8971,2.9113,2.8261,2.8427,2.8974,2.9962,3.0739,3.1867,3.3306,3.3843,3.435,3.469,3.5131,3.5362,3.5453,3.5968,3.6266,3.6274,3.6057,3.5597,3.4942,3.4636,3.4116,3.3421,3.3795,3.4012,3.4062,3.425,3.4431,3.4524,3.4588,3.4674,3.4851,0.6338,0.6872,0.7407,0.7557,0.8169,0.8927,0.9841,1.0143,1.0513,1.1335,1.1558,1.1632,1.1484,1.1484,1.1409,1.1186,1.0887,1.0519,1.0143,1.0067,1.0368,1.1037,1.1111,1.1484,1.2224,1.2826,1.3411,1.3912,1.3985,1.4209,1.4353,1.4497,1.4641,1.4776,1.5133,1.5267,1.5338,1.5692,1.5903,1.5903,1.6621,1.6978,1.7107,1.8192,1.8674,1.8798,1.9341,1.9539,1.9539,1.9671,1.9671,1.9671,1.9671,2.0064,2.0582,2.0775,2.1628,2.2482,2.2543,2.3053,2.3628,2.3675,2.3865,2.4008,2.3949,2.4872,2.5905,2.6499,2.7509,2.8421,2.9122,2.9282,2.9184,2.8568,2.8012,2.7525,2.7004,2.6245,2.6076,2.7029,2.7754,2.7926,2.7187,2.815,2.8187,2.66,2.7317,2.8199,2.8993,2.9807,3.1106,3.2992,3.3339,3.3531,3.3786,3.4366,3.4673,3.4673,3.5316,3.5616,3.5525,3.5382,3.4917,3.4224,3.3947,3.3498,3.2947,3.3335,3.3524,3.3579,3.3986,3.4154,3.4221,3.4293,3.4404,3.4611,0.6338,0.6567,0.6945,0.7633,0.8008,0.8694,1.0212,1.0438,1.0738,1.1558,1.1706,1.1706,1.1632,1.1632,1.1632,1.1632,1.1558,1.1335,1.0962,1.0887,1.0962,1.1111,1.1111,1.1409,1.2003,1.2673,1.2966,1.3112,1.3622,1.3977,1.4346,1.4848,1.5275,1.5621,1.5692,1.5692,1.5762,1.6053,1.6202,1.6272,1.67,1.7176,1.7579,1.7774,1.8182,1.8643,1.9177,1.9375,1.9441,1.9868,2.0009,2.0009,2.0009,2.0074,2.027,2.0571,2.1187,2.1865,2.2298,2.2992,2.3675,2.4073,2.4319,2.4447,2.4305,2.4767,2.5421,2.5867,2.6509,2.7333,2.8616,2.8739,2.8711,2.881,2.8203,2.7351,2.6491,2.5742,2.5464,2.5922,2.6772,2.7189,2.6914,2.7736,2.8054,2.7511,2.8125,2.8924,2.968,3.0514,3.113,3.1595,3.2367,3.3093,3.3786,3.402,3.4119,3.4136,3.4673,3.4688,3.4208,3.4074,3.3625,3.3059,3.2774,3.2592,3.2535,3.2947,3.3178,3.3273,3.3343,3.356,3.3895,3.3947,3.4124,3.4358,0.6641,0.6714,0.6865,0.7246,0.7399,0.7855,0.8993,0.9296,0.9825,1.1037,1.1335,1.1484,1.1855,1.1855,1.1855,1.1706,1.1706,1.1632,1.1409,1.1409,1.1409,1.1409,1.1409,1.1706,1.2305,1.2599,1.29,1.3193,1.3484,1.3912,1.4489,1.4776,1.5204,1.5833,1.5982,1.6053,1.6123,1.6482,1.6621,1.6621,1.6839,1.7038,1.7304,1.7569,1.7833,1.8104,1.871,1.8834,1.8967,1.9518,1.9791,1.9987,2.0259,2.0529,2.0711,2.0903,2.1376,2.199,2.2628,2.3065,2.3437,2.3897,2.4073,2.4203,2.4434,2.5124,2.5853,2.6008,2.6786,2.7681,2.8325,2.8058,2.7755,2.7502,2.69,2.6239,2.5551,2.5111,2.5094,2.5702,2.6145,2.6321,2.6321,2.6837,2.703,2.6764,2.7769,2.8683,2.9216,3.0411,3.1132,3.1176,3.1811,3.2342,3.2749,3.3198,3.3459,3.3459,3.407,3.4199,3.3798,3.3376,3.3008,3.2655,3.2187,3.202,3.2109,3.2502,3.2713,3.2795,3.3093,3.3302,3.3476,3.355,3.3797,3.4099,0.6942,0.6942,0.6942,0.6942,0.7019,0.7322,0.8084,0.8385,0.9069,1.0657,1.1037,1.1335,1.2003,1.2077,1.2003,1.1855,1.1855,1.1855,1.1855,1.1855,1.1781,1.1706,1.1706,1.1929,1.2378,1.2378,1.2599,1.3046,1.3193,1.363,1.4266,1.4561,1.5133,1.5833,1.6272,1.6412,1.6482,1.6769,1.6908,1.6908,1.6908,1.6908,1.6968,1.7373,1.7579,1.7638,1.8182,1.8375,1.8519,1.9044,1.9507,1.9977,2.0366,2.0828,2.1233,2.1285,2.1702,2.2249,2.2823,2.3005,2.3198,2.3662,2.378,2.3878,2.4373,2.5156,2.5928,2.6255,2.7035,2.7735,2.7931,2.7506,2.691,2.6105,2.5661,2.5229,2.4687,2.4664,2.4949,2.5819,2.5828,2.577,2.5887,2.6235,2.6328,2.6132,2.7328,2.8281,2.8666,3.0045,3.0925,3.1132,3.1554,3.1799,3.1799,3.2492,3.2788,3.2841,3.3511,3.355,3.3072,3.276,3.2469,3.2106,3.1649,3.1579,3.1783,3.2127,3.2266,3.2317,3.2731,3.2952,3.3063,3.3142,3.3408,3.3743,0.6942,0.7022,0.718,0.718,0.733,0.771,0.8551,0.8699,0.9226,1.0887,1.1111,1.1409,1.2157,1.2305,1.2305,1.2224,1.2224,1.2224,1.2224,1.2224,1.2077,1.1706,1.1706,1.1706,1.1781,1.1781,1.1781,1.1855,1.2378,1.2886,1.331,1.4545,1.5417,1.5833,1.6551,1.6839,1.6839,1.6908,1.6908,1.6908,1.6908,1.6908,1.6908,1.6968,1.7038,1.7304,1.7862,1.8134,1.8405,1.8931,1.9518,2.0096,2.0107,2.0635,2.1285,2.1588,2.1913,2.2235,2.2384,2.2702,2.3017,2.3531,2.3636,2.3731,2.4172,2.4289,2.4758,2.6104,2.6453,2.6713,2.7354,2.7277,2.6714,2.5332,2.5289,2.5097,2.4268,2.4549,2.5064,2.5819,2.5887,2.5887,2.5887,2.6408,2.6736,2.675,2.7353,2.8001,2.8652,2.9506,3.0381,3.1278,3.1597,3.1799,3.1799,3.2094,3.2247,3.2247,3.2949,3.2554,3.1322,3.1868,3.1649,3.0733,3.0908,3.1206,3.1617,3.1783,3.1875,3.193,3.2002,3.2283,3.2654,3.2702,3.297,3.3273,0.7249,0.733,0.7407,0.7407,0.7484,0.7633,0.794,0.794,0.8318,0.9453,0.9604,1.0132,1.1409,1.1558,1.1781,1.2224,1.2305,1.2305,1.2305,1.2305,1.2224,1.2077,1.2077,1.2077,1.2077,1.2077,1.2077,1.2077,1.2305,1.2739,1.3382,1.4394,1.5056,1.5601,1.6301,1.6726,1.6871,1.6871,1.702,1.7254,1.7254,1.7254,1.7254,1.7254,1.7323,1.7392,1.7598,1.7735,1.7872,1.8405,1.8921,1.9431,2.015,2.0741,2.1273,2.1862,2.2123,2.2185,2.2235,2.2359,2.2604,2.3078,2.3185,2.3296,2.3752,2.4351,2.4949,2.5202,2.5769,2.6323,2.6583,2.6022,2.5452,2.5249,2.4689,2.419,2.3852,2.3943,2.4138,2.4465,2.4491,2.4491,2.4609,2.4829,2.506,2.5361,2.5958,2.6491,2.6944,2.813,2.9203,3.0025,3.0658,3.1219,3.1597,3.1826,3.1784,3.1485,3.2237,3.1867,3.0512,3.1182,3.1013,3.0175,3.0243,3.0616,3.1167,3.1206,3.147,3.1856,3.1858,3.2002,3.2179,3.2283,3.2555,3.283,0.7484,0.7484,0.7484,0.7484,0.7484,0.7484,0.7484,0.7484,0.7787,0.8627,0.8703,0.9231,1.0582,1.0726,1.1031,1.1855,1.1929,1.2003,1.2305,1.2378,1.2378,1.2305,1.2305,1.2305,1.2305,1.2305,1.2305,1.2305,1.2378,1.2666,1.3244,1.4034,1.4624,1.5007,1.5851,1.6416,1.6671,1.6759,1.7082,1.747,1.747,1.747,1.747,1.747,1.7529,1.7529,1.7529,1.7598,1.7735,1.8076,1.8519,1.9034,1.9814,2.0409,2.088,2.14,2.1675,2.1862,2.1862,2.1987,2.2247,2.2616,2.2665,2.2837,2.3278,2.4041,2.4596,2.4519,2.5141,2.5677,2.564,2.5036,2.4525,2.4556,2.4042,2.3577,2.3412,2.3518,2.3577,2.3577,2.3636,2.3682,2.38,2.3917,2.415,2.4452,2.5012,2.559,2.6222,2.7313,2.8324,2.9282,2.9903,3.0524,3.1161,3.1655,3.1566,3.101,3.1885,3.1442,2.9923,3.0563,3.0434,2.9657,2.9657,3.0031,3.0599,3.0673,3.101,3.1524,3.162,3.1748,3.1875,3.2001,3.2197,3.2386,0.7484,0.7484,0.7484,0.7484,0.7484,0.7484,0.7484,0.7484,0.7787,0.8627,0.8699,0.8998,0.982,0.9895,1.0196,1.1037,1.1111,1.1409,1.2224,1.2526,1.2526,1.2305,1.2305,1.2305,1.2305,1.2305,1.2305,1.2305,1.2526,1.2599,1.2599,1.3615,1.4129,1.4114,1.5214,1.5934,1.6341,1.6661,1.7082,1.7461,1.747,1.747,1.747,1.747,1.7598,1.7706,1.7706,1.7862,1.8008,1.8008,1.8462,1.8977,1.8977,1.9507,2.0096,2.0096,2.0549,2.106,2.106,2.1651,2.2197,2.2197,2.2197,2.233,2.2859,2.2979,2.3317,2.4347,2.4576,2.4555,2.4502,2.4448,2.4147,2.3056,2.3305,2.3412,2.2969,2.3305,2.3577,2.3577,2.3682,2.38,2.38,2.4221,2.4509,2.4509,2.4794,2.5537,2.6881,2.7102,2.782,2.9254,2.938,2.9813,3.0435,3.1495,3.1663,3.101,3.198,3.1351,2.9443,3.012,2.9909,2.909,2.915,2.9435,2.9903,3.0192,3.0526,3.0914,3.1027,3.1372,3.1783,3.1875,3.1894,3.1912,0.7484,0.7484,0.7484,0.7484,0.7484,0.7561,0.7723,0.7565,0.7714,0.8174,0.8178,0.8403,0.9372,0.9448,0.9825,1.0588,1.0663,1.1037,1.1855,1.2452,1.2746,1.2746,1.2746,1.2746,1.2746,1.2746,1.2746,1.2746,1.2746,1.2826,1.282,1.3457,1.3761,1.3871,1.4214,1.4672,1.5083,1.5178,1.5818,1.6747,1.6968,1.7373,1.7872,1.7872,1.7872,1.793,1.793,1.794,1.8008,1.8008,1.8144,1.8395,1.8844,1.9507,2.0096,2.0096,2.0355,2.0613,2.0613,2.1187,2.1839,2.2123,2.2197,2.2234,2.239,2.2714,2.2983,2.2955,2.3211,2.3481,2.3438,2.3169,2.2911,2.2955,2.2849,2.2653,2.2432,2.2726,2.2909,2.2763,2.2896,2.3078,2.3125,2.3305,2.3424,2.3543,2.359,2.4103,2.4974,2.5184,2.5695,2.6585,2.7257,2.7671,2.7913,2.9941,3.0994,3.101,3.1774,3.1396,3.0135,3.0335,2.9986,2.9304,2.8807,2.8951,2.9406,2.9496,2.9892,3.0485,3.0543,3.0828,3.1317,3.1317,3.1888,3.2634,0.7484,0.7561,0.7642,0.7642,0.7718,0.7795,0.7876,0.7795,0.7795,0.8102,0.803,0.8178,0.8775,0.8851,0.9155,0.9981,1.0288,1.0738,1.1335,1.2077,1.2599,1.2673,1.2973,1.3046,1.29,1.29,1.29,1.29,1.2973,1.2983,1.2855,1.316,1.3338,1.3248,1.3421,1.3824,1.4238,1.4501,1.5111,1.6026,1.6638,1.7148,1.7579,1.7872,1.8008,1.8008,1.8008,1.8008,1.8008,1.8008,1.8076,1.8202,1.8596,1.9054,1.9452,1.9452,1.9781,2.0053,2.0053,2.0624,2.1262,2.1537,2.18,2.1975,2.1975,2.2036,2.2039,2.1984,2.2226,2.2516,2.2856,2.2601,2.248,2.2807,2.2701,2.2494,2.2432,2.2555,2.2678,2.2543,2.2678,2.28,2.2909,2.2969,2.3017,2.3078,2.3078,2.3437,2.4264,2.44,2.4841,2.5597,2.6158,2.6499,2.6788,2.8288,2.9305,2.9798,3.0803,3.0792,2.9925,3.0237,3.0197,2.9797,2.9381,2.9379,2.9673,2.9705,3.0115,3.0677,3.0473,3.0747,3.1182,3.1223,3.1712,3.2394,0.7561,0.7718,0.7804,0.7804,0.7953,0.8102,0.8102,0.8102,0.8106,0.8178,0.8102,0.8102,0.8178,0.8178,0.8475,0.915,0.9981,1.0513,1.0738,1.1484,1.2003,1.215,1.2973,1.3193,1.2826,1.29,1.2973,1.2973,1.3119,1.3049,1.2763,1.2924,1.2819,1.2548,1.2798,1.3138,1.3619,1.4164,1.4696,1.5248,1.6276,1.6724,1.6862,1.751,1.7872,1.7862,1.7862,1.794,1.8008,1.8008,1.8144,1.8337,1.8337,1.8414,1.8482,1.8482,1.9008,1.9539,1.9539,2.0053,2.0571,2.0571,2.0996,2.1491,2.1491,2.1071,2.0752,2.1365,2.1491,2.169,2.242,2.2494,2.2494,2.2494,2.2555,2.2555,2.2616,2.2616,2.2678,2.2678,2.286,2.2909,2.2909,2.3017,2.3078,2.3078,2.3138,2.3485,2.4359,2.4445,2.4813,2.5592,2.5667,2.595,2.6579,2.6639,2.7097,2.8008,2.944,2.9892,2.9394,3.0124,3.0452,3.0505,3.0458,3.0428,3.0428,3.0516,3.0826,3.1179,3.0751,3.0865,3.1331,3.1479,3.1599,3.1764,0.7949,0.8025,0.803,0.803,0.8106,0.8178,0.8327,0.8178,0.8178,0.8551,0.8403,0.8403,0.8551,0.8551,0.8627,0.8851,0.9533,1.0067,1.0067,1.0887,1.1335,1.1335,1.2157,1.2526,1.2452,1.3046,1.3346,1.3346,1.3419,1.3382,1.3302,1.28,1.2723,1.287,1.2223,1.2093,1.2415,1.281,1.3364,1.4095,1.4776,1.5455,1.5956,1.6167,1.6594,1.7148,1.7148,1.751,1.8008,1.8212,1.8337,1.8482,1.8482,1.8482,1.8482,1.8482,1.8741,1.8942,1.8942,1.9584,2.0237,2.0237,2.0291,2.0484,2.0752,2.07,2.0635,2.0764,2.0828,2.0892,2.1019,2.1083,2.1083,2.1083,2.1221,2.14,2.1815,2.2063,2.2384,2.2787,2.2969,2.3078,2.3078,2.3078,2.3078,2.3078,2.3271,2.3441,2.3808,2.394,2.4183,2.4478,2.4491,2.4537,2.4701,2.5154,2.6497,2.8668,2.9566,3.0223,3.0769,3.096,3.1075,3.1151,3.0643,3.0428,3.0428,3.0412,3.0567,3.0725,3.0619,3.0923,3.1421,3.1594,3.2262,3.3159,0.8106,0.8178,0.8255,0.8255,0.8327,0.8403,0.8551,0.8479,0.8479,0.8703,0.8627,0.8551,0.8699,0.8703,0.8703,0.8703,0.9079,0.9311,0.9311,1.0062,1.0513,1.0513,1.1335,1.1706,1.1706,1.2526,1.3119,1.3492,1.3492,1.3411,1.3258,1.2914,1.268,1.2519,1.2014,1.1882,1.1992,1.2387,1.2818,1.3416,1.4261,1.4816,1.5242,1.5604,1.5956,1.6306,1.6306,1.6802,1.7579,1.7998,1.8279,1.8482,1.8482,1.8607,1.8808,1.8808,1.8875,1.8942,1.8942,1.9264,1.9649,1.9649,1.9649,1.9781,2.0237,2.0118,1.9987,2.0302,2.0366,2.0431,2.0752,2.0816,2.0816,2.0816,2.0955,2.1071,2.1313,2.1491,2.1877,2.2445,2.2567,2.275,2.3078,2.3078,2.3138,2.3271,2.333,2.3522,2.37,2.3832,2.3949,2.4112,2.4112,2.4112,2.4112,2.4726,2.5826,2.7584,2.8267,2.9148,3.0217,3.0286,3.0921,3.1828,3.1166,3.1074,3.1366,3.1366,3.142,3.1427,3.117,3.1275,3.1498,3.1765,3.251,3.3501,0.8178,0.8327,0.8479,0.8479,0.8551,0.8703,0.8703,0.8703,0.8703,0.8703,0.8703,0.8703,0.8703,0.8703,0.8703,0.8703,0.8703,0.8703,0.8703,0.9311,0.969,0.969,1.0443,1.0887,1.0887,1.1706,1.2526,1.3273,1.3419,1.336,1.3089,1.3031,1.2716,1.2197,1.2014,1.2,1.2073,1.2409,1.2709,1.3101,1.4047,1.4394,1.4466,1.5108,1.5392,1.5525,1.5534,1.6237,1.7079,1.7588,1.8134,1.8607,1.8472,1.8741,1.9075,1.9075,1.9075,1.9075,1.9075,1.9075,1.9075,1.9075,1.9075,1.9264,1.9781,1.9518,1.9264,1.9846,1.9911,2.0096,2.0677,2.0741,2.0741,2.0741,2.0741,2.0805,2.0933,2.0933,2.1175,2.1865,2.1928,2.2175,2.2689,2.2763,2.2884,2.315,2.321,2.339,2.3832,2.3891,2.3949,2.4112,2.4112,2.4112,2.4112,2.4687,2.5309,2.5959,2.6818,2.7896,2.9116,2.9296,3.0348,3.1891,3.145,3.1597,3.2118,3.2281,3.2398,3.2336,3.1905,3.1743,3.1796,3.1992,3.2578,3.3361,0.8475,0.8627,0.8627,0.8627,0.8703,0.8703,0.8703,0.8703,0.8703,0.8703,0.8703,0.8703,0.8703,0.8703,0.8703,0.8703,0.8703,0.8703,0.8703,0.8775,0.8856,0.8856,0.9614,1.0067,1.0067,1.0887,1.1632,1.2452,1.3193,1.347,1.3426,1.314,1.2958,1.2848,1.2284,1.2189,1.246,1.2504,1.2709,1.3038,1.3504,1.3637,1.363,1.3775,1.4194,1.4744,1.4974,1.6097,1.7501,1.695,1.7774,1.8931,1.825,1.8519,1.9075,1.9075,1.9075,1.9075,1.9075,1.9075,1.9075,1.9075,1.9075,1.9131,1.9198,1.9198,1.9131,1.9198,1.9264,1.9264,1.933,1.9396,1.9396,1.9396,1.9396,1.9584,2.0161,2.0237,2.0484,2.1187,2.125,2.125,2.1376,2.1376,2.1628,2.2237,2.2433,2.2871,2.3628,2.3819,2.3949,2.4112,2.4112,2.4112,2.4112,2.4687,2.5082,2.5322,2.6626,2.7925,2.9305,2.9363,2.9624,3.0,3.0466,3.079,3.091,3.1986,3.2398,3.2382,3.229,3.2314,3.2314,3.2439,3.2788,3.315,0.8165,0.847,0.8703,0.8703,0.8703,0.8703,0.8703,0.8703,0.8703,0.8703,0.8703,0.8703,0.8703,0.8703,0.8703,0.8703,0.8703,0.8703,0.8703,0.8703,0.8703,0.8703,0.9003,0.9236,0.9236,0.9986,1.0594,1.0962,1.2231,1.3046,1.3492,1.3353,1.3184,1.2994,1.2709,1.2658,1.2797,1.2935,1.3057,1.3294,1.3715,1.3783,1.3645,1.3775,1.4057,1.4402,1.4911,1.5613,1.6315,1.6385,1.701,1.7696,1.7842,1.8104,1.8586,1.8998,1.9075,1.9075,1.9075,1.9075,1.9075,1.9075,1.9075,1.9075,1.9075,1.9075,1.9075,1.9075,1.9075,1.9075,1.9075,1.9075,1.9075,1.9075,1.9075,1.9198,1.9518,1.9518,1.9781,2.0484,2.0869,2.1123,2.1123,2.1123,2.125,2.169,2.1865,2.2187,2.2628,2.2811,2.3113,2.3531,2.3531,2.3875,2.4596,2.5158,2.5664,2.6166,2.7061,2.7963,2.8771,2.8535,2.8857,2.9609,2.9189,2.9404,3.0083,3.0592,3.1234,3.1879,3.1879,3.2176,3.2523,3.2578,3.2812,3.3112]},{"header":{"parameterUnit":"m.s-1","parameterCategory":1,"la1":30.6,"la2":28.766,"lo1":-90.7593,"lo2":-88.6598,"dy":0.0162,"dx":0.0183,"nx":116,"ny":114,"refTime":"2023-05-26T12:00:00:Z","depth":0,"parameterNumber":3,"parameterNumberName":"V-component_of_WINDS"},"data":[0.0,0.0,0.0,0.0,0.0,0.0,0.0,0.0,0.0,0.0,0.0,0.0,0.0,0.0,0.0,0.0,0.0,0.0,0.0,0.0,0.0,0.0,0.0,0.0,0.0,0.0,0.0,0.0,0.0,0.0,0.0,0.0,0.0,0.0,0.0,0.0,0.0,0.0,0.0,0.0,0.0,0.0,0.0,0.0,0.0,0.0,0.0,0.0,0.0,0.0,0.0,0.0,0.0,0.0,0.0,0.0,0.0,0.0,0.0,0.0,0.0,0.0,0.0,0.0,0.0,0.0,0.0,0.0,0.0,0.0,0.0,0.0,0.0,0.0,0.0,0.0,0.0,0.0,0.0,0.0,0.0,0.0,0.0,0.0,0.0,0.0,0.0,0.0,0.0,0.0,0.0,0.0,0.0,0.0,0.0,0.0,0.0,0.0,0.0,0.0,0.0,0.0,0.0,0.0,0.0,0.0,0.0,0.0,0.0,0.0,0.0,0.0,0.0,0.0,0.0,0.0,0.0,0.0,0.0,0.0,0.0,0.0,0.0,0.0,0.0,0.0,0.0,0.0,0.0,0.0,0.0,0.0,0.0,0.0,0.0,0.0,0.0,0.0,0.0,0.0,0.0,0.0,0.0,0.0,0.0,0.0,0.0,0.0,0.0,0.0,0.0,0.0,0.0,0.0,0.0,0.0,0.0,0.0,0.0,0.0,0.0,0.0,0.0,0.0,0.0,0.0,0.0,0.0,0.0,0.0,0.0,0.0,0.0,0.0,0.0,0.0,0.0,0.0,0.0,0.0,0.0,0.0,0.0,0.0,0.0,0.0,0.0,0.0,0.0,0.0,0.0,0.0,0.0,0.0,0.0,0.0,0.0,0.0,0.0,0.0,0.0,0.0,0.0,0.0,0.0,0.0,0.0,0.0,0.0,0.0,0.0,0.0,0.0,0.0,0.0,0.0,0.0,0.0,0.0,0.0,0.0,0.0,0.0,0.0,0.0,0.0,0.0,0.0,0.0,0.0,0.0,0.0,0.0,0.0,0.0,0.0,0.0,0.0,0.0,0.0,0.0,0.0,0.0,0.0,0.0,0.0,0.0,0.0,0.0,0.0,0.0,0.0,0.0,0.0,0.0,0.0,0.0,0.0,0.0,0.0,0.0,0.0,0.0,0.0,0.0,0.0,0.0,0.0,0.0,0.0,0.0,0.0,0.0,0.0,0.0,0.0,0.0,0.0,0.0,0.0,0.0,0.0,0.0,0.0,0.0,0.0,0.0,0.0,0.0,0.0,0.0,0.0,0.0,0.0,0.0,0.0,0.0,0.0,0.0,0.0,0.0,0.0,0.0,0.0,0.0,0.0,0.0,0.0,0.0,0.0,0.0,0.0,0.0,0.0,0.0,0.0,0.0,0.0,0.0,0.0,0.0,0.0,0.0,0.0,0.0,0.0,0.0,0.0,0.0,0.0,0.0,0.0,0.0,0.0,0.0,0.0,0.0,0.0,0.0,0.0,0.0,0.0,0.0,0.0,0.0,0.0,0.0,0.0,0.0,0.0,0.0,0.0,0.0,0.0,0.0,0.0,0.0,0.0,0.0,0.0,0.0,0.0,0.0,0.0,0.0,0.0,0.0,0.0,0.0,0.0,0.0,0.0,0.0,0.0,0.0,0.0,0.0,0.0,0.0,0.0,0.0,0.0,0.0,0.0,0.0,0.0,0.0,0.0,0.0,0.0,0.0,0.0,0.0,0.0,0.0,0.0,0.0,0.0,0.0,0.0,0.0,0.0,0.0,0.0,0.0,0.0,0.0,0.0,0.0,0.0,0.0,0.0,0.0,0.0,0.0,0.0,0.0,0.0,0.0,0.0,0.0,0.0,0.0,0.0,0.0,0.0,0.0,0.0,0.0,0.0,0.0,0.0,0.0,0.0,0.0,0.0,0.0,0.0,0.0,0.0,0.0,0.0,0.0,0.0,0.0,0.0,0.0,0.0,0.0,0.0,0.0,0.0,0.0,0.0,0.0,0.0,0.0,0.0,0.0,0.0,0.0,0.0,0.0,0.0,0.0,0.0,0.0,0.0,0.0,0.0,0.0,0.0,0.0,0.0,0.0,0.0,0.0,0.0,0.0,0.0,0.0,0.0,0.0,0.0,0.0,0.0,0.0,0.0,0.0,0.0,0.0,0.0,0.0,0.0,0.0,0.0,0.0,0.0,0.0,0.0,0.0,0.0,0.0,0.0,0.0,0.0,0.0,0.0,0.0,0.0,0.0,0.0,0.0,0.0,0.0,0.0,0.0,0.0,0.0,0.0,0.0,0.0,0.0,0.0,0.0,0.0,0.0,0.0,0.0,0.0,0.0,0.0,0.0,0.0,0.0,0.0,0.0,0.0,0.0,0.0,0.0,0.0,0.0,0.0,0.0,0.0,0.0,0.0,0.0,0.0,0.0,0.0,0.0,0.0,0.0,0.0,0.0,0.0,0.0,0.0,0.0,0.0,0.0,0.0,0.0,0.0,0.0,0.0,0.0,0.0,0.0,0.0,0.0,0.0,0.0,0.0,0.0,0.0,0.0,0.0,0.0,0.0,0.0,0.0,0.0,0.0,0.0,0.0,0.0,0.0,0.0,0.0,0.0,0.0,0.0,0.0,0.0,0.0,0.0,0.0,0.0,0.0,0.0,0.0,0.0,0.0,0.0,0.0,0.0,0.0,0.0,0.0,0.0,0.0,0.0,0.0,0.0,0.0,0.0,0.0,0.0,0.0,0.0,0.0,0.0,0.0,0.0,0.0,0.0,0.0,0.0,0.0,0.0,0.0,0.0,0.0,0.0,0.0,0.0,0.0,0.0,0.0,0.0,0.0,0.0,0.0,0.0,0.0,0.0,0.0,0.0,0.0,0.0,0.0,0.0,0.0,0.0,0.0,0.0,0.0,0.0,0.0,0.0,0.0,0.0,0.0,0.0,0.0,0.0,0.0,0.0,0.0,0.0,0.0,0.0,0.0,0.0,0.0,0.0,0.0,0.0,0.0,0.0,0.0,0.0,0.0,0.0,0.0,0.0,0.0,0.0,0.0,0.0,0.0,0.0,0.0,0.0,0.0,0.0,0.0,0.0,0.0,0.0,0.0,0.0,0.0,0.0,0.0,0.0,0.0,0.0,0.0,0.0,0.0,0.0,0.0,0.0,0.0,0.0,0.0,0.0,0.0,0.0,0.0,0.0,0.0,0.0,0.0,0.0,0.0,0.0,0.0,0.0,0.0,0.0,0.0,0.0,0.0,0.0,0.0,0.0,0.0,0.0,0.0,0.0,0.0,0.0,0.0,0.0,0.0,0.0,0.0,0.0,0.0,0.0,0.0,0.0,0.0,0.0,0.0,0.0,0.0,0.0,0.0,0.0,0.0,0.0,0.0,0.0,0.0,0.0,0.0,0.0,0.0,0.0,0.0,0.0,0.0,0.0,0.0,0.0,0.0,0.0,0.0,0.0,0.0,0.0,0.0,0.0,0.0,0.0,0.0,0.0,0.0,0.0,0.0,0.0,0.0,0.0,0.0,0.0,0.0,0.0,0.0,0.0,0.0,0.0,0.0,0.0,0.0,0.0,0.0,0.0,0.0,0.0,0.0,0.0,0.0,0.0,0.0,0.0,0.0,0.0,0.0,0.0,0.0,0.0,0.0,0.0,0.0,0.0,0.0,0.0,0.0,0.0,0.0,0.0,0.0,0.0,0.0,0.0,0.0,0.0,0.0,0.0,0.0,0.0,0.0,0.0,0.0,0.0,0.0,0.0,0.0,0.0,0.0,0.0,0.0,0.0,0.0,0.0,0.0,0.0,0.0,0.0,0.0,0.0,0.0,0.0,0.0,0.0,0.0,0.0,0.0,0.0,0.0,0.0,0.0,0.0,0.0,0.0,0.0,0.0,0.0,0.0,0.0,0.0,0.0,0.0,0.0,0.0,0.0,0.0,0.0,0.0,0.0,0.0,0.0,0.0,0.0,0.0,0.0,0.0,0.0,0.0,0.0,0.0,0.0,0.0,0.0,0.0,0.0,0.0,0.0,0.0,0.0,0.0,0.0,0.0,0.0,0.0,0.0,0.0,0.0,0.0,0.0,0.0,0.0,0.0,0.0,0.0,0.0,0.0,0.0,0.0,0.0,0.0,0.0,0.0,0.0,0.0,0.0,0.0,0.0,0.0,0.0,0.0,0.0,0.0,0.0,0.0,0.0,0.0,0.0,0.0,0.0,0.0,0.0,0.0,0.0,0.0,0.0,0.0,0.0,0.0,0.0,0.0,0.0,0.0,0.0,0.0,0.0,0.0,0.0,0.0,0.0,0.0,0.0,0.0,0.0,0.0,0.0,0.0,0.0,0.0,0.0,0.0,0.0,0.0,0.0,0.0,0.0,0.0,0.0,0.0,0.0,0.0,0.0,0.0,0.0,0.0,0.0,0.0,0.0,0.0,0.0,0.0,0.0,0.0,0.0,0.0,0.0,0.0,0.0,0.0,0.0,0.0,0.0,0.0,0.0,0.0,0.0,0.0,0.0,0.0,0.0,0.0,0.0,0.0,0.0,0.0,0.0,0.0,0.0,0.0,0.0,0.0,0.0,0.0,0.0,0.0,0.0,0.0,0.0,0.0,0.0,0.0,0.0,0.0,0.0,0.0,0.0,0.0,0.0,0.0,0.0,0.0,0.0,0.0,0.0,0.0,0.0,0.0,0.0,0.0,0.0,0.0,0.0,0.0,0.0,0.0,0.0,0.0,0.0,0.0,0.0,0.0,0.0,0.0,0.0,0.0,0.0,0.0,0.0,0.0,0.0,0.0,0.0,0.0,0.0,0.0,0.0,0.0,0.0,0.0,0.0,0.0,0.0,0.0,0.0,0.0,0.0,0.0,0.0,0.0,0.0,0.0,0.0,0.0,0.0,0.0,0.0,0.0,0.0,0.0,0.0,0.0,0.0,0.0,0.0,0.0,0.0,0.0,0.0,0.0,0.0,0.0,0.0,0.0,0.0,0.0,0.0,0.0,0.0,0.0,0.0,0.0,0.0,0.0,0.0,0.0,0.0,0.0,0.0,0.0,0.0,0.0,0.0,0.0,0.0,0.0,0.0,0.0,0.0,0.0,0.0,0.0,0.0,0.0,0.0,0.0,0.0,0.0,0.0,0.0,0.0,0.0,0.0,0.0,0.0,0.0,0.0,0.0,0.0,0.0,0.0,0.0,0.0,0.0,0.0,0.0,0.0,0.0,0.0,0.0,0.0,0.0,0.0,0.0,0.0,0.0,0.0,0.0,0.0,0.0,0.0,0.0,0.0,0.0,0.0,0.0,0.0,0.0,0.0,0.0,0.0,0.0,0.0,0.0,0.0,0.0,0.0,0.0,0.0,0.0,0.0,0.0,0.0,0.0,0.0,0.0,0.0,0.0,0.0,0.0,0.0,0.0,0.0,0.0,0.0,0.0,0.0,0.0,0.0,0.0,0.0,0.0,0.0,0.0,0.0,0.0,0.0,0.0,0.0,0.0,0.0,0.0,0.0,0.0,0.0,0.0,0.0,0.0,0.0,0.0,0.0,0.0,0.0,0.0,0.0,0.0,0.0,0.0,0.0,0.0,0.0,0.0,0.0,0.0,0.0,0.0,0.0,0.0,0.0,0.0,0.0,0.0,0.0,0.0,0.0,0.0,0.0,0.0,0.0,0.0,0.0,0.0,0.0,0.0,0.0,0.0,0.0,0.0,0.0,0.0,0.0,0.0,0.0,0.0,0.0,0.0,0.0,0.0,0.0,0.0,0.0,0.0,0.0,0.0,0.0,0.0,0.0,0.0,0.0,0.0,0.0,0.0,0.0,0.0,0.0,0.0,0.0,0.0,0.0,0.0,0.0,0.0,0.0,0.0,0.0,0.0,0.0,0.0,0.0,0.0,0.0,0.0,0.0,0.0,0.0,0.0,0.0,0.0,0.0,0.0,0.0,0.0,0.0,0.0,0.0,0.0,0.0,0.0,0.0,0.0,0.0,0.0,0.0,0.0,0.0,0.0,0.0,0.0,0.0,0.0,0.0,0.0,0.0,0.0,0.0,0.0,0.0,0.0,0.0,0.0,0.0,0.0,0.0,0.0,0.0,-1.6252,-1.6124,0.0,0.0,0.0,0.0,0.0,0.0,0.0,0.0,0.0,0.0,0.0,0.0,0.0,0.0,0.0,0.0,0.0,0.0,0.0,0.0,0.0,0.0,0.0,0.0,0.0,0.0,0.0,0.0,0.0,0.0,0.0,0.0,0.0,0.0,0.0,0.0,0.0,0.0,0.0,0.0,0.0,0.0,0.0,0.0,0.0,0.0,0.0,0.0,0.0,0.0,0.0,0.0,0.0,0.0,0.0,0.0,0.0,0.0,0.0,0.0,0.0,0.0,0.0,0.0,0.0,0.0,0.0,0.0,0.0,0.0,0.0,0.0,0.0,0.0,0.0,0.0,0.0,0.0,0.0,0.0,0.0,0.0,0.0,0.0,0.0,0.0,0.0,0.0,0.0,0.0,0.0,0.0,0.0,0.0,0.0,0.0,0.0,0.0,0.0,0.0,0.0,0.0,0.0,0.0,0.0,0.0,0.0,0.0,0.0,0.0,0.0,0.0,0.0,0.0,-1.739,-1.7067,0.0,0.0,0.0,0.0,0.0,0.0,0.0,0.0,0.0,0.0,0.0,0.0,0.0,0.0,0.0,0.0,0.0,0.0,0.0,0.0,0.0,0.0,0.0,0.0,0.0,0.0,0.0,0.0,0.0,0.0,0.0,0.0,0.0,0.0,0.0,0.0,0.0,0.0,0.0,0.0,0.0,0.0,0.0,0.0,0.0,0.0,0.0,0.0,0.0,0.0,0.0,0.0,0.0,0.0,0.0,0.0,0.0,0.0,0.0,0.0,0.0,0.0,0.0,0.0,0.0,0.0,0.0,0.0,0.0,0.0,0.0,0.0,0.0,0.0,0.0,0.0,0.0,0.0,0.0,0.0,0.0,0.0,0.0,0.0,0.0,0.0,0.0,0.0,0.0,0.0,0.0,0.0,0.0,0.0,0.0,0.0,0.0,0.0,0.0,0.0,0.0,0.0,0.0,0.0,0.0,0.0,0.0,0.0,-1.9579,-1.9683,-1.9683,-1.9683,-1.9579,-1.9384,-1.8643,-1.817,-1.8018,-1.7722,0.0,0.0,0.0,0.0,0.0,0.0,0.0,0.0,0.0,0.0,0.0,0.0,0.0,0.0,0.0,0.0,0.0,0.0,0.0,0.0,0.0,0.0,0.0,0.0,0.0,0.0,0.0,0.0,0.0,0.0,0.0,0.0,0.0,0.0,0.0,0.0,0.0,0.0,-0.6215,-0.8438,-0.9708,-1.0068,-0.994,0.0,0.0,0.0,0.0,0.0,0.0,0.0,0.0,0.0,0.0,0.0,0.0,0.0,0.0,0.0,0.0,0.0,0.0,0.0,0.0,0.0,0.0,0.0,0.0,0.0,0.0,0.0,0.0,0.0,0.0,0.0,0.0,0.0,0.0,0.0,0.0,0.0,0.0,0.0,0.0,0.0,0.0,0.0,-1.5303,-1.5975,0.0,0.0,0.0,0.0,0.0,0.0,0.0,0.0,0.0,0.0,0.0,0.0,0.0,-2.0547,-2.0547,-2.0459,-2.0646,-2.1064,-2.0881,-2.0782,-2.0782,-2.0782,-2.0597,-2.022,-2.0016,0.0,-1.8506,-1.8441,0.0,0.0,0.0,0.0,0.0,0.0,0.0,0.0,0.0,0.0,0.0,0.0,0.0,0.0,0.0,0.0,0.0,0.0,0.0,0.0,0.0,0.0,0.0,0.0,0.0,0.0,0.0,0.0,0.0,0.0,0.0,0.0,0.0,0.0,0.0,0.0,-0.4014,-0.5782,-0.6549,-0.933,-1.0917,-1.1455,-1.2183,-1.2357,-1.2089,-1.2408,0.0,0.0,0.0,0.0,0.0,0.0,0.0,0.0,0.0,0.0,0.0,0.0,0.0,0.0,0.0,0.0,0.0,0.0,0.0,0.0,0.0,0.0,0.0,0.0,0.0,0.0,0.0,0.0,0.0,0.0,0.0,0.0,0.0,0.0,0.0,0.0,0.0,0.0,0.0,-1.583,-1.6925,-1.7478,-1.7546,-1.7765,0.0,0.0,0.0,0.0,0.0,0.0,0.0,0.0,0.0,-2.0839,-2.1164,-2.1348,-2.1348,-2.1299,-2.1396,-2.1636,-2.1492,-2.1444,-2.1444,-2.1444,-2.1215,-2.0822,-2.0709,-2.0258,-1.9592,-1.9291,-1.9028,-1.8815,0.0,0.0,0.0,0.0,-1.9643,-2.0346,0.0,0.0,0.0,0.0,0.0,0.0,0.0,0.0,0.0,0.0,0.0,0.0,0.0,0.0,0.0,0.0422,0.0,0.0,0.0,0.0,0.0,0.0,0.0,0.0,0.0,0.0,0.0,0.0,-0.3015,-0.5013,-0.6569,-0.9981,-1.1663,-1.191,-1.3614,-1.418,-1.3839,-1.4192,-1.4374,0.0,0.0,0.0,0.0,0.0,0.0,0.0,0.0,0.0,0.0,0.0,0.0,0.0,0.0,0.0,0.0,0.0,0.0,0.0,0.0,0.0,0.0,0.0,0.0,0.0,0.0,0.0,0.0,0.0,0.0,0.0,0.0,0.0,0.0,0.0,0.0,0.0,0.0,-1.7456,-1.8412,-1.8943,-1.8944,-1.9164,0.0,0.0,0.0,0.0,0.0,0.0,-2.1116,-2.1732,-2.203,-2.1935,-2.203,-2.2077,-2.2077,-2.2016,-2.203,-2.217,-2.2077,-2.203,-2.203,-2.215,-2.198,-2.1556,-2.1444,-2.1183,-2.0731,-2.0028,-1.9656,-1.9448,-1.9291,-1.9279,-1.9451,-1.9423,-1.9991,-2.067,0.0,0.0,0.0,0.0,0.0,0.0,0.0,0.0,0.0,0.0,0.0,0.0,0.0,0.0,0.0747,0.1472,0.1691,0.1787,0.0,0.0,0.0,0.0,0.0,0.0,0.0,0.0,0.0,0.0059,-0.2456,-0.4351,-0.5751,-0.9911,-1.1602,-1.115,-1.3541,-1.4328,-1.3946,-1.4393,-1.4712,-1.4829,0.0,0.0,0.0,0.0,0.0,0.0,0.0,0.0,0.0,0.0,0.0,0.0,0.0,0.0,0.0,0.0,0.0,0.0,0.0,0.0,0.0,0.0,0.0,0.0,0.0,0.0,0.0,0.0,0.0,0.0,0.0,0.0,0.0,0.0,0.0,0.0,0.0,0.0,0.0,-2.0206,-2.0372,0.0,0.0,0.0,0.0,-2.1161,-2.1451,-2.1914,-2.2577,-2.2725,-2.2844,-2.2844,-2.2844,-2.2844,-2.2844,-2.2603,-2.2694,-2.3231,-2.2844,-2.2649,-2.2678,-2.3169,-2.3055,-2.2465,-2.2492,-2.2241,-2.1716,-2.0604,-2.0182,-2.0131,-1.9862,-1.9747,-1.985,-2.0497,-2.0746,-2.0894,0.0,0.0,0.0,0.0,0.0,0.0,0.0,0.0,0.0,0.0,0.0,0.0,0.0,0.1665,0.1721,0.2126,0.2198,0.2159,0.2034,0.0,0.0,0.0,0.0,0.0,0.0,0.0,0.329,0.1758,0.0777,-0.1244,-0.4353,-0.8034,-1.0213,-1.1132,-1.3762,-1.4731,-1.4461,-1.513,-1.5362,-1.5269,-1.5648,-1.5164,0.0,0.0,0.0,0.0,0.0,0.0,0.0,0.0,0.0,0.0,0.0,0.0,0.0,0.0,0.0,0.0,0.0,0.0,0.0,0.0,0.0,0.0,0.0,0.0,0.0,0.0,0.0,0.0,0.0,0.0,0.0,0.0,0.0,0.0,0.0,0.0,0.0,-2.1582,-2.1778,0.0,-2.2408,-2.2161,-2.2206,-2.2732,-2.2747,-2.2893,-2.3275,-2.3334,-2.3334,-2.3334,-2.3334,-2.3348,-2.3275,-2.3172,-2.3216,-2.3319,-2.3127,-2.3083,-2.3098,-2.3211,-2.3022,-2.2621,-2.2317,-2.2248,-2.2241,-2.1468,-2.081,-2.0271,-2.0029,-2.0067,-2.0308,-2.0372,-2.0858,-2.1458,0.0,0.0,0.0,0.0,0.0,0.0,0.0,0.0,0.0,0.0,0.0,0.1242,0.2095,0.2193,0.2257,0.2516,0.2447,0.2392,0.2488,0.0,0.0,0.0,0.0,0.0,0.0,0.4591,0.4656,0.4024,0.2803,0.0405,-0.3007,-0.6344,-0.8868,-1.0655,-1.327,-1.441,-1.4461,-1.5204,-1.5552,-1.5612,-1.6556,-1.6447,-1.5543,0.0,0.0,0.0,0.0,0.0,0.0,0.0,0.0,0.0,0.0,0.0,0.0,0.0,0.0,0.0,0.0,0.0,0.0,0.0,0.0,0.0,0.0,0.0,0.0,0.0,0.0,0.0,0.0,0.0,0.0,0.0,0.0,0.0,0.0,-2.1677,-2.2249,-2.2374,-2.2785,-2.3113,-2.3216,-2.326,-2.3392,-2.3696,-2.3625,-2.3581,-2.3739,-2.3739,-2.3739,-2.3739,-2.3739,-2.3711,-2.3683,-2.3683,-2.3581,-2.3494,-2.3436,-2.3407,-2.3378,-2.3422,-2.3283,-2.2979,-2.2621,-2.2478,-2.2492,-2.18,-2.1077,-2.0536,-2.0451,-2.063,-2.0847,-2.0701,-2.1118,-2.1746,0.0,0.0,0.0,0.0,0.0,0.0,0.0,0.0,0.0,0.0,0.1736,0.1851,0.2274,0.2217,0.2257,0.2581,0.2629,0.2728,0.3001,0.3074,0.0,0.0,0.0,0.0,0.4193,0.4912,0.5734,0.6634,0.3258,0.0511,-0.181,-0.4983,-0.7644,-0.9717,-1.2067,-1.3358,-1.3863,-1.4618,-1.525,-1.5891,-1.6863,-1.726,-1.7093,0.0,0.0,0.0,0.0,0.0,0.0,0.0,0.0,0.0,0.0,0.0,0.0,0.0,0.0,0.0,0.0,0.0,0.0,0.0,0.0,0.0,0.0,0.0,0.0,0.0,0.0,0.0,0.0,0.0,0.0,0.0,0.0,0.0,-2.2335,-2.277,-2.2979,-2.2603,-2.329,-2.361,-2.3172,-2.3668,-2.4024,-2.4024,-2.4024,-2.4024,-2.4024,-2.4024,-2.4024,-2.4024,-2.4024,-2.4024,-2.4024,-2.4024,-2.394,-2.3797,-2.3653,-2.3566,-2.3524,-2.3969,-2.3973,-2.3564,-2.3359,-2.3069,-2.2614,-2.1498,-2.0961,-2.0914,-2.1173,-2.1289,-2.1264,-2.148,-2.1554,-2.1698,0.0,0.0,0.0,0.0,0.0,0.0,0.0,0.0,0.0,0.0,0.1531,0.1771,0.2403,0.2471,0.2643,0.3093,0.2948,0.3023,0.3353,0.0,0.0,0.0,0.0,0.0,0.468,0.5178,0.5303,0.5085,0.478,0.3088,0.011,-0.2939,-0.567,-0.8249,-1.1749,-1.365,-1.4198,-1.4807,-1.5235,-1.5549,-1.576,-1.6439,-1.7109,0.0,0.0,0.0,0.0,0.0,0.0,0.0,0.0,0.0,0.0,0.0,0.0,0.0,0.0,0.0,0.0,0.0,0.0,0.0,0.0,0.0,0.0,0.0,0.0,0.0,0.0,0.0,0.0,0.0,0.0,0.0,-2.3067,-2.3546,-2.3289,-2.3493,-2.3623,-2.3465,-2.3754,-2.3925,-2.3809,-2.4204,-2.4385,-2.4374,-2.4359,-2.4317,-2.4219,-2.4234,-2.4234,-2.4234,-2.4234,-2.4193,-2.4166,-2.4166,-2.4082,-2.394,-2.3925,-2.3839,-2.3711,-2.3746,-2.3615,-2.3361,-2.3028,-2.2914,-2.2916,-2.2369,-2.2194,-2.2297,-2.1159,-2.063,-2.0502,-2.0537,-2.1019,-2.1698,0.0,0.0,0.0,0.0,0.0,0.0,0.0,0.0,0.0,0.0,0.209,0.2352,0.2697,0.2808,0.2951,0.3164,0.3206,0.3273,0.3342,0.0,0.0,0.0,0.0,0.4349,0.4897,0.533,0.5394,0.5018,0.529,0.4047,0.1352,-0.1543,-0.474,-0.8208,-1.0993,-1.289,-1.4039,-1.4435,-1.4829,-1.5112,-1.4987,-1.5431,-1.6047,-1.5719,-1.6159,-1.6774,-1.5647,-1.5405,-1.5604,-1.5604,0.0,0.0,0.0,0.0,0.0,0.0,0.0,0.0,0.0,0.0,0.0,0.0,0.0,0.0,0.0,0.0,0.0,0.0,0.0,0.0,0.0,0.0,0.0,0.0,-2.4276,-2.458,-2.4417,-2.4246,-2.3979,-2.3566,-2.3824,-2.3994,-2.3809,-2.4245,-2.4564,-2.4523,-2.4441,-2.44,-2.4359,-2.4317,-2.4302,-2.4302,-2.4302,-2.4276,-2.425,-2.425,-2.4208,-2.4082,-2.4082,-2.3982,-2.3797,-2.3739,-2.3523,-2.3275,-2.2934,-2.2755,-2.2698,-2.2311,-2.2169,-2.2172,0.0,0.0,0.0,0.0,-2.1541,-2.2388,0.0,0.0,0.0,0.0,0.0,0.0,0.0,0.0,0.0,0.0,0.0,0.323,0.3179,0.3262,0.3292,0.307,0.3275,0.3412,0.0,0.0,0.0,0.4011,0.433,0.4598,0.4871,0.5297,0.5517,0.5626,0.5144,0.402,0.2198,-0.075,-0.4439,-0.8521,-0.9907,-1.1656,-1.356,-1.3914,-1.4321,-1.4727,-1.4616,-1.448,-1.457,-1.6297,-1.6752,-1.6373,-1.632,-1.6117,-1.5923,-1.587,0.0,0.0,0.0,0.0,0.0,0.0,0.0,0.0,0.0,0.0,0.0,0.0,0.0,0.0,0.0,0.0,0.0,0.0,0.0,0.0,0.0,0.0,0.0,0.0,-2.5271,-2.5346,-2.5497,-2.4843,-2.4105,-2.3304,-2.3859,-2.4104,-2.3508,-2.4197,-2.4657,-2.4645,-2.4426,-2.44,-2.4498,-2.4359,0.0,0.0,0.0,-2.4302,-2.4302,-2.4302,-2.4276,-2.4208,-2.4208,-2.4067,-2.3839,-2.3839,-2.3625,-2.3275,-2.3038,-2.2678,-2.2184,-2.1793,-2.1471,-2.1184,-2.1517,-2.1614,-2.1599,-2.1856,-2.2402,-2.3083,0.0,0.0,0.0,0.0,0.0,0.0,0.0,0.0,0.0,0.3319,0.3613,0.3719,0.3478,0.3608,0.3554,0.3271,0.3223,0.3359,0.0,0.0,0.3937,0.4279,0.4302,0.4359,0.4643,0.4808,0.4746,0.4525,0.483,0.432,0.2986,-0.0773,-0.3711,-0.5956,-0.8699,-1.118,-1.3243,-1.4084,-1.4657,-1.5003,-1.4795,-1.4463,-1.4136,-1.4763,-1.5569,-1.6353,-1.5804,-1.5731,-1.5863,-1.5776,-1.5467,-1.5054,-1.4999,0.0,0.0,0.0,0.0,0.0,0.0,0.0,0.0,0.0,0.0,0.0,0.0,0.0,0.0,0.0,0.0,0.0,0.0,0.0,0.0,-2.5082,-2.5543,-2.5835,-2.5754,-2.4927,-2.4177,-2.3696,-2.4923,-2.5299,-2.4085,-2.5004,-2.546,-2.4813,-2.4645,-2.4523,-2.4498,-2.4359,-2.4302,-2.4302,-2.4302,-2.4302,-2.4302,-2.4302,-2.4302,-2.4276,-2.4276,0.0,-2.3982,-2.3982,-2.3711,-2.3319,-2.3275,-2.2814,-2.2184,-2.2137,-2.1664,-2.1059,-2.1043,-2.0996,-2.0957,-2.122,-2.1458,-2.165,0.0,0.0,0.0,0.0,0.0,0.0,0.0,0.0,0.0,0.0,0.4115,0.4198,0.3903,0.3784,0.37,0.3526,0.3362,0.0,0.0,0.3873,0.3957,0.4076,0.4201,0.4352,0.44,0.4502,0.4519,0.4409,0.4429,0.4293,0.3949,0.0122,-0.3215,-0.6086,-0.8113,-1.0376,-1.2671,-1.3559,-1.4241,-1.4827,-1.4846,-1.4838,-1.4649,-1.4179,-1.4276,-1.4657,-1.4907,-1.5162,-1.542,-1.5264,-1.5206,-1.506,-1.5003,-1.4791,-1.4523,0.0,0.0,0.0,0.0,0.0,0.0,0.0,0.0,0.0,0.0,0.0,0.0,0.0,0.0,-2.3397,-2.4343,0.0,-2.6533,-2.6435,-2.6671,-2.6848,-2.6629,-2.6041,-2.5393,-2.4792,-2.4836,-2.4969,-2.5144,-2.5137,-2.5243,-2.5381,-2.4889,-2.4564,-2.4564,-2.44,-2.4302,-2.4302,-2.4302,-2.4302,-2.4302,-2.4302,-2.4302,-2.4302,-2.4276,-2.4151,-2.3982,-2.3839,-2.3625,-2.3275,-2.3083,-2.2723,-2.2184,-2.1841,-2.1423,-2.0997,-2.0938,-2.0974,-2.1082,-2.1229,-2.1458,-2.1684,0.0,0.0,0.0,0.0,0.0,0.0,0.0,0.0,0.0,0.0,0.467,0.4663,0.4392,0.4148,0.3856,0.0,0.0,0.0,0.0,0.3873,0.3895,0.3797,0.4111,0.4215,0.4092,0.4232,0.4278,0.4397,0.3954,0.3926,0.415,0.088,-0.2817,-0.6858,-0.7654,-0.9397,-1.1891,-1.2772,-1.3556,-1.4158,-1.4531,-1.4745,-1.4731,-1.3765,-1.3004,-1.2608,-1.3728,-1.4251,-1.4436,-1.451,-1.4634,-1.4749,-1.4765,-1.4793,-1.4669,-1.4324,-1.4232,0.0,0.0,0.0,0.0,0.0,0.0,0.0,0.0,-2.009,-2.1559,-2.343,-2.4332,-2.5062,-2.6152,-2.7279,-2.7971,-2.7576,-2.7654,-2.7703,-2.7489,-2.7133,-2.6716,-2.6223,-2.5168,-2.4927,-2.6047,-2.5321,-2.5098,-2.5837,-2.5092,-2.458,-2.4589,-2.4426,-2.4317,-2.4302,-2.4302,-2.4302,-2.4302,-2.4302,-2.4302,-2.4276,-2.4208,-2.4124,-2.394,-2.3696,-2.348,-2.3275,-2.2799,-2.2388,-2.2044,-2.1423,-2.1095,-2.0947,-2.0875,-2.101,-2.1229,-2.1229,-2.1492,-2.1813,0.0,0.0,0.0,0.0,0.0,0.0,0.0,0.0,0.0,0.0,0.0,0.0,0.0,0.0,0.0,0.0,0.0,0.0,0.3425,0.3583,0.3677,0.3767,0.3821,0.3848,0.3732,0.3746,0.3754,0.3645,0.3322,0.2857,0.2171,0.046,-0.2521,-0.6445,-0.701,-0.8414,-1.0515,-1.1999,-1.2668,-1.2836,-1.3436,-1.3383,-1.2905,-1.2766,-1.1904,-1.0959,-1.2231,-1.2602,-1.2534,-1.3384,-1.366,-1.3722,-1.3903,-1.395,-1.3941,-1.3897,0.0,-1.3756,-1.4114,-1.4458,-1.4925,-1.5594,-1.6785,-1.8113,0.0,-2.1192,-2.3032,-2.4955,-2.5497,-2.588,-2.667,-2.7308,-2.7561,-2.6907,-2.7313,-2.7703,-2.7673,-2.6963,-2.6872,-2.7946,-2.7834,-2.7204,-2.6062,-2.6226,-2.6224,-2.569,-2.5076,-2.4742,-2.4589,-2.4523,-2.44,-2.4302,-2.4302,-2.4302,-2.4302,-2.4302,-2.4276,-2.4208,-2.4208,-2.4082,-2.3839,-2.3653,-2.348,-2.3275,-2.254,-2.203,-2.1616,-2.118,-2.0961,-2.0888,-2.0762,-2.0662,-2.0612,-2.0749,-2.0799,-2.0848,0.0,0.0,0.0,0.0,0.0,0.0,0.0,0.0,0.0,0.0,0.0,0.0,0.0,0.0,0.0,0.0,0.0,0.0,0.3803,0.3616,0.3434,0.3205,0.3617,0.3485,0.2833,0.3157,0.326,0.3146,0.294,0.2356,0.1508,0.0394,-0.2055,-0.5618,-0.5815,-0.7463,-1.014,-1.1376,-1.2362,-1.3187,-1.3891,-1.3518,-1.2601,-1.2604,-1.1541,-1.0077,-1.0996,-1.1497,0.0,0.0,-1.275,-1.2728,-1.2768,-1.2819,-1.2819,-1.2877,-1.3018,0.0,-1.3826,-1.4154,-1.4497,-1.4995,-1.5809,-1.6974,-1.8804,-2.0784,-2.2933,-2.5387,-2.6778,-2.6361,-2.2328,-2.2089,-2.0669,-1.5195,-1.4661,-1.6464,-2.0977,-2.1135,-2.2651,-2.7801,-2.801,-2.7592,-2.725,-2.6161,-2.5706,-2.6193,-2.546,-2.4886,-2.4726,-2.458,-2.4457,-2.44,-2.4359,-2.4276,-2.425,-2.425,-2.4208,-2.4082,-2.394,-2.3797,-2.3696,-2.3407,-2.3053,-2.2632,-2.231,-2.1888,-2.1375,-2.1082,-2.0961,-2.0901,-2.0762,-2.0612,-2.0511,-2.0562,-2.0498,-2.0448,0.0,0.0,0.0,0.0,0.0,0.0,0.0,0.0,0.0,0.0,0.0,0.0,0.0,0.0,0.0,0.0,0.0,0.0,0.0,0.3475,0.3097,0.2668,0.3121,0.2956,0.2187,0.2558,0.2808,0.275,0.2248,0.1691,0.1137,0.0198,-0.1789,-0.4616,-0.452,-0.6478,-0.9863,-1.0833,-1.1948,-1.3248,-1.3989,-1.3475,-1.2242,-1.1728,-1.0629,-0.9486,-1.015,-1.0663,0.0,0.0,-1.1701,-1.1662,-1.1704,-1.168,-1.1736,-1.1848,-1.2094,-1.2579,-1.3476,-1.3656,-1.3795,-1.4505,-1.4898,-1.5741,-1.7698,-1.9233,-2.0978,-2.352,-2.4243,-2.2696,-1.7006,-1.5688,-1.3278,-0.6415,-0.5498,-0.767,-1.3462,-1.3859,-1.5691,-2.1488,-2.1385,-2.1844,-2.4397,-2.4867,-2.547,-2.6554,-2.5623,-2.4939,-2.4742,-2.4482,-2.4359,-2.4457,-2.4359,-2.4276,-2.425,-2.4208,-2.4124,-2.394,-2.3696,-2.3508,-2.3377,-2.3008,-2.2555,-2.2044,-2.1949,-2.1602,-2.1019,-2.0885,-2.0799,-2.0675,-2.0599,-2.0498,-2.036,-2.036,-2.0296,-2.0233,0.0,0.0,0.0,0.0,0.0,0.0,0.0,0.0,0.0,0.0,0.0,0.0,0.0,0.0,0.0,0.0,0.0,0.0,0.0,0.2973,0.2801,0.2216,0.222,0.219,0.1997,0.219,0.2319,0.2319,0.1157,0.0587,0.067,-0.0269,-0.1677,-0.3551,-0.3328,-0.5497,-0.939,-1.0396,-1.1441,-1.2444,-1.3247,-1.2743,-1.1403,-0.961,-0.8858,-0.8915,-0.9745,0.0,0.0,-1.0348,-1.0453,-1.0506,-1.0669,-1.0716,0.0,-1.0773,-1.1062,-1.1759,-1.3097,-1.2908,-1.2607,-1.4138,-1.4408,-1.4649,-1.6365,-1.6483,-1.6711,-1.8539,-1.5823,-1.2783,-1.1629,-0.9262,-0.6931,-0.5268,-0.5306,-0.5805,-0.6683,-0.6201,-0.5888,-0.6344,-0.5152,-0.7345,-1.4935,-2.1959,-2.6168,-2.6483,-2.5377,-2.4691,-2.462,-2.4135,-2.3967,-2.4317,-2.4302,-2.4302,-2.4317,-2.425,-2.4082,-2.3797,-2.3653,-2.3377,-2.2889,-2.2449,-2.1996,-2.1616,-2.1326,-2.097,-2.061,-2.0472,-2.0321,-2.0233,-2.0233,-2.0131,-2.0042,-2.0042,-2.008,-2.0182,0.0,0.0,0.0,0.0,0.0,0.0,0.0,0.0,0.0,0.0,0.0,0.0,0.0,0.0,0.0,0.0,0.0,0.0,0.0,0.3251,0.2791,0.2673,0.2505,0.2107,0.142,0.1961,0.196,0.1356,0.0968,0.0327,-0.0472,-0.0807,-0.141,-0.2281,-0.2458,-0.3839,-0.6235,-0.9563,-1.1494,-1.2298,-1.2571,-1.202,-1.0778,-0.935,-0.8667,-0.8605,0.0,0.0,0.0,-0.9693,-0.9631,-0.9493,-0.9545,-0.9587,-0.9665,-1.0187,-1.0528,-1.0977,-1.1652,-1.1732,-1.1905,-1.2832,-1.2804,-1.2998,-1.4395,-1.506,-1.5454,-1.5627,-1.4946,-1.2208,-0.5332,-0.2334,0.1102,0.7248,0.8663,0.7034,0.153,0.1186,-0.0543,-0.6167,-0.5474,-0.5811,-0.9116,-1.4628,-2.0243,-2.5629,-2.5022,-2.4414,-2.4461,-2.3694,-2.345,-2.3809,-2.3824,-2.3867,-2.3967,-2.3925,-2.3797,-2.3596,-2.3201,-2.2799,-2.2449,-2.217,-2.2124,-2.2155,-2.1502,-2.1209,-2.1211,-2.1056,-2.0682,-2.022,-2.0539,-2.0411,-1.999,-1.9926,-1.9862,-1.9811,0.0,0.0,0.0,0.0,0.0,0.0,0.0,0.0,0.0,0.0,0.0,0.0,0.0,0.0,0.0,0.0,0.0,0.0,0.0,0.0,0.2932,0.2761,0.2442,0.2003,0.1483,0.1691,0.1558,0.0954,0.0699,0.0,-0.1112,-0.111,-0.131,-0.1652,-0.2565,-0.3659,-0.5087,-0.8726,-1.0637,-1.1304,-1.0895,-1.0289,-0.9575,-0.8845,-0.8469,0.0,0.0,0.0,0.0,-0.904,-0.8995,-0.8864,-0.8918,-0.8971,-0.9157,-0.9751,-1.0154,-1.0533,-1.0948,-1.1135,-1.1363,-1.1943,-1.1592,-1.1403,-1.2324,-1.2439,-1.2184,-1.1829,-1.074,-0.7476,-0.007,0.3263,0.6932,1.357,1.5111,1.3656,0.8389,0.8298,0.6721,0.1326,0.1963,0.1674,-0.1229,-0.4573,-1.0864,-2.1191,-2.3733,-2.4591,-2.4063,-2.3467,-2.3243,-2.3334,-2.3465,-2.3551,-2.361,-2.3696,-2.3566,-2.3216,-2.2709,-2.2376,-2.2283,-2.1979,-2.2024,-2.2374,-2.1614,-2.1355,-2.1493,-2.1278,-2.0901,-2.0479,-2.0589,-2.0552,-2.0348,-2.003,-1.9973,-1.999,0.0,0.0,0.0,0.0,0.0,0.0,0.0,0.0,0.0,0.0,0.0,0.0,0.0,0.0,0.0,0.0,0.0,0.0,0.0,0.0,0.0,0.2628,0.2181,0.1995,0.1997,0.1377,0.1048,0.0988,0.0309,-0.0432,-0.1112,-0.1112,-0.1251,-0.1668,-0.3477,-0.4906,-0.6056,-0.7822,-0.8904,-0.9319,-0.8343,-0.7928,-0.7912,-0.812,0.0,0.0,0.0,0.0,0.0,-0.8415,-0.858,-0.8592,-0.8718,-0.8947,-0.9179,-0.9455,-0.9856,-1.038,-1.0918,-1.093,-1.0984,-1.1451,-1.0743,-0.9958,-1.0268,-0.8681,-0.724,-0.7307,-0.3461,0.09,0.3925,0.7116,1.0251,1.3216,1.3719,1.3599,1.3251,1.4359,1.5144,0.0,0.0,0.0,0.0,0.0,0.0819,-1.2831,-2.0987,-2.4786,-2.3496,-2.3482,-2.3292,-2.2873,-2.3187,-2.3334,-2.3275,-2.3436,-2.3231,-2.2618,-2.2198,-2.2138,-2.2355,-2.1797,-2.1798,-2.2252,-2.1703,-2.1506,-2.1475,-2.1124,-2.0998,-2.0925,-2.0391,-2.0545,-2.0913,-2.0342,-2.0433,-2.0613,0.0,0.0,0.0,0.0,0.0,0.0,0.0,0.0,0.0,0.0,0.0,0.0,0.0,0.0,0.0,0.0,0.0,0.0,0.0,0.0,0.0,0.0,0.0,0.0,0.0,0.0,0.0,0.0,0.0,-0.0741,-0.0927,-0.0927,-0.1239,-0.1807,-0.3197,-0.4659,-0.6145,-0.6966,-0.7668,-0.832,0.0,-0.8215,-0.7777,0.0,0.0,0.0,0.0,0.0,0.0,-0.7931,-0.8118,-0.8175,-0.8138,-0.8218,-0.8471,-0.8782,-0.9032,-0.9192,-0.9383,-0.96,-0.9896,-1.0053,-0.9617,-0.9143,-0.8699,-0.7731,-0.6335,-0.4454,-0.2303,0.0145,0.2862,0.5113,0.7287,0.9553,0.9954,1.0257,1.1018,1.2094,0.0,1.2432,0.0,1.4167,1.2777,0.785,0.3837,0.154,-0.9722,-1.8707,-2.3866,-2.3355,-2.2817,-2.2523,-2.2844,-2.3024,-2.2979,-2.2618,-2.2156,-2.1746,-2.1794,-2.1512,-2.0985,-2.1548,-2.1796,-2.1814,-2.1412,-2.1378,-2.1528,-2.134,-2.0864,-2.0286,-2.0429,-2.0382,-2.0238,-2.0005,-1.9994,-2.0006,0.0,0.0,0.0,0.0,0.0,0.0,0.0,0.0,0.0,0.0,0.0,0.0,0.0,0.0,0.0,0.0,0.0,0.0,0.0,0.0,0.0,0.0,0.0,0.0,0.0,0.0,0.0,0.0,0.0,0.0,0.0,-0.1105,-0.1429,-0.1947,-0.2787,-0.4031,-0.5546,-0.6441,0.0,0.0,0.0,0.0,0.0,0.0,0.0,0.0,0.0,0.0,0.0,0.0,0.0,-0.7908,-0.7899,-0.7744,-0.7702,-0.7922,-0.7926,-0.7808,-0.8234,-0.8192,-0.8259,-0.8958,-0.8522,-0.7952,-0.7882,-0.7293,-0.624,-0.467,-0.3325,-0.1705,0.0934,0.316,0.5162,0.6891,0.7685,0.8421,0.9184,1.0223,1.0873,0.0,1.1827,0.0,1.3438,0.961,0.6272,0.4333,-0.7547,-1.5892,-1.8498,-2.1808,-2.2986,-2.1568,-2.2296,-2.2678,-2.2572,-2.2077,-2.1602,-2.1215,-2.144,-2.1277,-2.0777,-2.1443,-2.1683,-2.1648,-2.1295,-2.1176,-2.1289,-2.1105,-2.0734,-2.0419,-2.0366,-2.0415,-2.0384,-2.0176,-2.0113,-2.0114,0.0,0.0,0.0,0.0,0.0,0.0,0.0,0.0,0.0,0.0,0.0,0.0,0.0,0.0,0.0,0.0,0.0,0.0,0.0,0.0,0.0,0.0,0.0,0.0,0.0,0.0,0.0,0.0,0.0,0.0,0.0,0.0,0.0,0.0,0.0,0.0,0.0,0.0,0.0,0.0,0.0,0.0,0.0,0.0,0.0,0.0,0.0,0.0,0.0,0.0,-0.724,-0.7729,-0.7623,-0.7221,-0.6932,-0.6978,-0.6699,-0.6437,-0.7183,-0.6712,-0.6451,-0.7816,-0.7238,-0.6526,-0.7171,-0.6813,-0.6257,-0.588,-0.5005,-0.3496,-0.1147,0.1441,0.3642,0.4944,0.0,0.713,0.7363,0.8365,0.9143,0.9234,0.9978,1.0854,1.1838,1.1209,0.8313,0.2396,-0.8431,-1.3763,-1.1492,-1.9279,-2.282,-2.0539,-2.165,-2.2203,-2.2108,-2.1615,-2.1171,-2.0746,-2.0823,-2.0865,-2.0807,-2.1126,-2.1282,-2.1272,-2.1089,-2.088,-2.0711,-2.0506,-2.0571,-2.0666,-2.0176,-2.0266,-2.0719,-2.0353,-2.034,-2.0442,0.0,0.0,0.0,0.0,0.0,0.0,0.0,0.0,0.0,0.0,0.4761,0.4827,0.0,0.0,0.0,0.0,0.0,0.0,0.0,0.0,0.0,0.0,0.0,0.0,0.0,0.0,0.0,0.0,0.0,0.0,0.0,0.0,0.0,0.0,0.0,0.0,0.0,0.0,0.0,0.0,0.0,0.0,0.0,0.0,0.0,0.0,0.0,0.0,0.0,0.0,-0.7017,-0.7507,-0.6566,-0.6329,-0.6283,-0.5778,-0.5541,-0.556,-0.5709,-0.5578,-0.5499,-0.562,-0.5277,-0.4935,-0.4756,-0.4927,0.0,-0.4303,-0.3587,-0.2737,-0.1722,0.0218,0.2066,0.3084,0.39,0.4698,0.5419,0.6321,0.7015,0.0,0.7966,0.8897,0.9798,0.9857,0.967,0.9285,0.0564,-0.6899,-1.2003,-1.608,-1.9041,-2.0744,-2.1328,-2.1572,-2.1521,-2.0676,-2.0026,-1.9488,-1.925,-1.9043,-1.8828,-1.9821,-2.0042,-1.9717,-2.0306,-2.0248,-1.9802,-1.9802,-1.9671,-1.9528,-1.9378,-1.953,-1.9791,-1.9575,-1.9596,-1.9802,0.0,0.0,0.0,0.0,0.0,0.0,0.0,0.4298,0.4367,0.4431,0.4498,0.4564,0.4694,0.4761,0.0,0.0,0.0,0.0,0.0,0.0,0.0,0.0,0.0,0.0,0.0,0.0,-0.0251,-0.105,0.0,0.0,0.0,-0.1348,-0.1552,0.0,0.0,0.0,0.0,0.0,0.0,0.0,0.0,0.0,0.0,0.0,0.0,0.0,0.0,0.0,0.0,0.0,-0.6133,-0.6491,-0.6306,-0.5689,-0.5083,-0.4768,-0.4145,-0.3555,-0.4056,-0.3949,-0.3814,-0.4535,-0.4215,-0.3903,-0.407,-0.4147,-0.4149,-0.3902,-0.3553,-0.2863,-0.1512,-0.0509,0.0591,0.2254,0.3368,0.4229,0.4616,0.5258,0.5734,0.582,0.6505,0.7065,0.7558,0.743,0.7477,0.7889,0.2602,-0.2028,-0.5277,-1.2641,-1.7235,-1.8294,-1.8825,-1.9136,-1.9258,-1.8515,-1.8077,-1.7981,-1.7926,-1.7835,-1.7839,-1.8775,-1.8952,-1.8527,-1.9083,-1.9198,-1.8942,-1.8942,-1.8942,-1.9008,-1.8942,-1.9008,-1.9208,-1.9208,-1.9142,-1.9008,0.0,0.0,0.0,0.0,0.0,0.0,0.0,0.43,0.43,0.43,0.4367,0.4431,0.4495,0.4631,0.4697,0.0,0.0,0.0,0.0,0.0,0.0,0.0,0.0,0.0,0.0,0.0,0.0,-0.1071,-0.1031,0.0,0.0,0.0,0.0,0.0,-0.2169,-0.2701,0.0,0.0,0.0,0.0,0.0,-0.6671,0.0,0.0,0.0,0.0,0.0,0.0,0.0,0.0,-0.5155,-0.532,-0.5665,-0.4876,-0.3831,-0.37,-0.2786,-0.1978,-0.2631,-0.2421,-0.2352,-0.3519,-0.3242,-0.2835,-0.334,-0.3413,-0.3347,-0.3422,-0.3489,-0.2935,-0.1226,-0.0726,0.0074,0.0,0.3212,0.4151,0.4229,0.456,0.4833,0.4981,0.5333,0.0,0.5656,0.529,0.4948,0.4715,0.2389,0.0443,-0.0574,-0.9647,-1.4967,-1.5401,-1.6162,-1.6718,-1.6888,-1.6512,-1.6393,-1.6467,-1.6577,-1.6737,-1.6868,-1.7649,-1.7794,-1.7423,-1.7784,-1.792,-1.7842,-1.7842,-1.8124,-1.8472,-1.8395,-1.8472,-1.8607,-1.8731,-1.8607,-1.8414,0.0,0.0,0.0,0.0,0.0,0.0,0.0,0.43,0.43,0.43,0.4498,0.4564,0.4364,0.4367,0.4431,0.0,0.0,0.0,0.0,0.0,0.0,0.0,0.0,0.0,0.0,0.0,0.0,-0.1071,-0.1074,0.0,0.0,0.0,0.0,0.0,0.0,-0.2415,-0.2753,0.0,0.0,0.0,0.0,0.0,0.0,0.0,0.0,0.0,0.0,0.0,0.0,0.0,0.0,-0.4097,-0.3835,-0.3481,-0.2971,-0.2262,-0.1934,-0.1819,-0.1898,-0.1777,-0.165,-0.1806,-0.159,-0.1385,-0.1457,-0.1886,-0.2214,-0.2084,-0.2014,-0.191,-0.1657,-0.0146,0.1111,0.0,0.0,0.3374,0.3763,0.3914,0.4019,0.418,0.0,0.4512,0.4789,0.4603,0.4291,0.3844,0.2217,-0.0868,-0.5842,-0.7965,-1.0374,-1.327,-1.4838,-1.5647,-1.5647,-1.5955,-1.5743,-1.5022,-1.5151,-1.5256,-1.533,-1.593,-1.6328,-1.6446,-1.6664,-1.6664,-1.6515,-1.6515,-1.6802,-1.7304,-1.7176,-1.7461,-1.8076,-1.792,-1.792,-1.8076,0.0,0.0,0.0,0.0,0.0,0.0,0.4281,0.43,0.43,0.43,0.4367,0.4431,0.43,0.43,0.43,0.0,0.0,0.0,0.0,0.0,0.0,0.0,0.0,0.0,0.0,0.0,0.1144,-0.0404,-0.0877,0.0,0.0,0.0,0.0,0.0,0.0,-0.2285,-0.2686,0.0,0.0,0.0,0.0,0.0,0.0,0.0,0.0,0.0,0.0,0.0,-0.448,0.0,0.0,0.0,-0.2281,-0.1977,0.0,0.0,-0.174,-0.1412,-0.1433,-0.1543,-0.1572,-0.1415,-0.1379,-0.1338,-0.1243,-0.1345,-0.1509,-0.1419,-0.1363,-0.1184,-0.0434,0.0516,0.1433,0.0,0.0,0.0,0.3763,0.3795,0.3884,0.4084,0.4115,0.4118,0.4018,0.419,0.3912,0.2963,0.1714,-0.0535,-0.4052,-0.6281,-0.8159,-0.9767,-1.1726,-1.2932,-1.3301,-1.318,-1.3302,-1.3648,-1.3636,-1.3878,-1.4428,-1.4808,-1.5118,-1.5463,-1.5683,-1.5903,-1.6184,-1.6035,-1.6245,-1.6664,-1.6594,-1.6733,-1.6941,-1.6862,-1.7088,-1.7314,0.0,0.0,0.0,0.0,0.0,0.4951,0.4942,0.4625,0.4492,0.4694,0.4567,0.4434,0.43,0.4364,0.4367,0.43,0.0,0.0,0.0,0.0,0.0,0.0,0.0,0.0,0.0,0.0,0.1144,-0.0,-0.0607,-0.1012,0.0,0.0,-0.1345,-0.1547,0.0,0.0,0.0,0.0,0.0,0.0,0.0,0.0,0.0,0.0,0.0,0.0,0.0,0.0,0.0,0.0,0.0,0.0,0.0,0.0,0.0,0.0,-0.1552,-0.1159,-0.119,-0.1373,-0.1477,-0.1322,-0.1381,-0.1427,-0.1235,-0.1136,-0.1113,-0.1085,-0.1102,-0.0777,0.029,0.0888,0.1513,0.0,0.0,0.3113,0.368,0.3763,0.3843,0.3999,0.3923,0.3756,0.3514,0.3592,0.3333,0.2482,0.1506,0.0,-0.206,-0.5112,-0.7071,-0.7596,-0.9485,-1.0664,-1.1118,-1.1204,-1.1623,-1.2301,-1.2628,-1.3011,-1.3553,-1.3976,-1.4274,-1.4553,-1.4776,-1.5133,-1.5488,-1.5417,-1.5613,-1.5886,-1.5956,-1.6026,-1.6167,-1.6167,-1.6324,-1.6542,0.0,0.0,0.0,0.0,0.0,0.0,0.6392,0.5463,0.5001,0.5617,0.5296,0.4834,0.4367,0.4495,0.4495,0.43,0.0,0.0,0.0,0.0,0.0,0.0,0.0,0.0,0.0,0.0,0.1411,-0.0,-0.0337,-0.0741,-0.1079,-0.1212,-0.1277,-0.1344,0.0,0.0,0.0,0.0,0.0,0.0,0.0,0.0,0.0,0.0,0.0,0.0,0.0,0.0,0.0,0.0,0.0,0.0,0.0,0.0,0.0,0.0,-0.1099,-0.1128,-0.1159,-0.1189,-0.1212,-0.1288,-0.1288,-0.1271,-0.1207,-0.1121,-0.1113,-0.1085,-0.1102,-0.0848,-0.0073,0.0729,0.1482,0.2335,0.2537,0.0,0.3673,0.3763,0.3763,0.3841,0.3374,0.3199,0.3262,0.2688,0.2331,0.2522,0.1591,0.0393,-0.1256,-0.4731,-0.6983,-0.7488,-0.8689,-0.9453,-0.962,-1.0807,-1.1261,-1.0922,-1.2231,-1.2732,-1.2445,-1.3345,-1.3797,-1.379,-1.3992,-1.4129,-1.4129,-1.4353,-1.4633,-1.4903,-1.5125,-1.548,-1.5833,-1.5833,-1.5833,-1.5833,0.0,0.0,0.0,0.0,0.0,0.0,0.0,0.6802,0.6736,0.7086,0.663,0.6094,0.5481,0.4818,0.4422,0.4495,0.0,0.0,0.0,0.0,0.0,0.0,0.0,0.0,0.0,0.0,0.1411,-0.0,-0.0135,-0.0472,-0.1079,-0.1146,-0.1144,-0.1143,-0.1412,-0.1614,0.0,0.0,0.0,0.0,0.0,0.0,0.0,0.0,0.0,0.0,0.0,0.0,0.0,0.0,0.0,0.0,0.0,0.0,0.0,0.0,0.0,0.0,-0.1133,-0.123,-0.1181,-0.0886,-0.0812,-0.0877,-0.1201,-0.1191,-0.1044,-0.0475,-0.0279,-0.0144,0.0364,0.0888,0.1361,0.2029,0.2077,0.2214,0.2815,0.2902,0.3076,0.3445,0.3058,0.2763,0.255,0.2029,0.1441,0.0815,0.0492,-0.0082,-0.0884,-0.3522,-0.5292,-0.5774,-0.7508,-0.8686,-0.916,-0.969,-1.0254,-1.0837,-1.1292,-1.1736,-1.231,-1.2631,-1.2973,-1.3419,-1.3339,-1.3484,-1.3863,-1.3855,-1.3992,-1.4338,-1.4418,-1.4553,-1.4625,-1.4776,-1.4982,-1.5196,0.0,0.0,0.0,0.0,0.0,0.0,0.0,0.7731,0.7671,0.7867,0.7218,0.649,0.6005,0.5084,0.4558,0.4628,0.0,0.0,0.0,0.0,0.0,0.0,0.0,0.0,0.0,0.3431,0.1951,0.0,0.0,-0.0202,-0.0674,-0.0809,-0.0944,-0.1077,-0.1211,-0.1412,0.0,0.0,0.0,0.0,0.0,0.0,-0.1951,0.0,0.0,0.0,0.0,0.0,0.0,0.0,0.0,0.0,0.0,0.0,0.0,0.0,-0.1091,-0.1038,0.0,-0.0922,-0.1149,-0.0934,-0.0651,-0.0433,-0.0766,-0.1044,-0.1113,-0.0542,-0.014,0.0216,0.08,0.1034,0.1359,0.1794,0.1846,0.1986,0.2425,0.2511,0.2533,0.2753,0.2537,0.2323,0.1924,0.1639,0.1132,0.0593,0.0171,-0.0342,-0.0919,-0.3056,-0.4455,-0.489,-0.6839,-0.809,-0.8585,-0.8971,-0.9539,-1.0132,-1.0588,-1.1111,-1.1706,-1.2077,-1.2452,-1.2893,-1.2826,-1.3046,0.0,-1.3419,-1.3557,-1.3775,-1.392,-1.4,-1.3992,-1.4209,-1.4418,-1.4553,0.0,0.0,0.0,0.0,0.0,0.0,0.0,0.0,0.8112,0.8096,0.726,0.6482,0.6207,0.5557,0.5033,0.4827,0.0,0.0,0.0,0.0,0.0,0.0,0.0,0.0,0.0,0.4118,0.2765,0.0,0.0,0.0,-0.0,-0.0337,-0.0674,-0.1079,-0.1077,-0.1143,0.0,0.0,0.0,0.0,0.0,0.0,0.0,0.0,0.0,0.0,0.0,0.0,0.0,0.0,0.0,0.0,0.0,0.0,0.0,0.0,0.0,0.0,0.0,-0.0489,-0.1048,-0.1188,-0.0569,0.0,0.0,0.0,0.0,-0.0949,-0.0414,0.0283,0.1158,0.131,0.1407,0.1863,0.1844,0.191,0.2425,0.2439,0.2302,0.194,0.1944,0.1825,0.1391,0.1327,0.1343,0.1436,0.0539,-0.0445,-0.1311,-0.3187,-0.4384,-0.4708,-0.6559,-0.7684,-0.7986,-0.8663,-0.9018,-0.9003,-1.0207,-1.0738,-1.0812,-1.1632,-1.2077,-1.2305,-1.2452,-1.2673,-1.29,-1.3046,-1.3127,-1.3193,-1.3572,-1.3717,-1.379,-1.3992,-1.4057,-1.4057,0.0,0.0,0.0,0.0,0.0,0.0,0.0,0.0,0.0,0.0,0.8916,0.8528,0.7967,0.6802,0.602,0.0,0.0,0.0,0.0,0.0,0.0,0.0,0.0,0.0,0.0,0.2621,0.1748,0.0,0.0,0.0,-0.0,-0.0067,-0.0472,-0.1079,-0.1078,0.0,0.0,0.0,0.0,0.0,0.0,0.0,0.0,0.0,0.0,0.0,-0.1344,-0.1212,0.0,0.0,0.0,0.0,0.0,0.0,0.0,0.0,-0.0674,-0.081,0.0475,0.0,-0.0272,-0.0272,-0.0137,0.0,0.0,0.0,0.0,0.0,0.0,0.0562,0.106,0.1222,0.1326,0.1749,0.1521,0.1528,0.1954,0.2104,0.2046,0.151,0.1842,0.19,0.1361,0.1039,0.0971,0.1344,0.0179,-0.0627,-0.0891,-0.2412,-0.3652,-0.4579,-0.5756,-0.6905,-0.807,-0.8501,-0.8864,-0.8998,-0.9765,-1.0368,-1.0812,-1.1335,-1.1632,-1.1855,-1.1855,-1.2077,-1.2452,-1.2526,-1.2673,-1.2973,-1.3046,-1.3119,-1.3119,-1.3492,-1.3637,-1.371,0.0,0.0,0.0,0.0,0.0,0.0,0.0,0.0,0.0,0.0,0.0,0.0,0.0,0.0,0.0,0.0,0.0,0.0,0.0,0.0,0.0,0.0,0.0,0.0,0.3424,0.275,0.1676,0.0202,0.0202,0.0135,0.0,0.0,-0.0202,-0.0607,-0.0944,0.0,0.0,0.0,0.0,0.0,-0.1347,0.0,0.0,0.0,0.0,0.0,-0.1212,-0.1146,0.0,-0.1079,-0.1079,-0.1012,0.0,0.0,0.0,0.0,-0.0067,-0.0202,0.0607,0.0674,0.0472,0.027,0.0202,0.0202,0.0,0.0,0.0,0.0,0.0,0.0832,0.1066,0.1155,0.1255,0.1532,0.1387,0.1315,0.1567,0.17,0.1649,0.1301,0.1607,0.165,0.1301,0.0964,0.0532,0.0179,-0.0628,-0.0987,-0.0987,-0.2331,-0.3582,-0.4559,-0.5583,-0.6696,-0.7878,-0.819,-0.8362,-0.8627,-0.9231,-0.9894,-1.0608,-1.0989,-1.1368,-1.1759,-1.1759,-1.1834,-1.2003,-1.215,-1.2298,-1.2526,-1.2673,-1.2753,-1.282,-1.3119,-1.3193,-1.3273,0.0,0.0,0.0,0.0,0.0,0.0,0.0,0.0,0.0,0.0,0.0,0.0,0.0,0.0,0.0,0.0,0.0,0.0,0.0,0.0,0.0,0.0,0.0,0.5113,0.5049,0.3756,0.2477,0.1272,0.1005,0.0671,0.0135,0.0135,0.0067,-0.0,-0.0674,-0.0932,0.0,0.0,0.0,0.0,-0.1079,0.0,0.0,0.0,0.0,0.0,0.0,0.0,0.0,-0.0944,-0.0877,-0.0539,0.0607,0.0,0.0,0.0,0.0,0.0,0.0674,0.0944,0.1079,0.0674,0.0609,0.061,0.0,0.0,0.0,0.0,0.0,0.0,0.0,0.1389,0.0,0.1552,0.1572,0.1581,0.1429,0.1458,0.1406,0.1346,0.1373,0.14,0.1337,0.0893,0.0179,-0.1077,-0.1346,-0.1436,-0.1436,-0.242,-0.3403,-0.438,-0.5513,-0.6538,-0.7481,-0.7764,-0.7991,-0.8112,-0.8793,-0.9503,-1.0242,-1.0673,-1.1128,-1.1682,-1.1717,-1.1708,-1.1706,-1.1855,-1.2003,-1.2003,-1.2378,-1.2526,-1.2599,-1.2746,-1.2826,-1.29,0.0,0.0,0.0,0.0,0.0,0.0,0.0,0.0,0.0,0.0,0.0,0.0,0.0,0.0,0.0,0.0,0.0,0.0,0.0,0.0,0.0,0.0,0.576,0.5634,0.5312,0.5106,0.4906,0.4645,0.342,0.2143,0.0939,0.0604,0.0269,-0.0,-0.0135,-0.0336,-0.0603,-0.0605,-0.0809,-0.1079,-0.1079,0.0,0.0,0.0,0.0,0.0,0.0,0.0,0.0,-0.0404,0.027,0.0742,0.0607,0.0,0.0,0.0,0.0,0.0,0.1481,0.1615,0.1549,0.1146,0.1028,0.1246,0.0,0.0,0.0,0.0,0.0,0.0,0.0,0.2298,0.2413,0.0,0.2914,0.2765,0.2074,0.1952,0.1798,0.135,0.1373,0.1393,0.1312,0.0875,0.0352,-0.0179,-0.0987,-0.1436,-0.1436,-0.1614,-0.2239,-0.3398,-0.4214,-0.5368,-0.6698,-0.7846,-0.8421,-0.8269,-0.9147,-0.956,-0.9751,-1.0442,-1.0901,-1.0973,-1.1123,-1.1303,-1.1484,-1.1632,-1.1855,-1.2003,-1.2224,-1.2378,-1.2378,-1.2599,-1.2673,-1.2893,0.0,0.0,0.0,0.0,0.0,0.0,0.0,0.0,0.0,0.0,0.0,0.0,0.0,0.0,0.0,0.0,0.0,0.0,0.0,0.0,0.0,0.6613,0.6482,0.6222,0.5701,0.5701,0.5435,0.4976,0.4292,0.3485,0.2614,0.1406,0.0733,0.0593,0.0198,-0.0066,-0.0198,-0.0198,-0.0332,-0.0539,0.0,0.0,0.0,0.0,0.0,0.0,0.0,0.0,0.0,0.0,0.0607,0.1079,0.0877,0.0,0.0,0.0,0.0,0.0,0.1952,0.2018,0.1952,0.1752,0.1718,0.1887,0.0,0.0,0.0,0.0,0.0,0.0,0.0,0.0,0.2646,0.2876,0.3021,0.2908,0.2519,0.229,0.2052,0.1799,0.1555,0.1397,0.1326,0.0973,0.0444,0.0,-0.0628,-0.1166,-0.1346,-0.1436,-0.1883,-0.3044,-0.416,-0.5275,-0.6409,-0.7903,-0.8471,-0.8275,-0.8841,-0.9384,-0.9824,-1.03,-1.0595,-1.0704,-1.0824,-1.0847,-1.0962,-1.1111,-1.1409,-1.1706,-1.1929,-1.2003,-1.2003,-1.2224,-1.2305,-1.2666,0.0,0.0,0.0,0.0,0.0,0.0,0.0,0.0,0.0,0.0,0.0,0.0,0.0,0.0,0.0,0.0,0.0,0.0,0.0,0.0,0.7456,0.7265,0.7138,0.6745,0.602,0.5954,0.562,0.4891,0.4891,0.4625,0.409,0.2462,0.1445,0.1032,0.0516,0.0194,0.0129,0.013,0.0132,0.0067,0.0,0.0,0.0,0.0,0.0,0.0,0.0,0.0,0.0,0.0,0.0,0.0,0.0,0.0,0.0,0.1749,0.1951,0.2221,0.2356,0.2356,0.2421,0.2555,0.0,0.0,0.0,0.0,0.0,0.0,0.0,0.0,0.0,0.2879,0.2967,0.3093,0.3126,0.3057,0.2989,0.2648,0.2406,0.2185,0.1838,0.1498,0.1433,0.1076,0.0628,0.0,-0.0359,-0.0807,-0.1345,-0.1436,-0.1793,-0.251,-0.3844,-0.4999,-0.606,-0.7397,-0.8245,-0.8484,-0.8735,-0.9228,-0.9885,-1.0119,-1.0311,-1.0465,-1.0439,-1.0412,-1.0368,-1.0663,-1.0962,-1.126,-1.1558,-1.1706,-1.1706,-1.1855,-1.215,-1.2732,0.0,0.0,0.0,0.0,0.0,0.0,0.0,0.0,0.0,0.0,0.0,0.0,0.0,0.0,0.0,0.0,0.0,0.0,0.0,0.0,0.7521,0.7461,0.7456,0.7134,0.635,0.6214,0.6083,0.5822,0.5822,0.5422,0.4746,0.3781,0.2508,0.1027,0.1027,0.0836,0.0453,0.0465,0.0471,0.0404,0.0067,0.0,0.0,0.0,0.0,0.0,0.0,0.0,0.0,0.0,0.0,0.0,0.0,0.0,0.2154,0.2154,0.2154,0.2288,0.2822,0.2958,0.309,0.3558,0.3002,0.0,0.2675,0.284,0.0,0.3467,0.0,0.0,0.0,0.3748,0.384,0.3936,0.4022,0.393,0.3561,0.3482,0.3127,0.2327,0.215,0.1971,0.1435,0.1345,0.0987,0.009,-0.0,-0.0448,-0.1345,-0.1436,-0.1436,-0.1524,-0.2509,-0.3667,-0.5087,-0.606,-0.7295,-0.8873,-0.9131,-0.9396,-0.9657,-0.9864,-0.9922,-0.9963,-0.9932,-0.9954,-0.9992,-1.0588,-1.0812,-1.0887,-1.1484,-1.1706,-1.1706,-1.1706,-1.2291,-1.3237,0.0,0.0,0.0,0.0,0.0,0.0,0.0,0.0,0.0,0.0,0.0,0.0,0.0,0.0,0.0,0.0,0.0,0.0,0.0,0.0,0.8812,0.8306,0.8042,0.7782,0.74,0.7129,0.6937,0.6675,0.6605,0.6137,0.5463,0.4888,0.4077,0.3021,0.245,0.2008,0.1781,0.2033,0.1651,0.0873,0.0739,0.0605,0.0,0.0,0.0,0.0,0.0,0.0,0.0,0.0,0.2614,0.2549,0.2815,0.295,0.3021,0.3157,0.3357,0.3489,0.3489,0.3491,0.3572,0.3771,0.0,0.0,0.0,0.373,0.394,0.4094,0.4094,0.0,0.0,0.0,0.4272,0.4348,0.4319,0.4287,0.4109,0.3765,0.3318,0.2689,0.2422,0.1974,0.1436,0.1436,0.1256,0.0897,0.0359,-0.0269,-0.0897,-0.1256,-0.1436,-0.1436,-0.2508,-0.3554,-0.4642,-0.5937,-0.7212,-0.8396,-0.897,-0.9278,-0.915,-0.9513,-0.9553,-0.9373,-0.9365,-0.9448,-0.9549,-0.9771,-1.0143,-1.0663,-1.1111,-1.1409,-1.1484,-1.1484,-1.1848,-1.2432,0.0,0.0,0.0,0.0,0.0,0.0,0.0,0.0,0.0,0.0,0.0,0.0,0.0,0.0,0.0,0.0,0.0,0.0,0.0,1.0438,1.0021,0.921,0.8941,0.8619,0.8306,0.8112,0.7722,0.7265,0.7129,0.6854,0.6384,0.6074,0.5528,0.4798,0.3995,0.3363,0.3033,0.3264,0.2827,0.1874,0.174,0.1608,0.0,0.0,0.0,0.0,0.0,0.0,0.0,0.0,0.3547,0.3413,0.388,0.4082,0.4151,0.4353,0.4616,0.4749,0.4289,0.425,0.423,0.0,0.0,0.0,0.4345,0.4336,0.4394,0.4427,0.4434,0.4446,0.4484,0.0,0.4474,0.4444,0.4431,0.4406,0.4291,0.4032,0.3585,0.2957,0.2601,0.2153,0.1436,0.1256,0.1166,0.1166,0.0448,-0.0179,-0.0718,-0.1166,-0.1436,-0.1436,-0.2239,-0.3108,-0.4023,-0.5455,-0.6608,-0.7594,-0.8551,-0.9007,-0.895,-0.9229,-0.9294,-0.902,-0.8954,-0.8995,-0.9089,-0.9246,-0.9695,-1.0368,-1.0738,-1.1111,-1.1409,-1.1558,-1.1855,-1.2372,0.0,0.0,0.0,0.0,0.0,0.0,0.0,0.0,0.0,0.0,0.0,0.0,0.0,0.0,0.0,0.0,0.0,0.0,1.289,1.1935,1.0954,1.0078,1.0015,0.9703,0.9017,0.9017,0.8495,0.7521,0.7521,0.7521,0.7517,0.7316,0.6831,0.6124,0.5561,0.4928,0.4229,0.3896,0.3744,0.3678,0.3139,0.3272,0.3678,0.0,0.0,0.0,0.0,0.0,0.0,0.0,0.4015,0.4353,0.4749,0.5077,0.5408,0.5804,0.5939,0.5807,0.5286,0.5187,0.5152,0.0,0.0,0.0,0.4836,0.4617,0.4415,0.4603,0.4627,0.4593,0.4406,0.4315,0.4279,0.4281,0.4268,0.4297,0.43,0.43,0.3941,0.3045,0.2867,0.251,0.1524,0.0987,0.0718,0.0718,0.0269,-0.018,-0.0718,-0.1166,-0.1436,-0.1436,-0.1436,-0.1971,-0.3218,-0.4193,-0.5266,-0.6471,-0.7768,-0.86,-0.8991,-0.8955,-0.9025,-0.9011,-0.8798,-0.8703,-0.8699,-0.917,-0.9544,-0.9922,-1.0368,-1.0887,-1.1409,-1.1855,-1.2526,-1.3273,0.0,0.0,0.0,0.0,0.0,0.0,0.0,0.0,0.0,0.0,0.0,0.0,0.0,0.0,0.0,0.0,0.0,0.0,1.3226,1.2749,1.2143,1.1329,1.1267,1.0899,1.0078,0.9582,0.9075,0.8565,0.8565,0.8565,0.856,0.8227,0.7999,0.7733,0.7233,0.6841,0.6513,0.6244,0.58,0.5259,0.5058,0.4797,0.4469,0.0,0.0,0.0,0.0,0.0,0.0,0.0,0.0,0.0,0.6531,0.6535,0.6338,0.6531,0.6597,0.656,0.636,0.6294,0.0,0.5761,0.0,0.0,0.0,0.491,0.0,0.0,0.5094,0.5141,0.5104,0.4909,0.4727,0.463,0.4517,0.4404,0.4289,0.43,0.403,0.3496,0.3136,0.251,0.1524,0.1256,0.0897,0.0269,0.009,-0.018,-0.0718,-0.1166,-0.1436,-0.1436,-0.1436,-0.1869,-0.2801,-0.4076,-0.5142,-0.6074,-0.7504,-0.8235,-0.8391,-0.8657,-0.8709,-0.8567,-0.8655,-0.8703,-0.8699,-0.917,-0.9397,-0.9549,-1.0218,-1.0588,-1.0887,-1.1706,-1.215,-1.2526,0.0,0.0,0.0,0.0,0.0,0.0,0.0,0.0,0.0,0.0,0.0,0.0,0.0,0.0,0.0,0.0,0.0,0.0,0.0,0.0,1.37,1.2618,1.2557,1.2128,1.1205,1.0766,1.0388,1.0205,0.946,0.9081,0.9017,0.8818,0.8689,0.8689,0.8236,0.7977,0.7912,0.7657,0.719,0.6715,0.6654,0.6326,0.5928,0.0,0.0,0.0,0.0,0.0,0.0,0.0,0.0,0.0,0.7521,0.7461,0.7265,0.7587,0.771,0.7736,0.7532,0.7545,0.0,0.6927,0.6585,0.6225,0.5526,0.0,0.0,0.0,0.5355,0.5426,0.5377,0.5241,0.5042,0.4851,0.4633,0.4502,0.4291,0.43,0.4121,0.3676,0.3227,0.2599,0.1794,0.1525,0.1076,0.0359,0.009,-0.018,-0.0718,-0.1166,-0.1436,-0.1436,-0.1436,-0.1782,-0.2724,-0.3998,-0.5064,-0.6011,-0.7219,-0.7915,-0.7991,-0.8391,-0.8522,-0.8403,-0.8627,-0.8703,-0.8703,-0.8937,-0.9089,-0.9089,-0.9765,-1.0137,-1.0519,-1.1527,-1.2247,-1.2838,0.0,0.0,0.0,0.0,0.0,0.0,0.0,0.0,0.0,0.0,0.0,0.0,0.0,0.0,0.0,0.0,0.0,0.0,0.0,0.0,1.5477,1.3999,1.3828,1.3356,1.2512,1.2258,1.2066,1.2074,1.0332,0.9332,0.9204,0.9145,0.9081,0.9081,0.8753,0.8619,0.8619,0.8306,0.8112,0.8112,0.7922,0.7857,0.7862,0.7657,0.0,0.0,0.0,0.0,0.0,0.0,0.0,0.0,0.7982,0.8117,0.8182,0.8705,0.9008,0.9131,0.868,0.8795,0.0,0.818,0.7513,0.0,0.6218,0.5788,0.5552,0.5468,0.0,0.5534,0.5423,0.5318,0.5132,0.4875,0.478,0.4659,0.4389,0.43,0.4121,0.3676,0.3227,0.2689,0.2333,0.1705,0.1166,0.0718,0.0269,-0.018,-0.0628,-0.1166,-0.1436,-0.1436,-0.1436,-0.1883,-0.2777,-0.3853,-0.5021,-0.6064,-0.7033,-0.7533,-0.7856,-0.8194,-0.8403,-0.8403,-0.8627,-0.8703,-0.8703,-0.8703,-0.8703,-0.8703,-0.919,-0.963,-1.0229,-1.1348,-1.2516,-1.3644,0.0,0.0,0.0,0.0,0.0,0.0,0.0,0.0,0.0,0.0,0.0,0.0,0.0,0.0,0.0,0.0,0.0,0.0,0.0,0.0,1.627,1.5918,1.4836,1.4085,1.3786,1.3218,1.2793,1.2565,1.126,1.0577,1.0577,1.0034,0.9792,0.9792,0.96,0.9536,0.9478,0.9268,0.9198,0.9198,0.9134,0.9075,0.8952,0.8635,0.8565,0.0,0.0,0.0,0.0,0.0,0.0,0.0,0.8759,0.8759,0.8823,0.8952,0.9128,0.9366,0.9507,0.9706,0.0,0.0,0.8544,0.7961,0.7174,0.7087,0.6946,0.6017,0.5695,0.5687,0.5659,0.5497,0.5336,0.5247,0.4912,0.4661,0.4659,0.4389,0.43,0.4121,0.3405,0.2868,0.2778,0.1973,0.1166,0.0718,0.0269,-0.0,-0.0179,-0.0987,-0.1436,-0.1436,-0.1436,-0.1524,-0.1704,-0.3674,-0.488,-0.5315,-0.6915,-0.7829,-0.7947,-0.7947,-0.8102,-0.8403,-0.8475,-0.8551,-0.8703,-0.8703,-0.8703,-0.8718,-0.9349,-0.9545,-0.9666,-1.1015,-1.2142,-1.3051,0.0,0.0,0.0,0.0,0.0,0.0,0.0,0.0,0.0,0.0,0.0,0.0,0.0,0.0,0.0,0.0,0.0,0.0,0.0,0.0,0.0,1.7069,1.5833,1.5167,1.5099,1.4551,1.4186,1.4016,1.3036,1.2235,1.168,1.1384,1.1024,1.0724,1.0661,1.0421,1.018,1.0047,1.004,1.004,0.9913,0.9786,0.9594,0.9402,0.9274,0.9204,0.8947,0.0,0.0,0.0,0.0,0.0,0.0,0.0,0.9017,0.9145,0.9417,0.981,0.995,0.0,0.0,0.9728,0.0,0.9132,0.8444,0.8384,0.8373,0.7771,0.6731,0.5908,0.5908,0.573,0.5552,0.5371,0.5104,0.4835,0.475,0.448,0.43,0.43,0.3494,0.2867,0.2867,0.1973,0.1256,0.1076,0.0359,0.0,0.0,-0.0718,-0.1166,-0.1436,-0.1436,-0.1614,-0.2152,-0.3273,-0.4395,-0.5621,-0.6466,-0.7185,-0.7752,-0.7811,-0.7953,-0.8255,-0.8327,-0.8479,-0.8551,-0.8627,-0.8703,-0.8722,-0.9169,-0.9267,-0.9378,-1.0933,-1.2073,-1.2923,0.0,0.0,0.0,0.0,0.0,0.0,0.0,0.0,0.0,0.0,0.0,0.0,0.0,0.0,0.0,0.0,0.0,0.0,0.0,0.0,0.0,1.7895,1.7034,1.6539,1.6492,1.6093,1.5853,1.5796,1.5031,0.0,0.0,0.0,1.2296,1.1819,1.1819,1.1586,1.1108,1.1108,1.1052,1.0989,1.08,1.0548,1.0231,1.0098,0.9901,0.9652,0.9524,0.9524,0.9582,0.9274,0.0,0.0,0.0,0.0,0.921,0.9338,0.9747,1.014,1.0251,0.0,1.0974,1.0349,1.039,0.0,0.972,0.9683,0.9715,0.963,0.7921,0.6346,0.6346,0.5997,0.5644,0.5463,0.528,0.5013,0.4748,0.4567,0.4389,0.43,0.3494,0.2867,0.2867,0.1973,0.1436,0.1436,0.0628,0.009,0.0,-0.0359,-0.0807,-0.1346,-0.1436,-0.1793,-0.2599,-0.2857,-0.3879,-0.5703,-0.5913,-0.6525,-0.7484,-0.7679,-0.7906,-0.803,-0.8291,-0.8381,-0.8458,-0.8607,-0.8779,-0.8826,-0.9006,-0.9077,-0.9284,-1.0853,-1.1827,-1.2624,0.0,0.0,0.0,0.0,0.0,0.0,0.0,0.0,0.0,0.0,0.0,0.0,0.0,0.0,0.0,0.0,0.0,0.0,2.0636,0.0,0.0,1.8744,1.8584,1.837,1.8015,1.7809,1.7633,1.7501,0.0,0.0,0.0,0.0,0.0,1.2967,0.0,1.3166,1.3105,1.3105,1.287,1.252,1.2458,1.1911,1.1115,1.1115,1.08,1.0428,1.0238,1.0174,1.0174,0.9919,0.9856,0.0,0.0,0.0,0.9856,0.9734,0.9956,1.0178,0.0,0.0,1.1097,0.0,1.1516,1.1531,0.0,0.0,1.0849,1.0005,0.8532,0.7312,0.7312,0.6438,0.5733,0.5644,0.5463,0.528,0.501,0.4746,0.4569,0.43,0.3494,0.2867,0.2867,0.1973,0.1436,0.1436,0.0897,0.0449,0.0,-0.009,-0.0538,-0.1345,-0.1436,-0.1436,-0.1614,-0.2637,-0.3299,-0.3633,-0.5488,-0.6767,-0.7488,-0.7729,-0.7799,-0.7889,-0.8043,-0.8352,-0.8672,-0.8672,-0.8927,-0.9242,-0.9271,-0.9285,-0.9337,-1.0008,-1.0719,-1.1649,0.0,0.0,0.0,0.0,0.0,0.0,0.0,0.0,0.0,0.0,0.0,0.0,0.0,0.0,0.0,2.2212,2.1384,2.1048,2.1398,2.1137,2.0657,2.0004,1.9426,1.902,1.8862,1.8513,1.8298,1.8178,0.0,0.0,0.0,1.6567,1.5476,0.0,0.0,0.0,0.0,1.4287,1.4168,1.3999,1.3999,1.3571,1.2923,1.2618,1.2205,1.1725,1.1115,1.0933,1.0933,1.0491,1.0371,1.0301,1.0174,0.0,0.0,0.0,1.0055,1.0233,1.0435,1.0894,1.1291,0.0,1.1498,1.1611,1.1462,1.1632,1.1759,1.1547,1.0269,0.9052,0.8536,0.7837,0.7139,0.6612,0.6343,0.5897,0.5097,0.4837,0.4569,0.43,0.3494,0.2867,0.2867,0.1973,0.1436,0.1436,0.0987,0.0538,0.0,0.0,-0.0269,-0.0987,-0.1256,-0.1436,-0.1436,-0.1953,-0.253,-0.3233,-0.5224,-0.6444,-0.6791,-0.7517,-0.7737,-0.7646,-0.7884,-0.806,-0.8392,-0.8634,-0.8907,-0.9173,-0.9377,-0.9507,-0.954,-1.0434,-1.1,-1.1431,0.0,0.0,0.0,0.0,0.0,0.0,0.0,0.0,0.0,0.0,0.0,0.0,0.0,0.0,0.0,0.0,2.2315,2.1924,2.2317,2.2161,2.1738,2.114,2.0495,2.008,1.9851,1.9347,1.9097,0.0,0.0,0.0,1.8555,1.8394,1.7611,0.0,1.611,1.5823,0.0,0.0,1.5515,1.54,1.54,1.5051,1.4514,1.404,1.3631,1.3235,1.2328,1.2151,1.2158,1.1476,1.117,1.1052,1.0982,1.0737,0.0,0.0,0.0,0.0,0.0,0.0,1.1267,1.1184,1.1377,1.16,0.0,0.0,1.2288,1.2548,1.1651,1.0636,1.0009,0.9152,0.8281,0.7577,0.7136,0.6514,0.5539,0.501,0.4659,0.43,0.3494,0.2867,0.2867,0.1973,0.1436,0.1436,0.1076,0.0628,0.0,0.0,-0.0269,-0.0897,-0.1256,-0.1436,-0.1436,-0.1421,-0.1992,-0.3162,-0.4811,-0.5826,-0.6167,-0.7277,-0.7659,-0.7488,-0.7741,-0.794,-0.8226,-0.8546,-0.8824,-0.9096,-0.9498,-0.9559,-0.9667,-1.0641,-1.0945,-1.0989,0.0,0.0,0.0,0.0,0.0,0.0,0.0,0.0,0.0,0.0,0.0,0.0,0.0,2.4761,2.4053,2.4227,2.3584,2.3214,2.3318,2.3623,2.3216,2.1983,2.2328,0.0,2.1313,2.0894,2.0696,0.0,0.0,0.0,1.9319,1.8738,1.859,1.8762,1.8061,1.7512,1.7067,0.0,0.0,1.6708,1.6708,1.6224,1.5505,1.5284,1.5051,1.4749,1.4227,1.4049,1.399,1.327,1.2679,1.2266,1.2704,1.2343,1.1802,0.0,0.0,0.0,0.0,1.0821,0.0,1.1383,1.1522,1.16,0.0,1.1932,1.2017,1.2282,1.1916,1.1567,1.1821,1.0028,0.8456,0.8456,0.7665,0.6871,0.6416,0.5536,0.4832,0.4387,0.3494,0.2867,0.2867,0.1973,0.1436,0.1436,0.1346,0.0987,0.009,0.0,-0.0449,-0.1345,-0.1346,-0.1436,-0.1436,-0.138,-0.1835,-0.2925,-0.4131,-0.511,-0.5928,-0.7194,-0.7659,-0.75,-0.7841,-0.816,-0.8427,-0.8587,-0.8949,-0.9297,-0.9475,-0.9559,-0.9672,-0.9962,-0.9914,-0.9856,0.0,0.0,0.0,0.0,0.0,0.0,0.0,0.0,0.0,0.0,0.0,0.0,0.0,2.5407,2.4788,2.4642,2.4175,2.3912,2.4013,2.4059,2.3861,2.3303,2.3113,2.277,2.2249,2.1636,0.0,0.0,0.0,2.022,2.022,2.0016,1.9914,1.9862,1.915,1.862,1.8387,1.8643,0.0,0.0,1.7941,1.7644,1.7169,1.6768,1.644,1.6053,1.5332,1.4876,1.4601,1.4109,1.358,1.3105,1.3295,1.3,1.2581,0.0,0.0,0.0,0.0,0.0,0.0,1.2123,1.1702,1.1335,1.1612,1.1799,1.1999,1.2258,1.2032,1.1929,1.194,1.1084,1.012,0.9506,0.889,0.8097,0.7217,0.616,0.5366,0.5013,0.376,0.2867,0.2867,0.1973,0.1256,0.0987,0.0987,0.0628,0.0,-0.027,-0.0629,-0.0897,-0.0987,-0.1069,-0.1406,-0.1385,-0.1603,-0.2114,-0.3081,-0.4077,-0.5154,-0.6238,-0.7021,-0.7496,-0.7744,-0.7996,-0.8193,-0.8476,-0.8806,-0.9074,-0.9416,-0.9584,-0.9593,-0.9923,-0.9823,-0.9658,0.0,0.0,0.0,0.0,0.0,0.0,0.0,0.0,0.0,0.0,0.0,0.0,0.0,0.0,2.5848,2.5614,2.534,2.5062,2.4925,2.4863,2.461,2.4096,2.3791,2.3348,2.2844,0.0,0.0,0.0,0.0,0.0,0.0,2.0947,2.0885,2.0723,2.032,1.9863,0.0,0.0,0.0,1.8934,1.8721,1.8506,1.8344,1.8111,1.7902,1.7599,1.7148,1.6736,1.6394,1.6019,1.5267,1.4496,1.4625,1.4252,1.3623,0.0,0.0,0.0,1.2956,0.0,0.0,0.0,1.2058,1.1489,1.1708,1.1676,1.1751,1.2107,1.191,1.1753,1.2009,1.1613,1.1089,1.0472,0.9854,0.9061,0.8101,0.7044,0.6163,0.5813,0.4295,0.3224,0.3224,0.2152,0.1256,0.0987,0.0628,0.0359,0.0,-0.027,-0.0629,-0.0897,-0.0891,-0.1058,-0.1391,-0.137,-0.1425,-0.1547,-0.2417,-0.3271,-0.4115,-0.522,-0.6198,-0.7115,-0.7369,-0.7686,-0.7939,-0.8304,-0.8514,-0.8641,-0.9194,-0.9375,-0.9411,-0.9651,-0.9681,-0.9559,0.0,0.0,0.0,0.0,0.0,0.0,0.0,0.0,0.0,0.0,0.0,0.0,0.0,0.0,0.0,2.7213,2.7083,2.6707,2.5966,2.6106,2.564,2.4318,2.4374,2.4032,2.3172,0.0,0.0,0.0,0.0,0.0,0.0,0.0,2.1423,2.1423,2.1664,2.1237,2.0232,0.0,1.9604,1.9552,1.9052,1.881,1.8881,1.9294,1.945,1.9465,1.9657,1.9654,1.9429,1.8988,1.774,1.6517,1.6777,1.6128,0.0,0.0,0.0,0.0,0.0,0.0,0.0,0.0,1.2621,1.2074,1.2231,1.1713,1.1274,1.1805,1.1519,1.1356,1.1849,1.1607,1.1354,1.1262,1.0559,0.968,0.9065,0.8101,0.7224,0.6517,0.4917,0.3937,0.3937,0.2419,0.1436,0.1436,0.0538,0.0,0.0,0.0,-0.0449,-0.1345,-0.1321,-0.1306,-0.139,-0.1334,-0.1305,-0.1303,-0.2303,-0.2779,-0.2922,-0.4214,-0.5246,-0.6197,-0.6671,-0.7242,-0.7768,-0.8011,-0.8095,-0.8213,-0.8739,-0.902,-0.9046,-0.9247,-0.9404,-0.9569,0.0,0.0,0.0,0.0,0.0,0.0,0.0,0.0,0.0,0.0,0.0,0.0,0.0,0.0,2.7213,2.7213,2.7181,2.7068,2.6839,2.6556,2.6212,2.5819,2.5368,2.4863,2.4266,0.0,0.0,0.0,0.0,0.0,0.0,0.0,0.0,0.0,2.1746,2.1746,2.1575,2.0696,0.0,1.985,1.9316,1.94,1.9806,1.9812,1.9977,2.0268,2.0238,1.9889,1.9488,1.9369,1.8529,1.7429,1.6698,0.0,0.0,0.0,0.0,0.0,1.4935,0.0,0.0,0.0,0.0,0.0,1.2378,1.2315,1.2133,1.1684,1.1703,1.1752,1.1729,1.1657,1.1527,1.1348,1.0819,1.0202,0.9772,0.8723,0.7845,0.7224,0.5891,0.5003,0.5003,0.3491,0.2151,0.1433,0.0806,0.0359,0.0,0.0,-0.009,-0.0359,-0.1071,-0.1414,-0.1393,-0.1374,-0.1356,-0.1335,-0.1574,-0.2153,-0.291,-0.3492,-0.4251,-0.5277,-0.6226,-0.6781,-0.7051,-0.8058,-0.8426,-0.8524,-0.8793,-0.8888,-0.8931,-0.9329,-0.9525,-0.9607,0.0,0.0,0.0,0.0,0.0,0.0,0.0,0.0,0.0,0.0,0.0,0.0,0.0,0.0,2.7713,2.7612,2.763,2.7552,2.743,2.697,2.664,2.6454,2.5848,2.5269,2.4808,0.0,0.0,0.0,0.0,0.0,0.0,0.0,0.0,0.0,0.0,0.0,0.0,0.0,2.0858,2.0623,2.0153,2.0192,2.0569,2.0736,2.099,2.1226,2.1352,2.1081,2.0721,2.0661,1.9821,1.8628,1.7379,1.6698,0.0,1.5967,0.0,0.0,0.0,0.0,0.0,0.0,0.0,0.0,1.3454,1.3233,1.2962,1.256,1.223,1.2005,1.1944,1.1526,1.1253,1.1182,1.0766,1.0363,1.0024,0.9253,0.8464,0.8025,0.6688,0.58,0.58,0.4378,0.313,0.2234,0.17,0.1344,0.1256,0.0449,0.0269,0.0896,-0.0267,-0.0969,-0.1393,-0.138,-0.1364,-0.1263,-0.1263,-0.1607,-0.2298,-0.264,-0.3336,-0.4306,-0.5248,-0.5846,-0.6288,-0.7508,-0.8123,-0.8345,-0.8591,-0.8706,-0.8801,-0.9139,-0.9486,-0.9734,0.0,0.0,0.0,0.0,0.0,0.0,0.0,0.0,0.0,0.0,0.0,0.0,0.0,0.0,0.0,0.0,2.8209,2.8081,2.7789,2.7317,2.6952,2.6623,2.6033,2.5497,2.5044,2.4655,0.0,0.0,0.0,0.0,0.0,0.0,0.0,0.0,0.0,0.0,0.0,0.0,2.1835,2.1835,2.134,2.1158,2.1285,2.185,2.2138,2.2355,2.2627,2.2604,2.242,2.2185,2.1187,1.9857,1.8566,1.8048,1.7719,1.7086,1.6845,0.0,0.0,0.0,0.0,0.0,1.5427,0.0,1.4893,1.425,1.3689,1.3821,1.2996,1.2261,1.2353,1.1478,1.086,1.0912,1.0548,1.0139,1.0009,0.9607,0.9087,0.8652,0.7397,0.6593,0.6593,0.5265,0.4287,0.3748,0.3126,0.2773,0.2867,0.1436,0.1077,0.2149,0.0881,-0.0175,-0.1135,-0.1285,-0.1358,-0.1273,-0.1273,-0.1371,-0.1395,-0.1918,-0.2642,-0.3491,-0.403,-0.4832,-0.5808,-0.6697,-0.7415,-0.7923,-0.8256,-0.8414,-0.8618,-0.8877,-0.9339,-0.989,0.0,0.0,0.0,0.0,0.0,0.0,0.0,0.0,0.0,0.0,0.0,0.0,0.0,0.0,0.0,0.0,2.8273,2.8246,2.8174,2.78,2.7487,2.7313,2.6673,2.6229,2.5964,2.546,2.5107,0.0,0.0,0.0,0.0,0.0,0.0,0.0,0.0,0.0,0.0,0.0,2.3361,2.372,2.2396,2.2242,2.2764,2.291,2.323,2.3541,2.304,2.2726,2.2469,2.1776,2.1063,2.0255,1.9474,1.8757,1.8089,1.7719,1.7211,1.686,0.0,0.0,1.6141,1.6606,1.6192,0.0,1.5035,1.476,1.4418,1.3689,1.3532,1.3265,1.2254,1.206,1.1748,1.0854,1.0118,0.98,0.9918,0.9607,0.9087,0.8652,0.8028,0.7584,0.7584,0.6248,0.5722,0.6269,0.5557,0.4393,0.2957,0.395,0.4041,0.2777,0.2052,0.1336,0.0534,-0.071,-0.1418,-0.1418,-0.1418,-0.1421,-0.1427,-0.1962,-0.2323,-0.2511,-0.3762,-0.4832,-0.5808,-0.6697,-0.7193,-0.7316,-0.8233,-0.8597,-0.8808,-0.9024,-0.9522,-1.0099,0.0,0.0,0.0,0.0,0.0,0.0,0.0,0.0,0.0,0.0,0.0,0.0,0.0,0.0,0.0,0.0,0.0,0.0,0.0,2.8027,2.7713,2.7589,2.7129,2.6674,2.6368,2.5961,2.5626,2.5355,0.0,0.0,0.0,0.0,0.0,0.0,0.0,0.0,0.0,2.4185,2.4474,2.4732,2.3512,2.3478,2.4166,2.4162,2.423,2.4266,2.3826,2.3424,2.2896,2.2149,2.1735,2.1448,2.0694,2.0086,1.9585,1.8903,1.8328,1.7926,1.777,1.7264,1.6864,1.7005,1.6752,0.0,0.0,1.5551,1.5338,1.4776,1.4172,1.3615,1.2947,1.2391,1.1701,1.0745,1.015,0.9683,0.9492,0.9196,0.8828,0.8656,0.8212,0.7944,0.7944,0.6962,0.6523,0.6713,0.6275,0.5471,0.4389,0.5216,0.531,0.431,0.359,0.269,0.1613,0.0269,-0.0538,-0.0718,-0.1166,-0.1436,-0.1436,-0.1974,-0.2243,-0.2243,-0.3229,-0.4121,-0.5099,-0.5985,-0.6697,-0.7231,-0.8208,-0.8621,-0.8714,-0.9076,-0.944,-0.9815,2.8407,0.0,0.0,0.0,0.0,0.0,0.0,0.0,0.0,0.0,0.0,0.0,0.0,0.0,0.0,0.0,0.0,0.0,2.8646,2.821,2.7943,2.7818,2.7474,2.7115,2.6723,2.642,2.6033,2.5551,0.0,0.0,0.0,0.0,0.0,0.0,0.0,0.0,0.0,0.0,2.5481,2.5746,2.4897,2.4905,2.5412,2.5382,2.5231,2.4951,2.4794,2.4176,2.3437,2.2896,2.2653,2.2457,2.1776,2.1388,2.0996,2.0118,1.9605,1.9131,1.8472,1.8115,1.788,1.7461,1.7241,1.693,0.0,0.0,0.0,1.5867,1.4919,1.4042,1.3745,1.2799,1.177,1.0781,1.039,0.992,0.9299,0.8939,0.8661,0.8556,0.812,0.7856,0.7856,0.7319,0.6874,0.6432,0.6266,0.6005,0.5733,0.5665,0.5673,0.5665,0.4585,0.3413,0.2152,0.1166,0.0359,-0.0269,-0.1076,-0.1436,-0.1436,-0.1885,-0.2154,-0.2243,-0.2604,-0.3408,-0.4387,-0.5097,-0.6074,-0.7231,-0.8208,-0.8609,-0.8706,-0.8991,-0.9328,-0.9712,2.9457,2.9416,0.0,0.0,0.0,0.0,0.0,0.0,0.0,0.0,0.0,0.0,2.9181,2.9052,2.8997,2.8993,2.9082,2.9038,2.879,2.8652,2.8496,2.8228,2.7904,2.7607,2.7404,2.708,2.6657,2.6123,2.5875,0.0,0.0,0.0,0.0,0.0,2.4926,0.0,0.0,2.6068,2.6572,2.7661,2.7211,2.6771,2.6406,2.6251,2.6176,2.6068,2.5618,2.4824,2.3917,2.3846,2.3292,2.2616,2.2247,2.1839,2.1439,2.0892,2.0377,1.9835,1.9309,1.9063,1.8874,1.8096,1.7805,1.7571,1.6982,0.0,1.6272,1.607,0.0,1.5213,1.3962,0.0,0.0,1.1073,1.0889,1.074,1.0174,0.9499,0.8946,0.8341,0.8028,0.7768,0.7591,0.7149,0.67,0.6432,0.626,0.5997,0.5733,0.5735,0.5738,0.5735,0.3944,0.2776,0.2145,0.1613,0.0448,-0.1256,-0.1345,-0.1436,-0.1436,-0.1705,-0.1974,-0.2243,-0.2424,-0.3229,-0.43,-0.4387,-0.5542,-0.7231,-0.8208,-0.8759,-0.9043,-0.9084,-0.9486,-0.9964,2.982,2.9716,0.0,0.0,2.9681,0.0,0.0,0.0,0.0,0.0,0.0,3.1038,3.0687,3.0717,3.0764,3.0791,3.0791,3.0665,3.0443,3.0296,0.0,2.9773,2.913,2.8663,2.8375,2.7648,2.7095,2.6657,2.6454,0.0,0.0,0.0,0.0,0.0,2.575,2.6181,2.6503,2.7141,2.7828,2.8446,2.8262,2.7936,2.7567,2.7208,2.6811,2.6336,2.5783,2.5329,2.4993,2.4439,2.4047,2.3603,2.2848,2.2347,2.1963,2.1336,2.0816,2.0302,1.9901,1.9456,1.9032,1.8434,1.8135,1.7748,1.7084,1.6769,1.6551,1.6202,0.0,0.0,0.0,0.0,0.0,0.0,1.1646,1.117,1.0473,1.0027,0.9614,0.9033,0.8221,0.7537,0.7194,0.6923,0.6672,0.6325,0.6128,0.5997,0.5733,0.5738,0.5741,0.5741,0.4752,0.4123,0.3764,0.2329,0.0986,-0.0269,-0.1076,-0.1436,-0.1436,-0.1705,-0.1884,-0.1974,-0.2334,-0.3138,-0.4117,-0.4208,-0.5099,-0.634,-0.6786,-0.7667,-0.8816,-0.9023,-0.9288,-0.954,3.0056,0.0,0.0,2.9902,2.9902,2.9978,3.0189,3.0753,3.1105,3.1017,3.166,3.2024,3.1819,3.193,3.2037,3.2105,3.2025,3.188,3.1689,3.1565,3.1272,3.0902,3.0315,2.9825,2.9461,2.8517,2.7874,2.7471,2.7057,0.0,0.0,0.0,0.0,0.0,0.0,2.6767,2.7049,2.7924,2.857,2.8984,2.8914,2.8732,2.8448,2.783,2.724,2.6669,2.6283,2.6054,2.5906,2.5231,2.4894,2.4567,2.3531,2.3005,2.2702,2.1839,2.1336,2.0955,2.0431,2.0009,1.9554,1.8875,1.8542,1.8174,1.7413,1.7143,1.6951,1.6572,1.6154,0.0,0.0,0.0,1.3905,0.0,0.0,1.1776,1.0906,1.0627,1.0179,0.9331,0.8167,0.7264,0.6929,0.6763,0.6589,0.6278,0.6135,0.6031,0.5769,0.5808,0.5741,0.5744,0.5473,0.5203,0.4665,0.3044,0.17,0.0627,-0.0448,-0.1076,-0.1436,-0.1615,-0.1705,-0.1794,-0.2154,-0.278,-0.3492,-0.3673,-0.4297,-0.5184,-0.5184,-0.6251,-0.7893,-0.8498,-0.8937,-0.9308,3.0367,3.0118,0.0,2.9902,2.9902,3.0151,3.0947,3.1638,3.2066,3.2045,3.2586,3.2655,3.1875,3.193,3.2037,3.2105,3.2103,3.2044,3.1904,3.1883,3.164,3.1101,3.1195,3.1046,3.0628,2.9858,2.9183,2.8666,2.773,0.0,0.0,0.0,0.0,0.0,2.6633,2.7308,2.877,2.822,2.8561,2.9483,2.947,2.9319,2.8935,2.7695,2.7284,2.7401,2.7473,2.7086,2.6457,2.6457,2.596,2.5231,2.4253,2.3962,2.3741,2.2531,2.2135,2.1937,2.1094,2.1059,2.0897,1.9613,1.924,1.9024,1.8411,1.7844,1.7442,1.748,1.7046,1.6491,1.5896,1.509,1.4201,0.0,0.0,0.0,0.0,1.1347,1.0472,0.886,0.7586,0.6929,0.6929,0.6757,0.6528,0.6306,0.6257,0.607,0.5895,0.6016,0.5997,0.5733,0.5654,0.5109,0.3929,0.3486,0.2504,0.0984,0.0537,-0.0269,-0.1436,-0.1436,-0.1525,-0.1794,-0.1794,-0.1974,-0.2243,-0.2243,-0.2957,-0.3937,-0.3937,-0.4739,-0.5927,-0.729,-0.8437,-0.9468,3.1256,0.0,3.0918,3.033,3.0234,3.0475,3.1196,3.2329,3.3033,3.2914,3.343,3.3677,3.3417,3.3445,3.3496,3.3608,3.3608,3.3564,3.3431,3.3431,3.3314,3.3015,3.2441,3.1991,3.1819,3.0902,3.0012,2.9148,2.8627,0.0,0.0,0.0,0.0,0.0,0.0,2.8036,2.8403,2.8871,2.9214,2.947,2.912,2.9028,2.8982,2.7929,2.7595,2.7695,2.7423,2.7321,2.7152,2.6669,2.6336,2.6014,2.5161,2.4811,2.4513,2.3564,2.316,2.2859,2.1975,2.1475,2.0967,2.0074,1.9557,1.9151,1.8635,1.8289,1.7975,1.7944,1.734,1.6637,1.6125,0.0,0.0,0.0,0.0,0.0,0.0,1.1471,1.0464,0.9859,0.8669,0.7812,0.7617,0.762,0.7403,0.6968,0.7108,0.6915,0.615,0.6101,0.6083,0.5997,0.5824,0.5468,0.5109,0.4202,0.3306,0.2504,0.1877,0.0894,-0.0179,-0.0179,-0.0717,-0.1525,-0.1705,-0.1884,-0.1974,-0.2154,-0.2512,-0.2959,-0.2959,-0.3673,-0.4945,-0.6171,-0.6856,-0.7403,3.2128,3.2116,3.1955,3.1391,3.1295,3.1443,3.187,3.2931,3.3637,3.3429,3.3952,3.4293,3.4221,3.4197,3.4245,3.4404,3.434,3.4316,3.4269,3.4269,3.4197,3.3998,3.3405,3.2991,3.2766,3.1846,3.0998,3.0225,2.9324,2.8767,0.0,0.0,0.0,0.0,0.0,2.8688,2.8837,2.9286,2.9377,2.9198,2.9044,2.9136,2.9289,2.8496,2.8061,2.7815,2.761,2.7524,2.7473,2.7049,2.6878,2.6774,2.6,2.5714,2.5425,2.4469,2.3949,2.3551,2.2811,2.2025,2.1325,2.0613,2.0031,1.9533,1.9274,1.8929,1.859,1.8629,1.7924,1.7187,1.6607,0.0,0.0,0.0,0.0,0.0,0.0,1.1694,1.0813,1.0529,0.9394,0.853,0.8243,0.8345,0.8208,0.7824,0.8135,0.7835,0.6749,0.6766,0.6609,0.6083,0.5908,0.5824,0.5741,0.4921,0.4383,0.4119,0.3217,0.2322,0.1431,0.0715,-0.0,-0.0806,-0.1435,-0.1697,-0.1687,-0.1878,-0.2055,-0.222,-0.2327,-0.2871,-0.3782,-0.5055,-0.5839,-0.6313,3.2935,3.2993,3.3025,3.2974,3.2968,3.2968,3.2968,3.3537,3.3903,3.3713,3.422,3.4495,3.4245,3.4197,3.4245,3.4363,3.4269,3.4245,3.4386,3.4386,3.4269,3.4023,3.4148,3.3947,3.3452,3.2679,3.2072,3.1689,2.9854,0.0,0.0,0.0,0.0,0.0,2.9336,2.9299,3.0067,2.9508,2.9058,2.8779,2.9289,2.9621,2.9814,2.9319,2.8543,2.783,2.8122,2.789,2.7437,2.7575,2.761,2.7473,2.6774,2.6563,2.6336,2.5301,2.457,2.4021,2.3479,2.2811,2.2049,2.1313,2.0613,2.0149,2.0334,1.9755,1.928,1.9587,1.8794,1.7933,1.7345,1.5976,0.0,0.0,0.0,0.0,0.0,1.1929,1.1421,1.0821,0.9683,0.8982,0.8992,0.8996,0.8911,0.8794,0.9142,0.8882,0.7749,0.8068,0.7647,0.6257,0.6171,0.5997,0.5733,0.5733,0.5738,0.5746,0.4561,0.3751,0.3309,0.143,0.0536,0.0357,-0.0805,-0.1328,-0.1305,-0.1419,-0.1504,-0.1744,-0.2045,-0.2334,-0.2713,-0.4034,-0.525,-0.6315,3.3561,3.4275,3.4506,3.3906,3.3799,3.3807,3.3853,3.4438,3.4849,3.48,3.4698,3.4561,3.4495,3.4316,3.4221,3.4245,3.4221,3.4221,3.4245,3.4245,3.4269,3.4293,3.4221,3.4124,3.3921,3.347,3.2759,3.1762,3.0433,0.0,2.9824,0.0,0.0,0.0,0.0,3.0031,3.0057,3.017,2.9848,2.9241,2.9198,2.935,2.9621,2.9665,2.9289,2.8701,2.8415,2.8076,2.778,2.783,2.766,2.7437,2.7372,2.7306,2.7137,2.6215,2.5823,2.5494,2.457,2.3715,2.2895,2.2299,2.1204,2.0424,2.0705,2.0073,1.9605,2.0227,1.9184,1.7933,1.7411,1.5968,1.4689,0.0,0.0,0.0,0.0,1.1855,1.1583,1.1277,1.0825,1.0368,0.9844,0.9781,0.9772,0.963,0.9792,0.9617,0.8882,0.8884,0.857,0.7654,0.7485,0.6956,0.6257,0.6083,0.5997,0.6,0.546,0.4739,0.3751,0.304,0.2305,0.1311,0.0175,-0.0349,-0.0521,-0.1118,-0.1478,-0.1778,-0.2024,-0.2435,-0.3007,-0.3321,-0.4155,-0.5134,3.4381,3.4963,3.5136,3.4691,3.4611,3.4654,3.471,3.5043,3.5273,3.5209,3.5001,3.4811,3.4623,3.4473,3.4316,3.4221,3.4197,3.4197,3.4197,3.4197,3.4221,3.4316,3.4245,3.4148,3.4023,3.3834,3.3322,3.2541,3.1003,0.0,3.046,0.0,0.0,0.0,0.0,3.0108,3.0258,3.0237,3.0054,2.9705,2.9364,2.9409,0.0,2.971,2.9515,2.9273,2.9074,2.8638,2.8158,2.8076,2.791,2.774,2.7625,2.7625,2.7509,2.6945,2.6563,2.6176,2.5481,2.4584,2.3715,2.3323,2.2345,2.1499,2.1616,2.0994,2.0363,2.0404,1.9591,1.848,1.7456,1.6293,1.5242,0.0,0.0,0.0,1.2305,1.2003,1.1781,1.1706,1.1484,1.1241,1.0854,1.0713,1.0661,1.0524,1.0747,1.0521,0.9857,0.9922,0.963,0.8873,0.8707,0.8265,0.765,0.7132,0.6786,0.6697,0.6171,0.5458,0.4648,0.3986,0.3243,0.2338,0.1201,0.0599,0.0428,-0.0427,-0.0866,-0.1061,-0.1853,-0.2446,-0.2917,-0.301,-0.3465,-0.4074,3.4979,3.5165,3.5226,3.5277,3.5277,3.5308,3.5383,3.5398,3.535,3.5242,3.519,3.5035,3.471,3.4647,3.4539,3.4269,3.4245,3.4245,3.4197,3.4197,3.4197,3.4197,3.4197,3.4124,3.3947,3.3895,3.378,3.3491,3.1559,0.0,0.0,0.0,0.0,0.0,0.0,2.9966,3.0625,3.014,3.0027,3.0172,2.9645,2.9556,2.9705,2.9515,2.9425,2.9486,2.9726,2.9289,2.8559,2.8414,2.8268,2.8122,2.7775,2.7625,2.7575,2.7437,2.6959,2.6404,2.6244,2.5453,2.461,2.4425,2.3695,2.2991,2.2803,2.2158,2.1314,2.0426,1.9958,1.9163,1.7579,1.6747,1.5721,0.0,1.3178,1.2686,1.2654,1.2284,1.2068,1.2068,1.1913,0.0,1.1713,1.1558,1.1409,1.1409,1.1645,1.1498,1.0787,1.0958,1.0695,0.9794,0.9826,0.9662,0.93,0.844,0.7921,0.7749,0.6786,0.6171,0.5905,0.455,0.3892,0.3531,0.2281,0.1677,0.1514,0.0514,0.0087,-0.0174,-0.1423,-0.2181,-0.2592,-0.2867,-0.3064,-0.3108,3.416,3.4787,3.5209,3.5209,3.5209,3.5242,3.5308,3.532,3.5315,3.5285,3.5155,3.5034,3.4999,3.4851,3.4711,3.4539,3.4517,3.445,3.4221,3.4197,3.4197,3.4197,3.4197,3.4173,3.4148,3.3921,3.3689,3.3504,3.2293,3.1649,0.0,0.0,0.0,0.0,0.0,3.0702,3.1055,3.0559,3.0393,3.0393,2.9673,2.9406,2.9467,2.9243,2.9167,2.9167,2.9213,2.9152,2.8997,2.9059,2.8559,2.7978,2.8057,2.7875,2.7575,2.7437,2.7284,2.713,2.6937,2.6229,2.5536,2.5273,2.4635,2.3904,2.3034,2.2672,2.2182,2.0946,2.0018,1.9102,1.8099,1.6661,1.5287,1.3985,1.355,1.3286,1.3003,1.2603,1.2387,1.2387,1.2235,1.2056,1.1955,1.1781,1.1632,1.1632,1.1683,1.1759,1.1809,1.2165,1.1863,1.0936,1.1219,1.0794,0.9744,0.9488,0.9231,0.9231,0.7925,0.7224,0.7132,0.5597,0.4891,0.472,0.3608,0.3016,0.285,0.1937,0.0853,-0.0261,-0.0622,-0.1363,-0.2315,-0.2592,-0.273,-0.2798,3.4706,3.4998,3.5196,3.5196,3.5196,3.5215,3.5248,3.5261,3.5254,3.53,3.5219,3.5119,3.5051,3.4963,3.4812,3.4561,3.4539,3.445,3.4221,3.4197,3.4197,3.4197,3.4197,3.4173,3.4148,3.4023,3.3876,3.3716,3.2683,3.2058,0.0,0.0,0.0,2.9809,0.0,3.0708,3.119,3.0958,3.0878,3.0797,3.0208,2.9978,2.9935,2.9438,2.9273,2.9227,2.9121,2.9121,2.9106,2.9106,2.8904,2.8606,2.8479,2.8204,2.7875,2.771,2.7473,2.7284,2.7144,2.6616,2.6162,2.6136,2.56,2.4836,2.3966,2.3406,2.2662,2.1339,2.04,1.9419,1.8152,1.6839,1.563,1.4749,1.4387,1.404,1.3656,1.329,1.301,1.2932,1.2759,1.2563,1.2479,1.2378,1.2157,1.1855,1.1855,1.1909,1.2056,1.2419,1.2451,1.2135,1.2397,1.2272,1.174,1.1058,1.0621,1.0438,0.9226,0.8532,0.8345,0.6887,0.6187,0.6036,0.4797,0.4219,0.401,0.2987,0.1803,0.0694,0.0347,-0.0088,-0.0726,-0.1439,-0.1827,-0.2068,3.5378,3.5273,3.5183,3.5183,3.5183,3.5183,3.5183,3.5179,3.5209,3.527,3.5285,3.5219,3.5069,3.4997,3.4851,3.4564,3.4498,3.4386,3.4173,3.4148,3.4148,3.4148,3.4148,3.4124,3.4074,3.4074,3.3998,3.3895,3.304,3.2402,3.1974,0.0,0.0,3.0167,3.0191,3.0611,3.1291,3.123,3.119,3.1151,3.0699,3.0518,3.0435,2.9717,2.9406,2.9332,2.9152,2.9075,2.8982,2.8873,2.9013,2.9152,2.8889,2.8574,2.8253,2.7963,2.763,2.7321,2.7181,2.6907,2.663,2.6712,2.6384,2.5774,2.4805,2.4141,2.3311,2.1818,2.0885,1.9788,1.8204,1.7279,1.6447,1.5848,1.5415,1.4932,1.4474,1.4073,1.3717,1.3495,1.33,1.3072,1.2935,1.29,1.2746,1.2439,1.2298,1.2188,1.2196,1.2616,1.2827,1.2971,1.3304,1.3483,1.3398,1.2448,1.1923,1.1649,1.0443,0.9744,0.9552,0.8255,0.7584,0.7314,0.6077,0.5333,0.483,0.3879,0.2928,0.1976,0.1437,0.1204,0.0887,-0.0087,-0.0622,-0.0827,3.5311,3.5209,3.5111,3.5111,3.5111,3.5111,3.5111,3.511,3.5145,3.5209,3.5209,3.5226,3.5277,3.5051,3.4851,3.4694,3.4464,3.4237,3.4049,3.4023,3.4023,3.4023,3.4023,3.4023,3.3998,3.3947,3.3921,3.3895,3.3742,3.2892,3.1386,0.0,3.183,3.1418,3.0802,3.0971,3.162,3.1329,3.119,3.1151,3.0699,3.0518,3.0435,2.9968,2.9483,2.912,2.9136,2.8951,2.8748,2.8732,2.8826,2.8951,2.9198,2.8997,2.8543,2.8061,2.7849,2.773,2.7196,2.7003,2.6884,2.6578,2.6837,2.6708,2.4985,2.4893,2.4646,2.2645,2.1141,1.9827,1.8562,1.8152,1.7656,1.6992,1.6497,1.6025,1.5325,1.4962,1.4598,1.3888,1.3775,1.3544,1.2956,1.29,1.3185,1.3753,1.3178,1.276,1.2566,1.311,1.3286,1.2928,1.3374,1.3568,1.3398,1.3137,1.2966,1.2875,1.1569,1.0869,1.0773,0.945,0.8772,0.851,0.7412,0.6197,0.4974,0.4888,0.4124,0.3025,0.2771,0.2215,0.1477,0.0954,0.0791,0.0808,3.547,3.5296,3.516,3.516,3.5091,3.5038,3.5038,3.5075,3.511,3.5145,3.5145,3.5162,3.5231,3.5,3.4793,3.4653,3.4439,3.4208,3.4023,3.3998,3.3998,3.3998,3.3998,3.3972,3.3947,3.3921,3.3842,3.378,3.3753,3.3369,3.2666,3.2244,3.1787,3.1352,3.1042,3.1167,3.162,3.1466,3.1252,3.1055,3.0878,3.0797,3.0757,3.0267,2.9995,2.9733,2.9166,2.8904,2.8826,2.8732,2.8826,2.9029,2.9167,2.8997,2.8748,2.824,2.8061,2.7879,2.7269,2.7078,2.6907,2.6563,2.6551,2.63,2.5189,2.4839,2.4408,2.3232,2.1835,2.0525,1.9499,1.9107,1.8685,1.7773,1.7579,1.7225,1.6403,1.6176,1.5885,1.5498,1.5273,1.5153,1.496,1.4958,1.5029,1.5163,1.4178,1.3753,1.4171,1.4138,1.4343,1.4724,1.4724,1.4643,1.4559,1.4384,1.3971,1.3476,1.2613,1.2266,1.2174,1.0867,0.9639,0.8505,0.7412,0.6605,0.5936,0.521,0.469,0.4186,0.3808,0.3433,0.309,0.2199,0.1896,0.1752,3.5451,3.5292,3.5157,3.5124,3.5037,3.4964,3.4964,3.5001,3.5038,3.5038,3.5038,3.5075,3.5147,3.4927,3.4733,3.4632,3.4371,3.4173,3.4049,3.3947,3.3921,3.3921,3.3921,3.3868,3.3815,3.3815,3.378,3.3671,3.3671,3.3533,3.3213,3.2329,3.187,3.1806,3.1643,3.162,3.1714,3.1562,3.1291,3.0975,3.0975,3.0975,3.0935,3.0617,3.0393,3.0182,2.9528,2.9182,2.9044,2.8779,2.8873,2.9075,2.9075,2.9029,2.8858,2.8448,2.8255,2.8027,2.7473,2.7233,2.7011,2.6616,2.6312,2.5893,2.523,2.4708,2.4112,2.346,2.2635,2.1777,2.096,2.0731,2.0371,1.9526,1.9453,1.9158,1.8195,1.786,1.7552,1.7154,1.6822,1.6577,1.6491,1.6428,1.6428,1.6419,1.5508,1.5092,1.5313,1.5186,1.5404,1.5932,1.5924,1.5876,1.5876,1.5538,1.4963,1.4062,1.3717,1.3385,1.3052,1.1844,1.0358,0.8839,0.7975,0.7322,0.6781,0.5728,0.5297,0.5209,0.4575,0.4316,0.4356,0.3397,0.3048,0.2938,3.5138,3.5105,3.5053,3.4945,3.4889,3.4908,3.4908,3.4889,3.4889,3.4889,3.4889,3.4945,3.5092,3.4851,3.4694,3.4694,3.4255,3.4023,3.4099,3.3842,3.3698,3.3698,3.3698,3.3671,3.3605,3.3605,3.3605,3.3605,3.3605,3.3158,3.231,3.2226,3.2575,3.3262,3.288,3.2419,3.1967,3.1637,3.1291,3.0912,3.0912,3.0912,3.0912,3.0912,3.0609,3.0189,3.0189,2.9886,2.9425,2.8889,2.8795,2.892,2.9075,2.9075,2.8967,2.8448,2.8288,2.8207,2.771,2.7488,2.7233,2.6669,2.6312,2.5893,2.5005,2.4536,2.4086,2.3355,2.3498,2.3609,2.3155,2.3095,2.3051,2.2573,2.235,2.1889,2.0804,2.022,1.9658,1.8699,1.8075,1.753,1.6844,1.6798,1.6954,1.7335,1.7335,1.6784,1.5534,1.6153,1.6388,1.622,1.67,1.7001,1.7001,1.6601,1.5944,1.4956,1.4789,1.4126,1.3045,1.2356,1.1126,0.9713,0.9478,0.865,0.7391,0.6549,0.6167,0.6089,0.5087,0.4839,0.4944,0.4344,0.4266,0.4413,3.5273,3.5168,3.5053,3.487,3.4771,3.4689,3.4689,3.4689,3.4689,3.4689,3.4689,3.471,3.4751,3.471,3.4691,3.4713,3.4435,3.4269,3.4293,3.4049,3.3895,3.3895,3.3726,3.3615,3.3605,3.3605,3.3577,3.352,3.352,3.3364,3.3042,3.3013,3.3099,3.3292,3.3055,3.2702,3.2248,3.2091,3.1711,3.1196,3.1196,3.1015,3.0773,3.0773,3.0651,3.0485,3.0189,2.9957,2.9766,2.9364,2.8982,2.8654,2.8811,2.8764,2.8622,2.822,2.8253,2.8271,2.7625,2.7488,2.7372,2.6788,2.6563,2.6297,2.5412,2.4593,2.402,2.4088,2.4038,2.3966,2.3997,2.3895,2.3661,2.3136,2.284,2.2339,2.1397,2.1009,2.0503,1.9706,1.9757,1.9825,1.9599,1.9625,1.9499,1.9247,1.8873,1.8287,1.7423,1.747,1.7674,1.8073,1.8065,1.806,1.806,1.7819,1.7245,1.6347,1.6026,1.5282,1.4119,1.3016,1.2044,1.122,1.0247,0.9344,0.8461,0.7613,0.723,0.7003,0.6549,0.6064,0.5598,0.5411,0.4991,0.4474,3.5364,3.52,3.5053,3.487,3.471,3.4602,3.4602,3.4602,3.4602,3.4602,3.4602,3.4602,3.4602,3.4645,3.4668,3.4732,3.452,3.4431,3.4517,3.4269,3.4074,3.3972,3.3788,3.3643,3.352,3.352,3.3491,3.3452,3.3452,3.3422,3.3352,3.3352,3.3292,3.3183,3.3104,3.2816,3.2369,3.2318,3.1985,3.1432,3.1295,3.1061,3.0838,3.0692,3.0609,3.0609,3.03,3.0172,3.0113,2.9722,2.9364,2.9028,2.8889,2.8701,2.8431,2.8088,2.8137,2.8204,2.774,2.764,2.7524,2.693,2.6721,2.6457,2.5618,2.4751,2.4262,2.4861,2.4659,2.4591,2.5185,2.5117,2.4838,2.4457,2.408,2.3553,2.2868,2.2299,2.1716,2.1141,2.1272,2.1407,2.1205,2.1263,2.1152,2.0698,2.0314,2.002,1.9674,1.8919,1.8822,1.9448,1.9341,1.9204,1.9204,1.9036,1.847,1.7568,1.6838,1.6114,1.5249,1.3933,1.2917,1.2308,1.1103,1.0198,0.9528,0.8685,0.83,0.8152,0.7617,0.7119,0.6631,0.6445,0.6019,0.5502,3.5407,3.5239,3.5053,3.4908,3.473,3.4583,3.458,3.4561,3.4561,3.4561,3.4561,3.4561,3.4561,3.4561,3.4623,3.4768,3.4539,3.4495,3.4687,3.445,3.4173,3.3921,3.3895,3.3753,3.3393,3.3411,3.3393,3.3364,3.3364,3.3352,3.3292,3.3292,3.3183,3.2979,3.2979,3.2737,3.2352,3.2318,3.2091,3.1677,3.1317,3.1123,3.1044,3.0675,3.0526,3.0468,3.0468,3.0468,3.0426,2.9984,2.9913,2.9886,2.9319,2.8842,2.8431,2.8088,2.8005,2.7955,2.7955,2.7855,2.7625,2.7071,2.6811,2.6457,2.5618,2.4991,2.4837,2.5612,2.551,2.551,2.6578,2.6658,2.6589,2.6427,2.5772,2.5209,2.489,2.3932,2.3135,2.2843,2.2698,2.2415,2.1895,2.2081,2.211,2.182,2.1749,2.1759,2.1924,2.0625,2.0036,2.0257,2.0419,2.042,2.0342,2.0108,1.9539,1.8718,1.7398,1.6653,1.642,1.505,1.3922,1.2981,1.2132,1.1282,1.0588,0.975,0.9372,0.9296,0.8376,0.8022,0.7924,0.7529,0.734,0.7164,3.5281,3.5203,3.5072,3.473,3.4626,3.4517,3.4316,3.4293,3.4293,3.4293,3.4293,3.4293,3.4293,3.4293,3.434,3.4495,3.4517,3.4561,3.4623,3.4363,3.4197,3.4124,3.3921,3.3726,3.3481,3.3481,3.3393,3.3165,3.3165,3.3165,3.3135,3.3135,3.3104,3.2979,3.2979,3.2916,3.2737,3.2588,3.23,3.1896,3.1711,3.1312,3.0797,3.0692,3.0485,3.0274,3.0274,3.0274,3.0231,3.013,2.987,2.9605,2.947,2.909,2.8606,2.8189,2.791,2.769,2.7554,2.759,2.7575,2.7321,2.6826,2.6283,2.6014,2.5813,2.5904,2.6546,2.6999,2.735,2.7512,2.751,2.7255,2.6589,2.5784,2.5328,2.5357,2.4621,2.4012,2.3748,2.4216,2.4481,2.4381,2.3996,2.3697,2.3603,2.3007,2.2698,2.2666,2.2558,2.2177,2.1356,2.1507,2.1308,2.0751,2.042,2.002,1.9618,1.863,1.8017,1.7746,1.6349,1.538,1.4758,1.3286,1.2332,1.1829,1.0801,1.0357,1.0212,0.9976,0.9478,0.8904,0.8632,0.8183,0.7598,3.5364,3.5254,3.5124,3.4908,3.4811,3.4668,3.4409,3.434,3.4293,3.4173,3.4124,3.4124,3.4148,3.4148,3.4197,3.4293,3.4427,3.4539,3.4602,3.4473,3.4316,3.4197,3.4074,3.3868,3.3643,3.3549,3.3375,3.3086,3.3086,3.3086,3.3073,3.3073,3.3011,3.2948,3.2852,3.282,3.2737,3.2555,3.2352,3.2127,3.1893,3.1559,3.1173,3.0814,3.0568,3.0401,3.0231,3.0189,3.0189,3.0189,3.0017,2.9826,2.9826,2.9454,2.9028,2.8748,2.8222,2.7745,2.7645,2.7524,2.7423,2.7335,2.6959,2.6592,2.6539,2.644,2.659,2.7156,2.7583,2.7939,2.8244,2.8208,2.7919,2.7197,2.6414,2.5844,2.5595,2.505,2.4656,2.4557,2.5136,2.5441,2.5305,2.4963,2.4646,2.4351,2.4066,2.3991,2.4047,2.4451,2.4014,2.2677,2.272,2.2414,2.1993,2.1318,2.0934,2.0779,1.9835,1.9283,1.9186,1.7586,1.6599,1.6016,1.4524,1.3525,1.2997,1.205,1.1545,1.1397,1.0881,1.0363,0.9981,0.9755,0.9372,0.8851,3.5493,3.5354,3.5226,3.5174,3.5037,3.4831,3.4604,3.4517,3.4386,3.4124,3.4049,3.4023,3.4074,3.4074,3.4099,3.4173,3.4269,3.4404,3.4517,3.4539,3.445,3.4221,3.4197,3.4074,3.3815,3.3633,3.3404,3.3178,3.3147,3.3073,3.3011,3.2948,3.2884,3.2802,3.2639,3.2555,3.2521,3.2352,3.2249,3.2249,3.1929,3.1763,3.1671,3.1038,3.0773,3.0675,3.0359,3.0231,3.0231,3.0146,3.0146,3.0146,3.0146,2.9886,2.9531,2.9396,2.8701,2.8012,2.7963,2.7595,2.7181,2.7115,2.6974,2.6899,2.6951,2.6906,2.706,2.7681,2.7871,2.8174,2.8743,2.8776,2.8429,2.783,2.7169,2.6465,2.5851,2.5344,2.5181,2.5427,2.5881,2.6041,2.58,2.5682,2.538,2.4914,2.5031,2.5279,2.5651,2.6025,2.5642,2.4302,2.3891,2.3588,2.322,2.2424,2.1983,2.1983,2.1011,2.0459,2.0304,1.8615,1.76,1.7064,1.556,1.4652,1.4155,1.3215,1.2785,1.2638,1.162,1.118,1.1037,1.0812,1.0519,1.017,3.5493,3.5432,3.532,3.5157,3.5034,3.487,3.4476,3.4409,3.4316,3.4049,3.3998,3.3998,3.4023,3.4023,3.4023,3.4023,3.4049,3.4124,3.4245,3.4269,3.4245,3.4197,3.4197,3.4099,3.3895,3.3671,3.3559,3.3502,3.3298,3.3129,3.2993,3.277,3.2573,3.2386,3.2352,3.2352,3.2318,3.2197,3.2144,3.2108,3.191,3.1634,3.1389,3.1257,3.1021,3.0723,3.0393,3.0267,3.0225,3.0017,2.9946,2.9946,2.9946,2.9902,2.977,2.9515,2.9028,2.8496,2.8158,2.7645,2.7115,2.6736,2.6539,2.6447,2.6525,2.7029,2.7621,2.8352,2.8929,2.9311,2.9247,2.9373,2.8962,2.7579,2.6999,2.6644,2.6376,2.5855,2.58,2.6609,2.7006,2.7308,2.7388,2.6668,2.6276,2.6451,2.5999,2.5816,2.6259,2.6642,2.6705,2.6277,2.5288,2.4264,2.322,2.2947,2.2798,2.2809,2.1983,2.1257,2.0656,1.918,1.8257,1.7578,1.6074,1.5371,1.5171,1.4155,1.3658,1.3528,1.3302,1.2799,1.2003,1.1855,1.1335,1.0669,3.5398,3.5364,3.5315,3.5219,3.5187,3.5069,3.4774,3.4694,3.4548,3.4221,3.4124,3.4074,3.3947,3.3947,3.3947,3.3998,3.3998,3.4023,3.4099,3.4099,3.4099,3.4099,3.4099,3.3998,3.3807,3.3698,3.3605,3.3491,3.3375,3.3178,3.293,3.2802,3.2606,3.2283,3.2232,3.2197,3.2161,3.2001,3.1929,3.1929,3.1837,3.1709,3.1542,3.1372,3.1201,3.1044,3.0683,3.0584,3.0502,3.0199,3.0044,2.9913,2.9754,2.9592,2.9441,2.9305,2.8889,2.84,2.7944,2.761,2.7321,2.6893,2.6736,2.6645,2.6433,2.7178,2.7967,2.8382,2.9232,2.9814,2.9718,2.9567,2.8993,2.7987,2.7374,2.6818,2.6343,2.6117,2.6214,2.6849,2.7074,2.7256,2.7256,2.672,2.6217,2.5846,2.6008,2.6054,2.6076,2.667,2.6943,2.6863,2.6107,2.5382,2.4791,2.412,2.3756,2.3756,2.2872,2.1892,2.0915,1.9955,1.8961,1.7915,1.6845,1.6315,1.6184,1.5242,1.4736,1.4601,1.3962,1.3455,1.3018,1.2879,1.2218,1.1409,3.53,3.53,3.53,3.53,3.5285,3.5203,3.5016,3.4925,3.4754,3.4321,3.4221,3.4124,3.3895,3.3868,3.3895,3.3947,3.3947,3.3947,3.3947,3.3947,3.3972,3.3998,3.3998,3.3921,3.378,3.378,3.3698,3.3549,3.3491,3.3316,3.3006,3.2898,3.2639,3.2283,3.2108,3.2037,3.2001,3.1873,3.18,3.18,3.18,3.18,3.1746,3.1504,3.1389,3.1334,3.1021,3.0885,3.0821,3.0477,3.0182,2.9897,2.9633,2.9335,2.9091,2.9029,2.8669,2.8222,2.781,2.766,2.7524,2.71,2.6997,2.6989,2.6833,2.7573,2.8296,2.8527,2.9375,3.0004,2.9822,2.9497,2.8984,2.824,2.7639,2.7054,2.6358,2.6218,2.6406,2.6736,2.6863,2.6919,2.6807,2.6465,2.5986,2.5236,2.5708,2.5915,2.5811,2.6465,2.6883,2.6943,2.6477,2.6213,2.6213,2.5158,2.4707,2.4636,2.3683,2.263,2.1477,2.077,1.9606,1.8257,1.7634,1.7235,1.6899,1.6105,1.5824,1.5675,1.4744,1.4243,1.4034,1.3897,1.3244,1.2365,3.53,3.5304,3.5293,3.5293,3.5242,3.5141,3.4945,3.4889,3.4733,3.4269,3.4197,3.4099,3.386,3.3807,3.3807,3.3815,3.3815,3.3815,3.3815,3.3815,3.3868,3.3998,3.3998,3.3998,3.3972,3.3972,3.3972,3.3947,3.378,3.3569,3.3361,3.2862,3.2506,3.2283,3.1965,3.1837,3.1837,3.18,3.18,3.18,3.18,3.18,3.18,3.1746,3.1709,3.1542,3.1252,3.1095,3.0935,3.0593,3.0199,2.9793,2.981,2.947,2.9029,2.8779,2.8558,2.8332,2.814,2.791,2.7675,2.7188,2.7071,2.7299,2.8054,2.8314,2.8606,2.9505,2.9769,2.9668,2.9078,2.9123,2.89,2.7888,2.7478,2.715,2.6717,2.6326,2.6297,2.6736,2.6807,2.6807,2.6807,2.6293,2.5932,2.5833,2.5395,2.5323,2.5798,2.622,2.6526,2.6714,2.6396,2.6213,2.6213,2.5758,2.5535,2.5535,2.4492,2.3544,2.2548,2.1596,2.026,1.8741,1.8297,1.7745,1.7166,1.6899,1.6682,1.6533,1.6394,1.5833,1.5054,1.4903,1.425,1.3528,3.5239,3.5242,3.5226,3.5226,3.5209,3.5157,3.5089,3.5089,3.4982,3.4672,3.463,3.448,3.4099,3.4049,3.3972,3.3815,3.3807,3.3807,3.3807,3.3807,3.3815,3.3868,3.3868,3.3868,3.3868,3.3868,3.3868,3.3868,3.3807,3.3625,3.3332,3.2908,3.2287,3.1462,3.1148,3.0967,3.0911,3.0911,3.1185,3.1614,3.1614,3.1614,3.1614,3.1614,3.1576,3.1538,3.1423,3.1346,3.1269,3.0935,3.0576,3.0208,2.9733,2.9348,2.9013,2.8621,2.8444,2.8396,2.8332,2.8235,2.8039,2.7625,2.7509,2.7518,2.7565,2.8261,2.8828,2.8737,2.9383,2.9884,2.9653,2.9028,2.8516,2.8539,2.7783,2.7103,2.6959,2.6826,2.6808,2.6934,2.6963,2.6963,2.6856,2.6626,2.6408,2.6147,2.63,2.6376,2.6362,2.7047,2.7591,2.7999,2.7364,2.6782,2.6396,2.6119,2.5738,2.5269,2.5073,2.4014,2.2168,2.2139,2.1116,1.941,1.9267,1.867,1.7813,1.7745,1.7354,1.676,1.6673,1.6394,1.6044,1.5833,1.5267,1.4617,3.5209,3.5209,3.5209,3.5209,3.5209,3.5209,3.5209,3.5209,3.5124,3.4927,3.4908,3.4752,3.4344,3.4279,3.4203,3.3947,3.3921,3.3895,3.3807,3.378,3.378,3.3807,3.3807,3.3807,3.3807,3.3807,3.3807,3.3807,3.378,3.3652,3.3408,3.3063,3.2464,3.1641,3.0942,3.0712,3.0864,3.0548,3.0817,3.1517,3.1517,3.1517,3.1517,3.1517,3.1462,3.1462,3.1462,3.1423,3.1346,3.1151,3.0821,3.046,2.9935,2.9556,2.9273,2.892,2.8763,2.8621,2.8621,2.8525,2.8348,2.8054,2.7989,2.7951,2.7865,2.8525,2.9053,2.8708,2.9307,2.9799,2.9496,2.8674,2.8213,2.8625,2.7779,2.7122,2.7291,2.7174,2.7122,2.7122,2.7071,2.7004,2.6901,2.6797,2.6587,2.6336,2.6588,2.6848,2.6917,2.7432,2.8078,2.8776,2.813,2.7484,2.685,2.6327,2.579,2.5111,2.5363,2.4345,2.2243,2.2823,2.201,2.0193,2.0193,1.9596,1.866,1.8613,1.8085,1.7295,1.7079,1.6881,1.6682,1.6482,1.6053,1.5621,3.5209,3.5209,3.5209,3.5209,3.5209,3.5209,3.5209,3.5209,3.5124,3.4927,3.4889,3.4793,3.4529,3.4508,3.442,3.4221,3.4197,3.4099,3.3815,3.3726,3.3726,3.3807,3.3807,3.3807,3.3807,3.3807,3.3807,3.3807,3.3726,3.3698,3.3698,3.328,3.3086,3.305,3.1542,3.1272,3.1898,3.0846,3.0817,3.15,3.1517,3.1517,3.1517,3.1517,3.1423,3.1295,3.1295,3.1252,3.119,3.119,3.0878,3.0518,3.0518,3.0182,2.9793,2.9793,2.9483,2.912,2.912,2.8732,2.8411,2.8411,2.8411,2.8581,2.9258,2.9412,2.9445,2.9667,2.9681,2.9394,2.8311,2.8125,2.8024,2.7846,2.7408,2.7291,2.774,2.7408,2.7122,2.7122,2.7004,2.6901,2.6901,2.6549,2.6283,2.6283,2.6014,2.6329,2.7474,2.7339,2.7699,2.8748,2.862,2.8168,2.7524,2.6427,2.564,2.5111,2.5211,2.4494,2.3003,2.3532,2.2847,2.1135,2.0985,2.0515,1.9792,1.942,1.889,1.821,1.8094,1.7569,1.6899,1.6682,1.6603,1.6612,3.5209,3.5209,3.5209,3.5209,3.5209,3.5193,3.5198,3.5212,3.516,3.5056,3.5075,3.5001,3.4674,3.4653,3.4548,3.4363,3.434,3.4221,3.3947,3.3753,3.3643,3.3643,3.3643,3.3643,3.3643,3.3643,3.3643,3.3643,3.3643,3.3633,3.3615,3.269,3.2224,3.2092,3.0309,2.9916,3.0585,3.0276,3.0387,3.0844,3.1414,3.1504,3.1269,3.1269,3.1269,3.1213,3.1213,3.123,3.119,3.119,3.1112,3.0918,3.0601,3.0182,2.9793,2.9793,2.9617,2.9438,2.9438,2.9028,2.859,2.8444,2.8411,2.8458,2.8658,2.9073,2.9285,2.8859,2.918,2.9388,2.9073,2.8612,2.8419,2.8859,2.8343,2.7974,2.8201,2.794,2.779,2.786,2.7775,2.7625,2.756,2.7408,2.7306,2.7203,2.7137,2.7363,2.8104,2.7969,2.8165,2.8886,2.8226,2.7792,2.755,2.7197,2.6354,2.5111,2.5501,2.4973,2.3544,2.3701,2.3323,2.2384,2.2005,2.1325,2.059,2.0462,1.9879,1.8957,1.89,1.8432,1.7628,1.7628,1.7404,1.7169,3.5209,3.5193,3.5196,3.5196,3.5179,3.5162,3.5164,3.5162,3.5162,3.5092,3.5129,3.5075,3.487,3.4851,3.4772,3.4524,3.4454,3.4316,3.4124,3.3868,3.3698,3.3671,3.3577,3.3549,3.3605,3.3605,3.3605,3.3605,3.3577,3.3385,3.3057,3.2368,3.1809,3.1402,2.9792,2.9478,3.019,3.0064,3.0309,3.0785,3.1457,3.1582,3.1389,3.1269,3.119,3.119,3.119,3.119,3.119,3.119,3.1151,3.1055,3.0797,3.0493,3.0241,3.0241,3.0027,2.987,2.987,2.9454,2.8997,2.8842,2.8668,2.851,2.851,2.8979,2.9247,2.8651,2.8835,2.9079,2.8863,2.8541,2.8388,2.8801,2.8412,2.8152,2.8201,2.8103,2.8005,2.8088,2.8005,2.7905,2.779,2.774,2.7675,2.7625,2.7625,2.7808,2.8284,2.8193,2.8326,2.8805,2.8297,2.7924,2.7619,2.7557,2.6619,2.4893,2.5056,2.4603,2.3591,2.373,2.3592,2.328,2.2955,2.2543,2.2057,2.1981,2.1382,2.0497,2.0169,1.9494,1.8829,1.8761,1.8587,1.8421,3.5193,3.5179,3.52,3.52,3.5147,3.5092,3.5092,3.5092,3.5111,3.5075,3.5092,3.5092,3.5075,3.5075,3.4964,3.4753,3.4524,3.4386,3.4316,3.4074,3.3895,3.3842,3.3577,3.3491,3.3633,3.3605,3.3577,3.3577,3.352,3.3128,3.2401,3.219,3.1727,3.1057,2.9789,2.9683,3.041,3.0203,3.0469,3.1091,3.1602,3.1787,3.1714,3.1428,3.1269,3.1252,3.1252,3.123,3.119,3.119,3.1112,3.0975,3.0975,3.0952,3.0912,3.0912,3.0568,3.0231,3.0231,2.987,2.9515,2.9515,2.9166,2.8779,2.8779,2.9136,2.9364,2.8873,2.8779,2.8654,2.8186,2.8152,2.8152,2.8152,2.8103,2.8103,2.8054,2.8054,2.8005,2.8005,2.7855,2.779,2.779,2.7675,2.7625,2.7625,2.7575,2.7742,2.8021,2.7998,2.8169,2.8548,2.8507,2.8196,2.7523,2.7465,2.6512,2.4671,2.4377,2.3884,2.3381,2.3748,2.3899,2.3833,2.3797,2.3773,2.3773,2.3628,2.3124,2.2446,2.1632,2.0917,2.0249,2.0054,1.9938,2.0042,3.5127,3.511,3.5129,3.5129,3.5111,3.5075,3.502,3.5075,3.5075,3.4945,3.5001,3.5001,3.4945,3.4945,3.4927,3.4851,3.467,3.4539,3.4539,3.4269,3.4124,3.4124,3.386,3.3726,3.3753,3.3549,3.3452,3.3452,3.3422,3.3332,3.3132,3.1882,3.1492,3.1854,2.9692,2.9196,2.9972,3.0548,3.0736,3.0752,3.2051,3.2401,3.2179,3.2074,3.1877,3.1582,3.1582,3.1428,3.119,3.1072,3.0975,3.0912,3.0912,3.0912,3.0912,3.0912,3.0733,3.0609,3.0609,3.0156,2.9722,2.9722,2.9661,2.9528,2.9364,2.9425,2.947,2.938,2.9335,2.9289,2.9198,2.9152,2.9152,2.9152,2.9075,2.892,2.8559,2.8367,2.814,2.789,2.774,2.7625,2.7625,2.7625,2.7625,2.7625,2.7488,2.7446,2.7388,2.7298,2.7214,2.7186,2.72,2.7132,2.6957,2.6507,2.5925,2.5252,2.5588,2.536,2.4475,2.4517,2.4498,2.4338,2.3941,2.3773,2.3773,2.3761,2.3561,2.3258,2.3073,2.2467,2.1696,2.1512,2.1252,2.1125,3.5111,3.5075,3.5057,3.5057,3.502,3.5001,3.4945,3.4983,3.4983,3.4908,3.4927,3.4945,3.4889,3.4908,3.4908,3.4908,3.4792,3.4751,3.4751,3.452,3.4386,3.4386,3.4124,3.3998,3.3998,3.3726,3.352,3.3393,3.3393,3.3194,3.2814,3.1962,3.1383,3.0985,2.9735,2.9409,2.987,3.0659,3.1137,3.1415,3.2411,3.2699,3.2502,3.2351,3.2179,3.2003,3.2003,3.1768,3.1389,3.1173,3.1032,3.0912,3.0912,3.0814,3.0692,3.0692,3.0651,3.0609,3.0609,3.0384,3.0113,3.0113,3.0113,3.0027,2.9722,2.9826,2.9913,2.9677,2.9633,2.9589,2.9364,2.9319,2.9319,2.9319,2.9243,2.9136,2.8935,2.8779,2.8511,2.8091,2.7993,2.7845,2.7625,2.7625,2.7575,2.7488,2.7437,2.7299,2.7144,2.7055,2.6951,2.6779,2.6779,2.6779,2.6779,2.6748,2.6512,2.5949,2.5902,2.5562,2.4909,2.4855,2.4817,2.4867,2.435,2.4278,2.4506,2.4506,2.4438,2.4333,2.4026,2.3567,2.3201,2.2868,2.2764,2.2703,3.5075,3.502,3.4983,3.4983,3.4945,3.4908,3.4908,3.4908,3.4908,3.4908,3.4908,3.4908,3.4908,3.4908,3.4908,3.4908,3.4908,3.4908,3.4908,3.4751,3.4647,3.4647,3.4427,3.4269,3.4269,3.3998,3.3726,3.3481,3.3422,3.3067,3.2397,3.2252,3.1473,3.0188,2.9924,2.9888,3.0069,3.0713,3.1455,3.2224,3.2696,3.2908,3.2876,3.2586,3.2453,3.2368,3.2385,3.2039,3.162,3.1406,3.1095,3.0814,3.0895,3.0733,3.0526,3.0526,3.0526,3.0526,3.0526,3.0526,3.0526,3.0526,3.0526,3.0384,3.0027,3.0199,3.0384,2.9984,2.9941,2.9793,2.9393,2.9348,2.9348,2.9348,2.9348,2.9303,2.9212,2.9212,2.9012,2.8496,2.8448,2.8255,2.7894,2.786,2.776,2.759,2.7539,2.7386,2.7055,2.7003,2.6951,2.6779,2.6779,2.6779,2.6779,2.7418,2.7379,2.6764,2.6239,2.5786,2.5422,2.5243,2.524,2.5481,2.4905,2.4909,2.532,2.5334,2.5312,2.5264,2.4704,2.4467,2.4398,2.4108,2.4107,2.4127,3.4964,3.4927,3.4927,3.4927,3.4908,3.4908,3.4908,3.4908,3.4908,3.4908,3.4908,3.4908,3.4908,3.4908,3.4908,3.4908,3.4908,3.4908,3.4908,3.487,3.487,3.487,3.4668,3.4539,3.4539,3.4269,3.4023,3.3753,3.3491,3.3339,3.323,3.2524,3.2071,3.1799,3.0405,3.017,3.084,3.0948,3.1455,3.227,3.3008,3.3334,3.3316,3.3256,3.3037,3.2731,3.2669,3.2109,3.1411,3.1711,3.1257,3.0593,3.0982,3.0821,3.0526,3.0526,3.0526,3.0526,3.0526,3.0526,3.0526,3.0526,3.0526,3.0468,3.0426,3.0426,3.0468,3.0426,3.0384,3.0384,3.0342,3.03,3.03,3.03,3.03,3.0156,2.975,2.9722,2.9528,2.9028,2.8982,2.8982,2.8889,2.8889,2.8701,2.8207,2.8076,2.7745,2.7181,2.7041,2.6951,2.6779,2.6779,2.6779,2.6779,2.7418,2.7614,2.7394,2.8181,2.7925,2.6619,2.6555,2.644,2.6309,2.5678,2.5381,2.548,2.5329,2.5312,2.53,2.5228,2.5133,2.5133,2.5004,2.4707,2.4418,3.5018,3.4945,3.4908,3.4908,3.4908,3.4908,3.4908,3.4908,3.4908,3.4908,3.4908,3.4908,3.4908,3.4908,3.4908,3.4908,3.4908,3.4908,3.4908,3.4908,3.4908,3.4908,3.4812,3.4771,3.4771,3.4542,3.4381,3.4245,3.3834,3.3549,3.3393,3.3049,3.2632,3.2162,3.1455,3.1329,3.1673,3.1617,3.2115,3.2904,3.3112,3.3274,3.3352,3.3256,3.3117,3.2925,3.2719,3.2369,3.202,3.1985,3.1657,3.1278,3.1218,3.1044,3.0781,3.0551,3.0526,3.0526,3.0526,3.0526,3.0526,3.0526,3.0526,3.0526,3.0526,3.0526,3.0526,3.0526,3.0526,3.0526,3.0526,3.0526,3.0526,3.0526,3.0526,3.0426,3.0199,3.0199,3.0027,2.9528,2.9257,2.9074,2.9074,2.9074,2.8982,2.8654,2.8496,2.8271,2.7944,2.7795,2.7545,2.7188,2.7188,2.7225,2.7316,2.794,2.8378,2.8555,2.9403,2.8956,2.7422,2.6961,2.6675,2.6427,2.5486,2.5448,2.6036,2.6013,2.5977,2.5931,2.5931,2.5594,2.5182,2.5111,2.4838,2.4502]}]]